[[{"header":{"parameterUnit":"m.s-1","parameterCategory":1,"la1":31.0,"la2":29.5877,"lo1":-88.7671,"lo2":-86.6584,"dy":0.0162,"dx":0.0185,"nx":115,"ny":88,"refTime":"2023-09-04T06:00:00:Z","depth":0,"parameterNumber":2,"parameterNumberName":"U-component_of_WINDS"},"data":[0.0,0.0,0.0,0.0,0.0,0.0,0.0,0.0,0.0,0.0,0.0,0.0,0.0,0.0,0.0,0.0,0.0,0.0,0.0,0.0,0.0,0.0,0.0,0.0,0.0,0.0,0.0,0.0,0.0,0.0,0.0,0.0,0.0,0.0,0.0,0.0,0.0,0.0,0.0,0.0,0.0,0.0,0.0,0.0,0.0,0.0,0.0,0.0,0.0,0.0,0.0,0.0,0.0,0.0,0.0,0.0,0.0,0.0,0.0,0.0,0.0,0.0,0.0,0.0,0.0,0.0,0.0,0.0,0.0,0.0,0.0,0.0,0.0,0.0,0.0,0.0,0.0,0.0,0.0,0.0,0.0,0.0,0.0,0.0,0.0,0.0,0.0,0.0,0.0,0.0,0.0,0.0,0.0,0.0,0.0,0.0,0.0,0.0,0.0,0.0,0.0,0.0,0.0,0.0,0.0,0.0,0.0,0.0,0.0,0.0,0.0,0.0,0.0,0.0,0.0,0.0,0.0,0.0,0.0,0.0,0.0,0.0,0.0,0.0,0.0,0.0,0.0,0.0,0.0,0.0,0.0,0.0,0.0,0.0,0.0,0.0,0.0,0.0,0.0,0.0,0.0,0.0,0.0,0.0,0.0,0.0,0.0,0.0,0.0,0.0,0.0,0.0,0.0,0.0,0.0,0.0,0.0,0.0,0.0,0.0,0.0,0.0,0.0,0.0,0.0,0.0,0.0,0.0,0.0,0.0,0.0,0.0,0.0,0.0,0.0,0.0,0.0,0.0,0.0,0.0,0.0,0.0,0.0,0.0,0.0,0.0,0.0,0.0,0.0,0.0,0.0,0.0,0.0,0.0,0.0,0.0,0.0,0.0,0.0,0.0,0.0,0.0,0.0,0.0,0.0,0.0,0.0,0.0,0.0,0.0,0.0,0.0,0.0,0.0,0.0,0.0,0.0,0.0,0.0,0.0,0.0,0.0,0.0,0.0,0.0,0.0,0.0,0.0,0.0,0.0,0.0,0.0,0.0,0.0,0.0,0.0,0.0,0.0,0.0,0.0,0.0,0.0,0.0,0.0,0.0,0.0,0.0,0.0,0.0,0.0,0.0,0.0,0.0,0.0,0.0,0.0,0.0,0.0,0.0,0.0,0.0,0.0,0.0,0.0,0.0,0.0,0.0,0.0,0.0,0.0,0.0,0.0,0.0,0.0,0.0,0.0,0.0,0.0,0.0,0.0,0.0,0.0,0.0,0.0,0.0,0.0,0.0,0.0,0.0,0.0,0.0,0.0,0.0,0.0,0.0,0.0,0.0,0.0,0.0,0.0,0.0,0.0,0.0,0.0,0.0,0.0,0.0,0.0,0.0,0.0,0.0,0.0,0.0,0.0,0.0,0.0,0.0,0.0,0.0,0.0,0.0,0.0,0.0,0.0,0.0,0.0,0.0,0.0,0.0,0.0,0.0,0.0,0.0,0.0,0.0,0.0,0.0,0.0,0.0,0.0,0.0,0.0,0.0,0.0,0.0,0.0,0.0,0.0,0.0,0.0,0.0,0.0,0.0,0.0,0.0,0.0,0.0,0.0,0.0,0.0,0.0,0.0,0.0,0.0,0.0,0.0,0.0,0.0,0.0,0.0,0.0,0.0,0.0,0.0,0.0,0.0,0.0,0.0,0.0,0.0,0.0,0.0,0.0,0.0,0.0,0.0,0.0,0.0,0.0,0.0,0.0,0.0,0.0,0.0,0.0,0.0,0.0,0.0,0.0,0.0,0.0,0.0,0.0,0.0,0.0,0.0,0.0,0.0,0.0,0.0,0.0,0.0,0.0,0.0,0.0,0.0,0.0,0.0,0.0,0.0,0.0,0.0,0.0,0.0,0.0,0.0,0.0,0.0,0.0,0.0,0.0,0.0,0.0,0.0,0.0,0.0,0.0,0.0,0.0,0.0,0.0,0.0,0.0,0.0,0.0,0.0,0.0,0.0,0.0,0.0,0.0,0.0,0.0,0.0,0.0,0.0,0.0,0.0,0.0,0.0,0.0,0.0,0.0,0.0,0.0,0.0,0.0,0.0,0.0,0.0,0.0,0.0,0.0,0.0,0.0,0.0,0.0,0.0,0.0,0.0,0.0,0.0,0.0,0.0,0.0,0.0,0.0,0.0,0.0,0.0,0.0,0.0,0.0,0.0,0.0,0.0,0.0,0.0,0.0,0.0,0.0,0.0,0.0,0.0,0.0,0.0,0.0,0.0,0.0,0.0,0.0,0.0,0.0,0.0,0.0,0.0,0.0,0.0,0.0,0.0,0.0,0.0,0.0,0.0,0.0,0.0,0.0,0.0,0.0,0.0,0.0,0.0,0.0,0.0,0.0,0.0,0.0,0.0,0.0,0.0,0.0,0.0,0.0,0.0,0.0,0.0,0.0,0.0,0.0,0.0,0.0,0.0,0.0,0.0,0.0,0.0,0.0,0.0,0.0,0.0,0.0,0.0,0.0,0.0,0.0,0.0,0.0,0.0,0.0,0.0,0.0,0.0,0.0,0.0,0.0,0.0,0.0,0.0,0.0,0.0,0.0,0.0,0.0,0.0,0.0,0.0,0.0,0.0,0.0,0.0,0.0,0.0,0.0,0.0,0.0,0.0,0.0,0.0,0.0,0.0,0.0,0.0,0.0,0.0,0.0,0.0,0.0,0.0,0.0,0.0,0.0,0.0,0.0,0.0,0.0,0.0,0.0,0.0,0.0,0.0,0.0,0.0,0.0,0.0,0.0,0.0,0.0,0.0,0.0,0.0,0.0,0.0,0.0,0.0,0.0,0.0,0.0,0.0,0.0,0.0,0.0,0.0,0.0,0.0,0.0,0.0,0.0,0.0,0.0,0.0,0.0,0.0,0.0,0.0,0.0,0.0,0.0,0.0,0.0,0.0,0.0,0.0,0.0,0.0,0.0,0.0,0.0,0.0,0.0,0.0,0.0,0.0,0.0,0.0,0.0,0.0,0.0,0.0,0.0,0.0,0.0,0.0,0.0,0.0,0.0,0.0,0.0,0.0,0.0,0.0,0.0,0.0,0.0,0.0,0.0,0.0,0.0,0.0,0.0,0.0,0.0,0.0,0.0,0.0,0.0,0.0,0.0,0.0,0.0,0.0,0.0,0.0,0.0,0.0,0.0,0.0,0.0,0.0,0.0,0.0,0.0,0.0,0.0,0.0,0.0,0.0,0.0,0.0,0.0,0.0,0.0,0.0,0.0,0.0,0.0,0.0,0.0,0.0,0.0,0.0,0.0,0.0,0.0,0.0,0.0,0.0,0.0,0.0,0.0,0.0,0.0,0.0,0.0,0.0,0.0,0.0,0.0,0.0,0.0,0.0,0.0,0.0,0.0,0.0,0.0,0.0,0.0,0.0,0.0,0.0,0.0,0.0,0.0,0.0,0.0,0.0,0.0,0.0,0.0,0.0,0.0,0.0,0.0,0.0,0.0,0.0,0.0,0.0,0.0,0.0,0.0,0.0,0.0,0.0,0.0,0.0,0.0,0.0,0.0,0.0,0.0,0.0,0.0,0.0,0.0,0.0,0.0,0.0,0.0,0.0,0.0,0.0,0.0,0.0,0.0,0.0,0.0,0.0,0.0,0.0,0.0,0.0,0.0,0.0,0.0,0.0,0.0,0.0,0.0,0.0,0.0,0.0,0.0,0.0,0.0,0.0,0.0,0.0,0.0,0.0,0.0,0.0,0.0,0.0,0.0,0.0,0.0,0.0,0.0,0.0,0.0,0.0,0.0,0.0,0.0,0.0,0.0,0.0,0.0,0.0,0.0,0.0,0.0,0.0,0.0,0.0,0.0,0.0,0.0,0.0,0.0,0.0,0.0,0.0,0.0,0.0,0.0,0.0,0.0,0.0,0.0,0.0,0.0,0.0,0.0,0.0,0.0,0.0,0.0,0.0,0.0,0.0,0.0,0.0,0.0,0.0,0.0,0.0,0.0,0.0,0.0,0.0,0.0,0.0,0.0,0.0,0.0,0.0,0.0,0.0,0.0,0.0,0.0,0.0,0.0,0.0,0.0,0.0,0.0,0.0,0.0,0.0,0.0,0.0,0.0,0.0,0.0,0.0,0.0,0.0,0.0,0.0,0.0,0.0,0.0,0.0,0.0,0.0,0.0,0.0,0.0,0.0,0.0,0.0,0.0,0.0,0.0,0.0,0.0,0.0,0.0,0.0,0.0,0.0,0.0,0.0,0.0,0.0,0.0,0.0,0.0,0.0,0.0,0.0,0.0,0.0,-3.3734,0.0,0.0,0.0,0.0,0.0,0.0,0.0,0.0,0.0,0.0,0.0,0.0,0.0,0.0,0.0,0.0,0.0,0.0,0.0,0.0,0.0,0.0,0.0,0.0,0.0,0.0,0.0,0.0,0.0,0.0,0.0,0.0,0.0,0.0,0.0,0.0,0.0,0.0,0.0,0.0,0.0,0.0,0.0,0.0,0.0,0.0,0.0,0.0,0.0,0.0,0.0,0.0,0.0,0.0,0.0,0.0,0.0,0.0,0.0,0.0,0.0,0.0,0.0,0.0,0.0,0.0,0.0,0.0,0.0,0.0,0.0,0.0,0.0,0.0,0.0,0.0,0.0,0.0,0.0,0.0,0.0,0.0,0.0,0.0,0.0,0.0,0.0,0.0,0.0,0.0,0.0,0.0,0.0,0.0,0.0,0.0,0.0,0.0,0.0,0.0,0.0,0.0,0.0,0.0,0.0,0.0,0.0,0.0,0.0,0.0,-3.5754,-3.5553,-3.5144,-3.4903,-3.4757,0.0,0.0,0.0,0.0,0.0,0.0,0.0,0.0,0.0,0.0,0.0,0.0,0.0,0.0,0.0,0.0,0.0,0.0,0.0,0.0,0.0,0.0,0.0,0.0,0.0,0.0,0.0,0.0,0.0,0.0,0.0,0.0,0.0,0.0,0.0,0.0,0.0,0.0,0.0,0.0,0.0,0.0,0.0,0.0,0.0,0.0,0.0,0.0,0.0,0.0,0.0,0.0,0.0,0.0,0.0,0.0,0.0,0.0,0.0,0.0,0.0,0.0,0.0,0.0,0.0,0.0,0.0,0.0,0.0,0.0,0.0,0.0,0.0,0.0,0.0,0.0,0.0,0.0,0.0,0.0,0.0,0.0,0.0,0.0,0.0,0.0,0.0,0.0,0.0,0.0,0.0,0.0,0.0,0.0,0.0,0.0,0.0,0.0,0.0,0.0,0.0,0.0,0.0,0.0,0.0,0.0,0.0,0.0,0.0,0.0,0.0,0.0,-3.5968,-3.5675,-3.5325,0.0,0.0,0.0,0.0,0.0,0.0,0.0,0.0,0.0,0.0,0.0,0.0,0.0,0.0,0.0,0.0,0.0,0.0,0.0,0.0,0.0,0.0,0.0,0.0,0.0,0.0,0.0,0.0,0.0,0.0,0.0,0.0,0.0,0.0,0.0,0.0,0.0,0.0,0.0,0.0,0.0,0.0,0.0,0.0,0.0,0.0,0.0,0.0,0.0,0.0,0.0,0.0,0.0,0.0,0.0,0.0,0.0,0.0,0.0,0.0,0.0,0.0,0.0,0.0,0.0,0.0,0.0,0.0,0.0,0.0,0.0,0.0,0.0,0.0,0.0,0.0,0.0,0.0,0.0,0.0,0.0,0.0,0.0,0.0,0.0,0.0,0.0,0.0,0.0,0.0,0.0,0.0,0.0,0.0,0.0,0.0,0.0,0.0,0.0,0.0,0.0,0.0,0.0,0.0,0.0,0.0,0.0,0.0,0.0,0.0,-3.7122,-3.6919,-3.6083,0.0,-3.4361,0.0,0.0,0.0,0.0,0.0,0.0,0.0,0.0,0.0,0.0,0.0,0.0,0.0,0.0,0.0,0.0,0.0,0.0,0.0,0.0,0.0,0.0,0.0,0.0,0.0,0.0,0.0,0.0,0.0,0.0,0.0,0.0,0.0,0.0,0.0,0.0,0.0,0.0,0.0,0.0,0.0,0.0,0.0,0.0,0.0,0.0,0.0,0.0,0.0,0.0,0.0,0.0,0.0,0.0,0.0,0.0,0.0,0.0,0.0,0.0,0.0,0.0,0.0,0.0,0.0,0.0,0.0,0.0,0.0,0.0,0.0,0.0,0.0,0.0,0.0,0.0,0.0,0.0,0.0,0.0,0.0,0.0,0.0,0.0,0.0,0.0,0.0,0.0,0.0,0.0,0.0,0.0,0.0,0.0,0.0,0.0,0.0,0.0,0.0,0.0,0.0,0.0,0.0,0.0,0.0,0.0,0.0,0.0,0.0,0.0,-3.8623,-3.8887,-3.79,-3.6756,0.0,0.0,0.0,0.0,0.0,0.0,0.0,0.0,0.0,0.0,0.0,0.0,0.0,0.0,0.0,0.0,0.0,0.0,0.0,0.0,0.0,0.0,0.0,0.0,0.0,0.0,0.0,0.0,0.0,0.0,0.0,0.0,0.0,0.0,0.0,0.0,0.0,0.0,0.0,0.0,0.0,0.0,0.0,0.0,0.0,0.0,0.0,0.0,0.0,0.0,0.0,0.0,0.0,0.0,0.0,0.0,0.0,0.0,0.0,0.0,0.0,0.0,0.0,0.0,0.0,0.0,0.0,0.0,0.0,0.0,0.0,0.0,0.0,0.0,0.0,0.0,0.0,0.0,0.0,0.0,0.0,0.0,0.0,0.0,0.0,0.0,0.0,0.0,0.0,0.0,0.0,0.0,0.0,0.0,0.0,0.0,0.0,0.0,0.0,0.0,0.0,0.0,0.0,0.0,0.0,0.0,0.0,0.0,0.0,0.0,-3.9315,-3.9445,-3.971,-3.8925,-3.7829,-3.6465,0.0,0.0,0.0,0.0,0.0,0.0,0.0,0.0,0.0,0.0,0.0,0.0,0.0,0.0,0.0,0.0,0.0,0.0,0.0,0.0,0.0,0.0,0.0,0.0,0.0,0.0,0.0,0.0,0.0,0.0,0.0,0.0,0.0,0.0,0.0,0.0,0.0,0.0,0.0,0.0,0.0,0.0,0.0,0.0,0.0,0.0,0.0,0.0,0.0,0.0,0.0,0.0,0.0,0.0,0.0,0.0,0.0,0.0,0.0,0.0,0.0,0.0,0.0,0.0,0.0,0.0,0.0,0.0,0.0,0.0,0.0,0.0,0.0,0.0,0.0,0.0,0.0,0.0,0.0,0.0,0.0,0.0,0.0,0.0,0.0,0.0,0.0,0.0,0.0,0.0,0.0,0.0,0.0,0.0,0.0,0.0,0.0,0.0,0.0,0.0,0.0,0.0,0.0,0.0,0.0,0.0,0.0,0.0,-3.9192,-3.9229,-3.9049,-3.8765,-3.8309,-3.7745,0.0,0.0,0.0,0.0,0.0,0.0,0.0,0.0,0.0,0.0,0.0,0.0,0.0,0.0,0.0,0.0,0.0,0.0,0.0,0.0,0.0,0.0,0.0,0.0,0.0,0.0,0.0,0.0,0.0,0.0,0.0,0.0,0.0,0.0,0.0,0.0,0.0,0.0,0.0,0.0,0.0,0.0,0.0,0.0,0.0,0.0,0.0,0.0,0.0,0.0,0.0,0.0,0.0,0.0,0.0,0.0,0.0,0.0,0.0,0.0,0.0,0.0,0.0,0.0,0.0,0.0,0.0,0.0,0.0,0.0,0.0,0.0,0.0,0.0,0.0,0.0,0.0,0.0,0.0,0.0,0.0,0.0,0.0,0.0,0.0,0.0,0.0,0.0,0.0,0.0,0.0,0.0,0.0,0.0,0.0,0.0,0.0,0.0,0.0,0.0,0.0,0.0,0.0,0.0,0.0,0.0,0.0,0.0,0.0,-3.9841,-4.0735,-4.077,-3.9911,-3.9233,-3.8435,0.0,0.0,0.0,0.0,0.0,0.0,0.0,0.0,0.0,0.0,0.0,0.0,0.0,0.0,0.0,0.0,0.0,0.0,0.0,0.0,0.0,0.0,0.0,0.0,0.0,0.0,0.0,0.0,0.0,0.0,0.0,0.0,0.0,0.0,0.0,0.0,0.0,0.0,0.0,0.0,0.0,0.0,0.0,0.0,0.0,0.0,0.0,0.0,0.0,0.0,0.0,0.0,0.0,0.0,0.0,0.0,0.0,0.0,0.0,0.0,0.0,0.0,0.0,0.0,0.0,0.0,0.0,0.0,0.0,0.0,0.0,0.0,0.0,0.0,0.0,0.0,0.0,0.0,0.0,0.0,0.0,0.0,0.0,0.0,0.0,0.0,0.0,0.0,0.0,0.0,0.0,0.0,0.0,0.0,0.0,0.0,0.0,0.0,0.0,0.0,0.0,0.0,0.0,0.0,0.0,0.0,0.0,0.0,0.0,-4.0803,0.0,-4.2079,-4.094,-4.0017,-3.895,0.0,0.0,0.0,0.0,0.0,0.0,0.0,0.0,0.0,0.0,0.0,0.0,0.0,0.0,0.0,0.0,0.0,0.0,0.0,0.0,0.0,0.0,0.0,0.0,0.0,0.0,0.0,0.0,0.0,0.0,0.0,0.0,0.0,0.0,0.0,0.0,0.0,0.0,0.0,0.0,0.0,0.0,0.0,0.0,0.0,0.0,0.0,0.0,0.0,0.0,0.0,0.0,0.0,0.0,0.0,0.0,0.0,0.0,0.0,0.0,0.0,0.0,0.0,0.0,0.0,0.0,0.0,0.0,0.0,0.0,0.0,0.0,0.0,0.0,0.0,0.0,0.0,0.0,0.0,0.0,0.0,0.0,0.0,0.0,0.0,0.0,0.0,0.0,0.0,0.0,0.0,0.0,0.0,0.0,0.0,0.0,0.0,0.0,0.0,0.0,0.0,0.0,0.0,0.0,0.0,0.0,0.0,0.0,-3.985,-4.2139,-4.2946,-4.2819,-4.1674,-4.061,-3.9257,0.0,0.0,0.0,0.0,0.0,0.0,0.0,0.0,0.0,0.0,0.0,0.0,0.0,0.0,0.0,0.0,0.0,0.0,0.0,0.0,0.0,0.0,0.0,0.0,0.0,0.0,0.0,0.0,0.0,0.0,0.0,0.0,0.0,0.0,0.0,0.0,0.0,0.0,0.0,0.0,0.0,0.0,0.0,0.0,0.0,0.0,0.0,0.0,0.0,0.0,0.0,0.0,0.0,0.0,0.0,0.0,0.0,0.0,0.0,0.0,0.0,0.0,0.0,0.0,0.0,0.0,0.0,0.0,0.0,0.0,0.0,0.0,0.0,0.0,0.0,0.0,0.0,0.0,0.0,0.0,0.0,0.0,0.0,0.0,0.0,0.0,0.0,0.0,0.0,0.0,0.0,0.0,0.0,0.0,0.0,0.0,0.0,0.0,0.0,0.0,0.0,0.0,0.0,0.0,0.0,0.0,0.0,0.0,0.0,-4.3793,-4.3961,-4.3941,-4.3821,-4.1853,-4.0199,0.0,0.0,0.0,0.0,0.0,0.0,0.0,0.0,0.0,0.0,0.0,0.0,0.0,0.0,0.0,0.0,0.0,0.0,0.0,0.0,0.0,0.0,0.0,0.0,0.0,0.0,0.0,0.0,0.0,0.0,0.0,0.0,0.0,0.0,0.0,0.0,0.0,0.0,0.0,0.0,0.0,0.0,0.0,0.0,0.0,0.0,0.0,0.0,0.0,0.0,0.0,0.0,0.0,0.0,0.0,0.0,0.0,0.0,0.0,0.0,0.0,0.0,0.0,0.0,0.0,0.0,0.0,0.0,0.0,0.0,0.0,0.0,0.0,0.0,0.0,0.0,0.0,0.0,0.0,0.0,0.0,0.0,0.0,0.0,0.0,0.0,0.0,0.0,0.0,0.0,0.0,0.0,0.0,0.0,0.0,0.0,0.0,0.0,0.0,0.0,0.0,0.0,0.0,0.0,0.0,0.0,0.0,0.0,0.0,-4.6046,-4.5717,-4.5387,-4.5157,-4.2972,-4.1047,-3.9416,0.0,0.0,0.0,0.0,0.0,0.0,0.0,0.0,0.0,0.0,0.0,0.0,0.0,0.0,0.0,0.0,0.0,0.0,0.0,0.0,0.0,0.0,0.0,0.0,0.0,0.0,0.0,0.0,0.0,0.0,0.0,0.0,0.0,0.0,0.0,0.0,0.0,0.0,0.0,0.0,0.0,0.0,0.0,0.0,0.0,0.0,0.0,0.0,0.0,0.0,0.0,0.0,0.0,0.0,0.0,0.0,0.0,0.0,0.0,0.0,0.0,0.0,0.0,0.0,0.0,0.0,0.0,0.0,0.0,0.0,0.0,0.0,0.0,0.0,0.0,0.0,0.0,0.0,0.0,0.0,0.0,0.0,0.0,0.0,0.0,0.0,0.0,0.0,0.0,0.0,0.0,0.0,0.0,0.0,0.0,0.0,0.0,0.0,0.0,0.0,0.0,0.0,0.0,0.0,0.0,0.0,0.0,0.0,-4.8735,-4.8076,-4.7164,-4.5918,-4.4139,-4.1919,0.0,0.0,0.0,0.0,0.0,0.0,0.0,0.0,0.0,0.0,0.0,0.0,0.0,0.0,0.0,0.0,0.0,0.0,0.0,0.0,0.0,0.0,0.0,0.0,0.0,0.0,0.0,0.0,0.0,0.0,0.0,0.0,0.0,0.0,0.0,0.0,0.0,0.0,0.0,0.0,0.0,0.0,0.0,0.0,0.0,0.0,0.0,0.0,0.0,0.0,0.0,0.0,0.0,0.0,0.0,0.0,0.0,0.0,0.0,0.0,0.0,0.0,0.0,0.0,0.0,0.0,0.0,0.0,0.0,0.0,0.0,0.0,0.0,0.0,0.0,0.0,0.0,0.0,0.0,0.0,0.0,0.0,0.0,0.0,0.0,0.0,0.0,0.0,0.0,0.0,0.0,0.0,0.0,0.0,0.0,0.0,0.0,0.0,0.0,0.0,0.0,0.0,0.0,0.0,0.0,0.0,0.0,0.0,0.0,-4.9354,-5.0087,-4.999,-4.8959,-4.6598,-4.4087,0.0,0.0,0.0,0.0,0.0,0.0,0.0,0.0,0.0,0.0,0.0,0.0,0.0,0.0,0.0,0.0,0.0,0.0,0.0,0.0,0.0,0.0,0.0,0.0,0.0,0.0,0.0,0.0,0.0,0.0,0.0,0.0,0.0,0.0,0.0,0.0,0.0,0.0,0.0,0.0,0.0,0.0,0.0,0.0,0.0,0.0,0.0,0.0,0.0,0.0,0.0,0.0,0.0,0.0,0.0,0.0,0.0,0.0,0.0,0.0,0.0,0.0,0.0,0.0,0.0,0.0,0.0,0.0,0.0,0.0,0.0,0.0,0.0,0.0,0.0,0.0,0.0,0.0,0.0,0.0,0.0,0.0,0.0,0.0,0.0,0.0,0.0,0.0,0.0,0.0,0.0,0.0,0.0,0.0,0.0,0.0,0.0,0.0,0.0,0.0,0.0,0.0,0.0,0.0,0.0,0.0,0.0,0.0,-4.7726,-4.9874,-5.1164,-5.1613,-5.1223,-4.8012,-4.4919,0.0,0.0,0.0,0.0,0.0,0.0,0.0,0.0,0.0,0.0,0.0,0.0,0.0,0.0,0.0,0.0,0.0,0.0,0.0,0.0,0.0,0.0,0.0,0.0,0.0,0.0,0.0,0.0,0.0,0.0,0.0,0.0,0.0,0.0,0.0,0.0,0.0,0.0,0.0,0.0,0.0,0.0,0.0,0.0,0.0,0.0,0.0,0.0,0.0,0.0,0.0,0.0,0.0,0.0,0.0,0.0,0.0,0.0,0.0,0.0,0.0,0.0,0.0,0.0,0.0,0.0,0.0,0.0,0.0,0.0,0.0,0.0,0.0,0.0,0.0,0.0,0.0,0.0,0.0,0.0,0.0,0.0,0.0,0.0,0.0,0.0,0.0,0.0,0.0,0.0,0.0,0.0,0.0,0.0,0.0,0.0,0.0,0.0,0.0,0.0,0.0,0.0,0.0,0.0,0.0,0.0,0.0,0.0,-4.7956,-5.0057,-5.1382,-5.2158,-5.2242,-4.874,-4.5248,0.0,0.0,0.0,0.0,0.0,0.0,0.0,0.0,0.0,0.0,0.0,0.0,0.0,0.0,0.0,0.0,0.0,0.0,0.0,0.0,0.0,0.0,0.0,0.0,0.0,0.0,0.0,0.0,0.0,0.0,0.0,0.0,0.0,0.0,0.0,0.0,0.0,0.0,0.0,0.0,0.0,0.0,0.0,0.0,0.0,0.0,0.0,0.0,0.0,0.0,0.0,0.0,0.0,0.0,0.0,0.0,0.0,0.0,0.0,0.0,0.0,0.0,0.0,0.0,0.0,0.0,0.0,0.0,0.0,0.0,0.0,0.0,0.0,0.0,0.0,0.0,0.0,0.0,0.0,0.0,0.0,0.0,0.0,0.0,0.0,0.0,0.0,0.0,0.0,0.0,0.0,0.0,0.0,0.0,0.0,0.0,0.0,0.0,0.0,0.0,0.0,0.0,0.0,0.0,0.0,0.0,0.0,0.0,-4.7481,-4.9509,-5.0626,-5.1072,-5.0861,-4.962,-4.7354,0.0,0.0,0.0,0.0,0.0,0.0,0.0,0.0,0.0,0.0,0.0,0.0,0.0,0.0,0.0,0.0,0.0,0.0,0.0,0.0,0.0,0.0,0.0,0.0,0.0,0.0,0.0,0.0,0.0,0.0,0.0,0.0,0.0,0.0,0.0,0.0,0.0,0.0,0.0,0.0,0.0,0.0,0.0,0.0,0.0,0.0,0.0,0.0,-4.1249,0.0,0.0,0.0,0.0,0.0,0.0,0.0,0.0,0.0,0.0,0.0,0.0,0.0,0.0,0.0,0.0,0.0,0.0,0.0,0.0,0.0,0.0,0.0,0.0,0.0,0.0,0.0,0.0,0.0,0.0,0.0,0.0,0.0,0.0,0.0,0.0,0.0,0.0,0.0,0.0,0.0,0.0,0.0,0.0,0.0,0.0,0.0,0.0,0.0,0.0,0.0,0.0,0.0,0.0,0.0,0.0,0.0,0.0,0.0,-4.7425,-4.9023,-4.9862,-5.0242,-5.0123,-4.901,-4.6848,0.0,0.0,0.0,0.0,0.0,0.0,0.0,0.0,0.0,0.0,0.0,0.0,0.0,0.0,0.0,0.0,0.0,0.0,0.0,0.0,0.0,0.0,0.0,0.0,0.0,0.0,0.0,0.0,0.0,0.0,0.0,0.0,0.0,0.0,0.0,0.0,0.0,0.0,0.0,0.0,0.0,0.0,0.0,0.0,0.0,0.0,0.0,0.0,0.0,0.0,0.0,0.0,0.0,0.0,0.0,0.0,0.0,0.0,0.0,0.0,0.0,0.0,0.0,0.0,0.0,0.0,0.0,0.0,0.0,0.0,0.0,0.0,0.0,0.0,0.0,0.0,0.0,0.0,0.0,0.0,0.0,0.0,0.0,0.0,0.0,0.0,0.0,0.0,0.0,0.0,0.0,0.0,0.0,0.0,0.0,0.0,0.0,0.0,0.0,0.0,0.0,0.0,0.0,0.0,0.0,0.0,0.0,-4.5693,-4.7449,-4.8574,-4.9122,-4.9427,-4.9465,-4.7733,-4.5266,-4.2141,0.0,0.0,0.0,0.0,0.0,0.0,0.0,0.0,0.0,0.0,0.0,0.0,0.0,0.0,0.0,0.0,0.0,0.0,0.0,0.0,0.0,0.0,0.0,0.0,0.0,0.0,0.0,0.0,0.0,0.0,0.0,0.0,0.0,0.0,0.0,0.0,0.0,0.0,-3.7949,-4.0175,0.0,0.0,0.0,0.0,0.0,0.0,0.0,0.0,-4.4163,0.0,0.0,0.0,0.0,0.0,0.0,0.0,0.0,0.0,0.0,0.0,0.0,0.0,0.0,0.0,0.0,0.0,0.0,0.0,0.0,0.0,0.0,0.0,0.0,0.0,0.0,0.0,0.0,0.0,0.0,0.0,0.0,0.0,0.0,0.0,0.0,0.0,0.0,0.0,0.0,0.0,0.0,0.0,0.0,0.0,0.0,0.0,0.0,0.0,0.0,0.0,0.0,0.0,0.0,0.0,0.0,-4.3244,-4.5333,-4.701,-4.8258,-4.838,-4.8171,-4.7645,-4.6397,-4.4097,-4.0666,0.0,0.0,0.0,0.0,0.0,0.0,0.0,0.0,0.0,0.0,0.0,0.0,0.0,0.0,0.0,0.0,0.0,0.0,0.0,0.0,0.0,0.0,0.0,0.0,0.0,0.0,0.0,0.0,0.0,0.0,0.0,0.0,0.0,0.0,0.0,0.0,0.0,0.0,0.0,-4.2279,-4.3546,0.0,0.0,0.0,0.0,0.0,0.0,0.0,0.0,-4.4438,0.0,0.0,0.0,0.0,0.0,0.0,0.0,0.0,0.0,0.0,0.0,0.0,0.0,0.0,0.0,0.0,0.0,0.0,0.0,0.0,0.0,0.0,0.0,0.0,0.0,0.0,0.0,0.0,0.0,0.0,0.0,0.0,0.0,0.0,0.0,0.0,0.0,0.0,0.0,0.0,0.0,0.0,0.0,0.0,0.0,0.0,0.0,0.0,0.0,0.0,0.0,0.0,0.0,0.0,0.0,-4.2815,-4.499,-4.65,-4.7242,-4.7158,-4.6837,-4.6191,-4.4291,-4.2122,0.0,0.0,0.0,0.0,0.0,0.0,0.0,0.0,0.0,0.0,0.0,0.0,0.0,0.0,0.0,0.0,0.0,0.0,0.0,0.0,0.0,0.0,0.0,0.0,0.0,0.0,0.0,0.0,0.0,0.0,0.0,0.0,0.0,0.0,0.0,0.0,0.0,0.0,0.0,0.0,-4.3711,-4.4882,-4.5093,0.0,0.0,0.0,0.0,0.0,0.0,-4.6318,-4.5899,0.0,0.0,0.0,0.0,0.0,0.0,0.0,0.0,0.0,0.0,0.0,0.0,0.0,0.0,0.0,0.0,0.0,0.0,0.0,0.0,0.0,0.0,0.0,0.0,0.0,0.0,0.0,0.0,0.0,0.0,0.0,0.0,0.0,0.0,0.0,0.0,0.0,0.0,0.0,0.0,0.0,0.0,0.0,0.0,0.0,0.0,0.0,0.0,0.0,0.0,0.0,0.0,0.0,0.0,0.0,-4.2301,-4.4594,-4.5889,-4.6143,-4.6026,-4.5512,-4.4639,-4.2257,-4.0352,0.0,0.0,0.0,0.0,0.0,0.0,0.0,0.0,0.0,0.0,0.0,0.0,0.0,0.0,0.0,0.0,0.0,0.0,0.0,0.0,0.0,0.0,0.0,0.0,0.0,0.0,0.0,0.0,0.0,0.0,0.0,0.0,0.0,0.0,0.0,0.0,0.0,0.0,0.0,0.0,0.0,-4.5937,-4.6324,-4.7128,0.0,0.0,0.0,0.0,-4.7256,-4.7473,0.0,0.0,0.0,0.0,0.0,0.0,0.0,0.0,0.0,0.0,0.0,0.0,0.0,0.0,0.0,0.0,0.0,0.0,0.0,0.0,0.0,0.0,0.0,0.0,0.0,0.0,0.0,0.0,0.0,0.0,0.0,0.0,0.0,0.0,0.0,0.0,0.0,0.0,0.0,0.0,0.0,0.0,0.0,0.0,0.0,0.0,0.0,0.0,0.0,0.0,0.0,0.0,0.0,0.0,0.0,0.0,-4.2094,-4.4051,-4.5147,-4.5245,-4.5332,-4.4415,-4.2346,-4.1247,-3.9696,0.0,0.0,0.0,0.0,0.0,0.0,0.0,0.0,0.0,0.0,0.0,0.0,0.0,0.0,0.0,0.0,0.0,0.0,0.0,0.0,0.0,0.0,0.0,0.0,0.0,0.0,0.0,0.0,0.0,0.0,0.0,0.0,0.0,0.0,0.0,0.0,0.0,0.0,0.0,0.0,0.0,-4.6645,-4.8149,-4.8464,-4.8321,0.0,0.0,-4.7232,-4.7372,-4.7076,0.0,0.0,0.0,0.0,0.0,0.0,0.0,0.0,0.0,0.0,0.0,0.0,0.0,0.0,0.0,0.0,0.0,0.0,0.0,0.0,0.0,0.0,0.0,0.0,0.0,0.0,0.0,0.0,0.0,0.0,0.0,0.0,0.0,0.0,0.0,0.0,0.0,0.0,0.0,0.0,0.0,0.0,0.0,0.0,0.0,0.0,0.0,0.0,0.0,0.0,0.0,0.0,0.0,0.0,0.0,-4.0162,-4.0615,-4.2539,-4.359,-4.3746,-4.3868,-4.3103,-4.1372,-4.0021,-3.8568,0.0,0.0,0.0,0.0,0.0,0.0,0.0,0.0,0.0,0.0,0.0,0.0,0.0,0.0,0.0,0.0,0.0,0.0,0.0,0.0,0.0,0.0,0.0,0.0,0.0,0.0,0.0,0.0,0.0,0.0,0.0,0.0,0.0,0.0,0.0,0.0,0.0,0.0,0.0,0.0,0.0,0.0,-4.8562,-4.9526,0.0,0.0,0.0,-4.9193,-4.9365,0.0,0.0,0.0,0.0,0.0,0.0,0.0,0.0,0.0,0.0,0.0,0.0,0.0,0.0,0.0,0.0,0.0,0.0,0.0,0.0,0.0,0.0,0.0,0.0,0.0,0.0,0.0,0.0,0.0,0.0,0.0,0.0,0.0,0.0,0.0,0.0,0.0,0.0,0.0,0.0,0.0,0.0,0.0,0.0,0.0,0.0,0.0,0.0,0.0,0.0,0.0,0.0,0.0,0.0,0.0,0.0,0.0,-3.9346,-4.1055,-4.2023,-4.2228,-4.2453,-4.1826,-4.0269,-3.8913,0.0,0.0,0.0,0.0,0.0,0.0,0.0,0.0,0.0,0.0,0.0,0.0,0.0,0.0,0.0,0.0,0.0,0.0,0.0,0.0,0.0,0.0,0.0,0.0,0.0,0.0,0.0,-3.1697,0.0,0.0,0.0,0.0,0.0,0.0,0.0,0.0,0.0,0.0,0.0,0.0,0.0,0.0,-4.6782,-4.8535,-4.9655,-5.0255,0.0,0.0,-4.9859,-5.0075,-4.906,-4.7825,0.0,0.0,0.0,0.0,0.0,0.0,0.0,0.0,0.0,0.0,0.0,0.0,0.0,0.0,0.0,0.0,0.0,0.0,0.0,0.0,0.0,0.0,0.0,0.0,0.0,0.0,0.0,0.0,0.0,0.0,0.0,0.0,0.0,0.0,0.0,0.0,0.0,0.0,0.0,0.0,0.0,0.0,0.0,0.0,0.0,0.0,0.0,0.0,0.0,0.0,0.0,0.0,0.0,0.0,0.0,-3.8787,-4.0052,-4.078,-4.096,-4.1411,-4.0636,-3.8461,-3.8141,-3.7322,0.0,0.0,0.0,0.0,0.0,0.0,0.0,0.0,0.0,0.0,0.0,0.0,0.0,0.0,0.0,0.0,0.0,0.0,0.0,0.0,0.0,0.0,0.0,0.0,0.0,0.0,0.0,0.0,0.0,0.0,0.0,0.0,0.0,0.0,0.0,0.0,0.0,0.0,0.0,0.0,0.0,-4.5636,-4.8345,-4.8268,-4.821,0.0,0.0,-4.7686,-4.7886,-4.6859,-4.5588,-4.426,0.0,0.0,0.0,0.0,0.0,0.0,0.0,0.0,0.0,0.0,0.0,0.0,0.0,0.0,0.0,0.0,0.0,0.0,0.0,0.0,0.0,0.0,0.0,0.0,0.0,0.0,0.0,0.0,0.0,0.0,0.0,0.0,0.0,0.0,0.0,0.0,0.0,0.0,0.0,0.0,0.0,0.0,0.0,0.0,0.0,0.0,0.0,0.0,0.0,0.0,0.0,0.0,0.0,-3.7463,-3.8246,-3.8849,-3.9508,-4.0266,-4.0596,-3.9814,-3.794,-3.7842,-3.7107,0.0,0.0,0.0,0.0,0.0,0.0,0.0,0.0,0.0,0.0,0.0,0.0,0.0,0.0,0.0,0.0,0.0,0.0,0.0,0.0,0.0,0.0,0.0,0.0,0.0,0.0,0.0,0.0,-3.2315,-3.2471,-3.2913,0.0,0.0,0.0,0.0,0.0,0.0,0.0,0.0,0.0,0.0,-4.4843,-4.7182,-4.7807,0.0,0.0,-4.8437,-4.831,-4.8381,-4.7298,-4.6143,-4.5178,-4.3676,0.0,0.0,0.0,0.0,0.0,0.0,0.0,0.0,0.0,0.0,0.0,0.0,0.0,0.0,0.0,0.0,0.0,0.0,0.0,0.0,0.0,0.0,0.0,0.0,0.0,0.0,0.0,0.0,0.0,0.0,0.0,0.0,0.0,0.0,0.0,0.0,0.0,0.0,0.0,0.0,0.0,0.0,0.0,0.0,0.0,0.0,0.0,0.0,0.0,0.0,0.0,0.0,-3.6508,-3.7707,-3.7809,-3.8409,-3.9631,-3.9773,-3.9229,-3.7882,-3.7676,-3.7045,0.0,0.0,0.0,0.0,0.0,0.0,0.0,0.0,0.0,0.0,0.0,0.0,0.0,0.0,0.0,0.0,0.0,0.0,0.0,0.0,0.0,0.0,0.0,0.0,0.0,0.0,0.0,0.0,-3.2191,-3.2381,-3.2979,0.0,0.0,0.0,0.0,0.0,0.0,0.0,0.0,0.0,0.0,-4.4405,-4.6259,-4.6965,-4.7458,-4.7856,-4.7933,-4.7939,-4.7714,-4.6759,-4.5717,-4.4765,0.0,0.0,0.0,0.0,0.0,0.0,0.0,0.0,0.0,0.0,0.0,0.0,0.0,0.0,0.0,0.0,0.0,0.0,0.0,0.0,0.0,0.0,0.0,0.0,0.0,0.0,0.0,0.0,0.0,0.0,-3.3803,0.0,0.0,0.0,0.0,0.0,0.0,0.0,0.0,0.0,0.0,0.0,0.0,0.0,0.0,0.0,0.0,0.0,0.0,0.0,0.0,0.0,0.0,-3.5409,-3.708,-3.6985,-3.7535,-3.876,-3.9017,-3.8799,-3.808,-3.763,-3.7105,-3.6447,0.0,0.0,0.0,0.0,0.0,0.0,0.0,0.0,0.0,0.0,0.0,0.0,0.0,0.0,0.0,0.0,0.0,0.0,0.0,0.0,0.0,0.0,0.0,0.0,0.0,0.0,-3.204,-3.204,-3.2228,0.0,0.0,0.0,0.0,0.0,0.0,0.0,0.0,0.0,0.0,-4.306,-4.4316,-4.5718,-4.5543,-4.5644,-4.6426,-4.6334,-4.5921,-4.5269,-4.4541,-4.3554,0.0,0.0,0.0,0.0,0.0,0.0,0.0,0.0,0.0,0.0,0.0,0.0,0.0,0.0,0.0,0.0,0.0,0.0,0.0,0.0,0.0,0.0,0.0,0.0,0.0,0.0,0.0,-3.6258,-3.6228,0.0,0.0,0.0,0.0,0.0,0.0,0.0,0.0,0.0,0.0,0.0,-3.6684,-3.6538,0.0,0.0,0.0,0.0,0.0,0.0,0.0,0.0,0.0,0.0,0.0,0.0,-3.5208,-3.607,-3.638,-3.6988,-3.7967,-3.8429,-3.8274,-3.732,-3.7138,-3.6635,-3.5636,0.0,0.0,0.0,0.0,0.0,0.0,0.0,0.0,0.0,0.0,0.0,0.0,0.0,0.0,0.0,0.0,0.0,0.0,0.0,0.0,0.0,0.0,0.0,0.0,0.0,-3.179,0.0,0.0,0.0,0.0,0.0,0.0,0.0,0.0,0.0,0.0,0.0,-4.0489,-4.1432,-4.2782,-4.4007,-4.4901,-4.5029,-4.5133,0.0,0.0,0.0,0.0,0.0,0.0,0.0,0.0,0.0,0.0,0.0,0.0,0.0,0.0,-4.0081,-3.9796,-3.9863,-4.001,-4.0198,0.0,0.0,0.0,0.0,0.0,0.0,0.0,0.0,0.0,0.0,0.0,0.0,0.0,0.0,-3.8413,0.0,-3.7129,0.0,0.0,0.0,0.0,0.0,0.0,0.0,0.0,-3.7383,-3.7526,-3.737,-3.7137,-3.6777,0.0,-3.5394,-3.4607,0.0,0.0,0.0,0.0,0.0,0.0,0.0,0.0,-3.4438,-3.5076,-3.5346,-3.5863,-3.6641,-3.7243,-3.7216,-3.6522,-3.6465,-3.6021,-3.506,-3.3364,-3.2608,0.0,0.0,0.0,0.0,0.0,0.0,0.0,0.0,0.0,0.0,0.0,0.0,0.0,0.0,0.0,0.0,0.0,0.0,0.0,0.0,0.0,0.0,0.0,-3.1603,0.0,0.0,0.0,0.0,0.0,0.0,0.0,0.0,0.0,-3.6428,-3.878,-4.0715,-4.1443,-4.2879,-4.4042,-4.4526,0.0,0.0,0.0,0.0,0.0,0.0,0.0,-4.3299,-4.3281,-4.2818,-4.2474,-4.2563,-4.2307,-4.2061,-4.2061,0.0,0.0,-4.1224,-4.0984,-4.0956,-4.1164,-4.1169,-4.1114,-4.0934,-4.1026,-4.1094,0.0,0.0,0.0,0.0,0.0,0.0,0.0,0.0,-4.1224,-4.1042,0.0,-3.8953,0.0,0.0,0.0,0.0,0.0,-3.6399,0.0,0.0,-3.8162,-3.8193,-3.8736,-3.849,-3.7745,-3.6549,-3.613,-3.5232,-3.3921,-3.3965,0.0,0.0,0.0,0.0,0.0,0.0,-3.3113,-3.4112,-3.4002,-3.4222,-3.4869,-3.5441,-3.5747,-3.5726,-3.5598,-3.5229,-3.4664,-3.3554,-3.291,-3.2798,-3.1523,0.0,0.0,0.0,0.0,0.0,0.0,0.0,0.0,0.0,0.0,0.0,0.0,0.0,0.0,0.0,0.0,0.0,0.0,0.0,0.0,-3.064,0.0,0.0,0.0,0.0,0.0,0.0,0.0,0.0,0.0,0.0,-3.6055,-3.8766,-4.1021,-4.1893,0.0,0.0,0.0,0.0,-4.4874,-4.4874,-4.5039,-4.48,-4.38,-4.3587,-4.3282,-4.2499,0.0,0.0,-4.3038,-4.3094,-4.3032,-4.3063,-4.3016,-4.2763,-4.172,-4.1065,-4.072,-4.1008,-4.073,-4.0444,-4.0828,-4.1111,-4.1445,-4.4363,0.0,0.0,0.0,0.0,-4.1325,-4.1325,-4.095,-4.1866,-4.1746,-4.0845,-3.9691,0.0,0.0,0.0,0.0,0.0,0.0,-3.8389,-3.8626,-3.9322,-3.9415,-3.8921,-3.8553,-3.8014,-3.7307,-3.6389,-3.5505,-3.4701,-3.4446,-3.368,-3.2416,0.0,0.0,0.0,0.0,-3.2834,-3.311,-3.3262,-3.3504,-3.3817,-3.4455,-3.4627,-3.4464,-3.3988,-3.3837,-3.4011,-3.2875,-3.2309,-3.2562,-3.134,0.0,0.0,0.0,0.0,0.0,0.0,0.0,0.0,0.0,0.0,0.0,0.0,0.0,0.0,0.0,0.0,0.0,0.0,0.0,-2.9827,-3.0247,-3.0909,0.0,0.0,0.0,0.0,0.0,0.0,0.0,0.0,0.0,-3.5691,-3.844,-4.0861,0.0,0.0,-4.3879,-4.4127,-4.4205,-4.4243,-4.4258,-4.4335,0.0,-4.3922,-4.348,-4.3266,-4.348,-4.3281,-4.3094,-4.3205,-4.2967,-4.2731,-4.2731,-4.2731,-4.2628,-4.2328,-4.1922,-4.1727,-4.185,-4.1429,-4.115,-4.1628,-4.18,-4.1904,-4.7227,-4.4926,-4.3998,-4.3259,-4.2753,-4.3377,-4.3299,-4.2748,-4.3752,-4.3523,-4.2389,-4.166,-4.0935,-4.0142,-3.9065,0.0,0.0,0.0,-3.9362,-3.9392,-3.9815,-3.9704,-3.9113,-3.8587,-3.8145,-3.7717,-3.6554,-3.5801,-3.5418,-3.4537,-3.3484,-3.2272,0.0,0.0,-3.2157,-3.2203,-3.2237,-3.2141,-3.2287,-3.2438,-3.255,-3.3074,-3.3297,-3.3183,-3.2919,-3.2917,-3.3206,-3.2162,-3.1744,-3.2033,-3.1217,-3.1139,0.0,0.0,0.0,0.0,0.0,0.0,0.0,0.0,0.0,0.0,0.0,-2.8894,-2.8669,0.0,0.0,0.0,-2.8683,-2.9062,-2.958,-3.0164,0.0,0.0,0.0,0.0,0.0,0.0,0.0,-3.4387,-3.5027,-3.5531,-3.5773,-3.7669,-3.96,-4.1097,-4.2179,-4.3004,-4.3438,0.0,-4.3107,-4.3183,-4.3183,-4.3198,-4.3107,-4.2773,-4.2614,-4.3008,-4.2955,-4.2794,-4.2763,-4.2576,-4.2493,-4.2477,-4.2565,-4.2602,-4.2602,-4.2211,-4.1942,-4.2069,-4.1572,-4.1272,-4.1687,-4.1563,-4.1486,-4.9558,-4.877,-4.6624,-4.5404,-4.4946,-4.5505,-4.5343,-4.4842,-4.6149,-4.5747,-4.4157,-4.424,-4.3245,-4.1519,-4.0868,0.0,-4.0217,-4.0058,-4.0198,-4.067,-3.9816,-3.9385,-3.9247,-3.8517,-3.8063,-3.7808,-3.6658,-3.6083,-3.5953,-3.4424,-3.3406,-3.3001,-3.2984,-3.2607,-3.1917,-3.168,-3.1482,-3.131,-3.1272,-3.1272,-3.1272,-3.1619,-3.1877,-3.2032,-3.22,-3.2318,-3.2272,-3.1454,-3.1121,-3.1278,-3.1013,-3.0968,-3.1257,0.0,0.0,0.0,0.0,0.0,0.0,0.0,0.0,0.0,0.0,0.0,0.0,0.0,0.0,0.0,-2.8828,0.0,-2.9315,-3.0363,0.0,0.0,0.0,-3.3171,-3.3545,-3.3615,-3.3817,-3.4113,0.0,0.0,-3.603,-3.6619,-3.7685,-3.9693,-4.0885,-4.177,-4.2451,-4.2017,-4.1723,-4.1963,-4.1955,-4.1903,-4.1829,-4.1671,-4.1565,-4.1505,-4.1661,-4.1644,-4.165,-4.1705,-4.1912,-4.179,-4.2103,-4.2166,-4.2227,-4.1515,-4.1324,-4.1361,-4.1043,-4.0777,-4.0957,-4.0568,-4.0371,-4.986,-4.9431,-4.8485,-4.7789,-4.725,-4.6944,-4.646,-4.583,-4.5669,-4.5447,-4.5191,-4.441,-4.3511,-4.259,-4.2441,-4.1981,-4.1327,-4.1416,-4.1128,-4.0453,-4.0039,-3.9552,-3.8997,-3.8427,-3.784,-3.7181,-3.6462,-3.5887,-3.5469,-3.462,-3.3732,-3.2804,-3.2777,-3.2404,-3.1686,-3.1458,-3.1347,-3.131,-3.1123,-3.1061,-3.1061,-3.1174,-3.1323,-3.1482,-3.1519,-3.1489,-3.1321,-3.0709,-3.0337,-3.0316,-2.9817,-2.9961,-3.0853,-3.1055,0.0,0.0,0.0,0.0,0.0,0.0,0.0,0.0,0.0,-2.8917,-2.8398,0.0,-2.8399,0.0,-2.8908,-2.9574,-3.0464,-3.0976,0.0,0.0,-3.306,-3.3258,-3.338,-3.402,-3.4309,-3.4005,-3.4759,-3.5222,-3.516,-3.5921,-3.677,-3.7644,-3.9187,-4.044,-4.0939,-4.1198,-4.1247,-4.1293,-4.14,-4.1535,-4.1378,-4.101,-4.0501,-4.0036,-3.9721,-3.9496,-3.9481,-3.9217,-3.9021,-3.9021,-3.9055,-3.9104,-3.9165,-3.8952,-3.8906,-3.8959,-3.9392,-3.9735,-3.9456,-3.9273,-3.9201,-4.9117,-4.9039,-4.823,-4.7686,-4.7238,-4.6893,-4.6246,-4.5398,-4.5219,-4.5155,-4.5055,-4.4503,-4.4063,-4.3696,-4.3599,-4.3228,-4.2658,-4.2315,-4.1638,-4.076,-4.0041,-3.9336,-3.8756,-3.8272,-3.7696,-3.6985,-3.6397,-3.5835,-3.5286,-3.4685,-3.3822,-3.2698,-3.2672,-3.224,-3.1338,-3.1211,-3.1161,-3.1161,-3.1061,-3.1024,-3.1024,-3.1024,-3.1061,-3.1161,-3.1161,-3.1127,-3.1017,-3.0228,-2.9837,-2.9876,-2.9244,-2.9187,-2.9875,-2.9903,-3.0075,0.0,0.0,0.0,0.0,0.0,0.0,0.0,0.0,0.0,0.0,0.0,-2.8482,-2.8773,-2.9585,-3.0307,-3.0934,-3.1558,-3.2304,-3.3185,-3.337,-3.3516,-3.3766,-3.4278,-3.4577,-3.4524,-3.4826,-3.5037,-3.5026,-3.5372,-3.5773,-3.613,-3.7285,-3.8527,-3.9532,-3.9827,-3.9902,-4.0166,-4.0062,-3.986,-3.9679,-3.932,-3.896,-3.8586,-3.8282,-3.8112,-3.8131,-3.7982,-3.7876,-3.7861,-3.7943,-3.7995,-3.7995,-3.7995,-3.7843,-3.7329,-3.7534,-3.8052,-3.8494,-3.808,-3.773,-4.7846,-4.7955,-4.6866,-4.6244,-4.593,-4.5853,-4.5238,-4.4415,-4.4737,-4.4752,-4.4511,-4.4587,-4.4608,-4.4534,-4.4295,-4.4036,-4.3618,-4.2682,-4.1862,-4.1079,-3.9847,-3.9038,-3.8557,-3.805,-3.7482,-3.6881,-3.6292,-3.5717,-3.5182,-3.458,-3.3744,-3.2725,-3.262,-3.2045,-3.1026,-3.1024,-3.1024,-3.1024,-3.1024,-3.1024,-3.1024,-3.1024,-3.1024,-3.1024,-3.1024,-3.0947,-3.0856,-3.0059,-2.9623,-2.9714,-2.9053,-2.8695,-2.8848,-2.878,-2.8849,0.0,-2.9104,0.0,0.0,0.0,0.0,0.0,0.0,0.0,0.0,-2.9042,-2.9017,-2.9375,-3.0424,-3.113,-3.1196,-3.2163,-3.3051,-3.3613,-3.3639,-3.3783,-3.4228,-3.4228,-3.4384,-3.4907,-3.4502,-3.4384,-3.4776,-3.4724,-3.4614,-3.4819,-3.5332,-3.6306,-3.7841,-3.8149,-3.8287,-3.87,-3.8305,-3.7946,-3.7491,-3.7287,-3.7246,-3.7142,-3.6967,-3.7011,-3.6956,-3.7,-3.7116,-3.7086,-3.7113,-3.7273,-3.7412,-3.7352,-3.6973,-3.5864,-3.5714,-3.6142,-3.7142,-3.6715,-3.6321,-4.6423,-4.6013,-4.5343,-4.4629,-4.3945,-4.3696,-4.3944,-4.4449,-4.406,-4.4128,-4.451,-4.4748,-4.4603,-4.4166,-4.4327,-4.3688,-4.2351,-4.2266,-4.1516,-4.0205,-3.9377,-3.8845,-3.853,-3.7616,-3.6867,-3.6266,-3.5704,-3.5142,-3.4554,-3.4005,-3.3391,-3.2698,-3.2228,-3.1615,-3.1013,0.0,0.0,0.0,-3.1024,-3.1024,-3.1024,-3.1024,-3.1024,-3.1024,-3.1024,0.0,-3.0283,-3.0085,-2.9853,-2.9557,-2.9,0.0,0.0,0.0,0.0,0.0,0.0,0.0,0.0,0.0,0.0,0.0,-2.9592,-2.9406,-2.9442,-2.9679,-2.9849,-2.9993,-3.0962,-3.1862,-3.2333,-3.2999,-3.3639,-3.4162,-3.3862,-3.3639,-3.3718,-3.3313,-3.3064,-3.3169,-3.3091,-3.3064,-3.3247,-3.3118,-3.3198,-3.3437,-3.3634,-3.4182,-3.5065,-3.6349,-3.7032,-3.6888,-3.699,-3.6876,-3.6276,-3.6172,-3.6018,-3.5703,-3.5127,-3.4924,-3.5038,-3.4683,-3.4355,-3.44,-3.4341,-3.4433,-3.4433,-3.4358,-3.4433,-3.4011,-3.3997,-3.4134,-3.4683,-3.4623,-3.4516,-4.4788,0.0,-4.3904,-4.3373,0.0,-4.2545,-4.2631,-4.312,-4.3092,-4.3269,-4.3596,-4.3704,-4.3568,-4.3311,-4.3241,-4.282,-4.2078,-4.1484,-4.0852,-4.0244,-3.9249,-3.8666,-3.8589,-3.7511,-3.6698,-3.6096,-3.5561,-3.4986,-3.4397,-3.3849,-3.3287,-3.2685,-3.2084,-3.1523,-3.1013,-3.1261,-3.1405,-3.1405,-3.1405,-3.1405,-3.1405,-3.113,-3.1024,-3.1024,-3.1024,0.0,0.0,0.0,0.0,0.0,0.0,0.0,0.0,-2.8942,0.0,-2.9046,-2.93,-2.9495,-2.9597,-2.9776,-2.9979,-3.0188,-3.023,-3.0115,-2.984,-3.0265,-3.0555,-3.0568,-3.1314,-3.1915,-3.2254,-3.279,-3.326,-3.3509,-3.3313,-3.3143,-3.3117,-3.2881,-3.2816,-3.3051,-3.2868,-3.279,-3.3091,-3.2855,-3.2738,-3.2843,-3.3027,-3.3181,-3.3441,-3.4746,-3.5696,-3.569,-3.6032,-3.604,-3.5505,-3.5112,-3.4909,-3.4593,-3.4063,-3.3741,-3.3868,-3.3646,-3.3422,-3.3499,-3.3499,-3.3499,-3.3499,-3.3499,-3.341,-3.3095,-3.3006,-3.2901,-3.2855,-3.3079,-3.3531,-4.3268,-4.3368,-4.2601,-4.2302,-4.2253,-4.1796,-4.166,-4.1647,0.0,0.0,0.0,-4.2266,-4.2169,-4.2071,-4.1734,-4.1584,-4.1536,-4.0545,-4.0146,-4.0173,-3.9055,-3.8512,-3.8472,-3.7379,-3.6593,-3.6083,-3.5456,-3.4829,-3.4241,-3.3692,-3.313,-3.2542,-3.1928,-3.1509,-3.1196,-3.181,-3.2111,-3.2098,-3.1902,-3.1797,-3.1784,-3.1287,-3.1024,-3.1024,-3.1024,-3.1024,-3.1011,-3.0529,-3.0296,-3.0388,-2.9784,-2.9483,-2.9611,-2.9428,-2.9345,-2.9451,-2.9543,-2.968,-2.9843,-2.9971,-3.0166,-3.0497,-3.0823,-3.079,-3.0283,-3.0712,-3.1024,-3.1024,-3.1458,-3.1797,-3.181,-3.2359,-3.2672,-3.2672,-3.2594,-3.2529,-3.2529,-3.2424,-3.2515,-3.2986,-3.262,-3.2568,-3.2934,-3.262,-3.2398,-3.2424,-3.2436,-3.2539,-3.2461,-3.338,-3.4334,-3.4675,-3.4851,-3.4879,-3.4599,-3.4112,-3.378,-3.3768,-3.324,-3.2889,-3.3013,-3.297,-3.2957,-3.2975,-3.311,-3.3065,-3.3125,-3.3066,-3.2961,-3.2407,-3.2303,-3.2153,-3.1705,-3.2031,-3.2674,-4.224,-4.1964,-4.1587,-4.1461,-4.1461,-4.1374,-4.1361,-4.1372,-4.1364,-4.1334,-4.1197,-4.095,-4.0522,-4.0024,-4.0336,-4.0056,-3.9384,-3.9529,-3.9339,-3.8871,-3.8448,-3.8258,-3.8192,-3.687,-3.6188,-3.6018,-3.5038,-3.4241,-3.3692,-3.3117,-3.2529,-3.1928,-3.1392,-3.1326,-3.1732,-3.2803,-3.3352,-3.3326,-3.2306,-3.1797,-3.1797,-3.1274,-3.1024,-3.1024,-3.1024,-3.1024,-3.1024,-3.0908,-3.1091,-3.151,-3.0544,-3.0241,-3.0686,-2.9836,-2.931,-2.9336,-2.9781,-3.0056,-3.0056,-3.0551,-3.0852,-3.0893,-3.0985,-3.0947,-3.0882,-3.0947,-3.1024,-3.1037,-3.1496,-3.1797,-3.1836,-3.2319,-3.2607,-3.2607,-3.2241,-3.1928,-3.1915,-3.1561,-3.1352,-3.1457,-3.1287,-3.1287,-3.1457,-3.1392,-3.1392,-3.1325,-3.1572,-3.1412,-3.1662,-3.2171,-3.2889,-3.334,-3.3208,-3.3168,-3.3475,-3.3046,-3.2931,-3.2945,-3.2432,-3.2055,-3.2149,-3.184,-3.1619,-3.1649,-3.1723,-3.1767,-3.1855,-3.1795,-3.1824,-3.172,-3.172,-3.163,-3.1511,-3.1644,-3.1793,-4.1596,-4.1461,-4.1361,-4.1311,-4.1311,-4.1311,-4.1311,-4.1219,-4.0614,-4.0362,-4.0321,-3.9728,-3.9312,-3.9038,-3.9127,-3.8965,-3.8724,-3.8764,-3.8705,-3.857,-3.8304,-3.82,-3.8049,-3.6791,-3.6109,-3.6031,-3.4946,-3.4123,-3.3574,-3.2973,-3.2411,-3.181,-3.1536,-3.1888,-3.2777,-3.3326,-3.3744,-3.3979,-3.2894,-3.2293,-3.2293,-3.1444,-3.1024,-3.1024,-3.1024,-3.1024,-3.1024,-3.1287,-3.1536,-3.1797,-3.1615,-3.164,-3.1875,-3.113,-3.0673,-3.066,-3.062,-3.0594,-3.0594,-3.113,-3.1457,-3.1457,-3.1731,-3.1914,-3.1901,-3.1352,-3.1024,-3.0986,-3.1235,-3.1378,-3.1378,-3.1614,-3.1771,-3.1771,-3.1522,-3.1378,-3.1352,-3.1169,-3.1024,-3.1024,-3.1024,-3.1024,-3.1024,-3.1248,-3.1444,-3.1444,-3.1444,-3.1469,-3.1519,-3.1607,-3.1923,-3.2668,-3.3108,-3.3408,-3.3473,-3.3262,-3.2962,-3.2727,-3.2007,-3.1515,-3.1332,-3.0967,-3.0925,-3.0999,-3.1117,-3.1234,-3.1366,-3.1409,-3.1409,-3.1496,-3.1496,-3.1496,-3.1496,-3.1496,-3.1496,-4.1378,-4.1311,-4.1311,-4.1311,-4.1311,-4.1311,-4.1311,-4.1193,-4.0109,-3.9695,-3.9688,-3.8833,-3.8434,-3.8434,-3.8226,-3.8239,-3.8376,-3.8226,-3.8272,-3.8421,-3.8226,-3.8122,-3.8003,-3.6734,-3.6109,-3.5979,-3.4946,-3.4123,-3.3574,-3.2986,-3.2411,-3.1902,-3.2058,-3.2659,-3.3561,-3.3718,-3.3927,-3.4123,-3.3208,-3.2672,-3.2646,-3.1575,-3.1024,-3.0986,-3.113,-3.1169,-3.1209,-3.1718,-3.2045,-3.2202,-3.2529,-3.2751,-3.2842,-3.2189,-3.1797,-3.1745,-3.13,-3.1024,-3.1013,-3.1392,-3.1615,-3.1628,-3.2176,-3.2489,-3.2437,-3.1823,-3.13,-3.1196,-3.1091,-3.1013,-3.105,-3.1013,-3.1024,-3.1024,-3.1024,-3.1013,-3.0999,-3.1024,-3.1024,-3.1024,-3.1024,-3.1024,-3.1065,-3.1365,-3.1536,-3.1536,-3.1615,-3.1602,-3.1601,-3.1326,-3.1532,-3.2063,-3.2922,-3.3395,-3.3496,-3.3269,-3.2912,-3.2365,-3.17,-3.1106,-3.0677,-3.0446,-3.0462,-3.0612,-3.0791,-3.094,-3.1117,-3.1234,-3.1307,-3.1366,-3.1395,-3.138,-3.1438,-3.1438,-3.1467,-4.1515,-4.1287,-4.1311,-4.1311,-4.1311,-4.1311,-4.1311,-4.1167,-4.0109,-3.9612,-3.9542,-3.8443,-3.8005,-3.7946,-3.7946,-3.7946,-3.7992,-3.7946,-3.7946,-3.7992,-3.7946,-3.7946,-3.7815,-3.6658,-3.6109,-3.5953,-3.4933,-3.4123,-3.3574,-3.2986,-3.2398,-3.1993,-3.2894,-3.3403,-3.3652,-3.4084,-3.411,-3.3666,-3.3025,-3.2672,-3.262,-3.1575,-3.1024,-3.1024,-3.1458,-3.1732,-3.1732,-3.2306,-3.2868,-3.3326,-3.296,-3.296,-3.3326,-3.245,-3.1797,-3.1797,-3.13,-3.1024,-3.0986,-3.1026,-3.1117,-3.1104,-3.1666,-3.1967,-3.198,-3.2319,-3.2293,-3.1823,-3.1287,-3.1039,-3.1024,-3.1024,-3.1024,-3.1024,-3.1024,-3.1024,-3.1024,-3.1024,-3.1024,-3.1024,-3.1024,-3.1024,-3.0999,-3.1117,-3.1156,-3.1248,-3.1287,-3.1274,-3.1274,-3.1431,-3.1559,-3.1511,-3.1708,-3.2117,-3.2565,-3.2497,-3.2328,-3.1792,-3.1332,-3.0831,-3.0323,-2.9898,-2.9775,-3.0052,-3.0237,-3.0433,-3.0747,-3.0969,-3.1073,-3.1102,-3.1132,-3.119,-3.1263,-3.1322,-3.1351,-4.1567,-4.1324,-4.1311,-4.1311,-4.1311,-4.1311,-4.1311,-4.1232,-4.0448,-3.9926,-3.952,-3.8736,-3.82,-3.79,-3.79,-3.79,-3.79,-3.79,-3.79,-3.79,-3.7749,-3.7475,-3.7072,-3.6185,-3.5572,-3.5358,-3.4578,-3.404,-3.3533,-3.2879,-3.2499,-3.2454,-3.2823,-3.3129,-3.3476,-3.3707,-3.3749,-3.3643,-3.3211,-3.3006,-3.2877,-3.2006,-3.1458,-3.1548,-3.2045,-3.2346,-3.2411,-3.2908,-3.3339,-3.3587,-3.3652,-3.3809,-3.4045,-3.2973,-3.2346,-3.2293,-3.147,-3.1024,-3.1024,-3.13,-3.1496,-3.1458,-3.2346,-3.2881,-3.2881,-3.3091,-3.2986,-3.2398,-3.1784,-3.1365,-3.1052,-3.1024,-3.1024,-3.1024,-3.1024,-3.1024,-3.1024,-3.1024,-3.1024,-3.1024,-3.1024,-3.1024,-3.1039,-3.1287,-3.1432,-3.1496,-3.1445,-3.1431,-3.1445,-3.1418,-3.1454,-3.1695,-3.168,-3.1888,-3.25,-3.2907,-3.2587,-3.1994,-3.1504,-3.1009,-2.9918,-2.9477,-2.9383,-2.9495,-2.9637,-2.9901,-3.0312,-3.0433,-3.0538,-3.0657,-3.0881,-3.0955,-3.0999,-3.1087,-3.119,-4.171,-4.1313,-4.1311,-4.1311,-4.1311,-4.1311,-4.1311,-4.1232,-4.0671,-4.0187,-3.9769,-3.905,-3.8488,-3.8148,-3.7978,-3.79,-3.79,-3.7808,-3.7808,-3.7749,-3.7505,-3.7103,-3.6535,-3.5788,-3.5179,-3.4788,-3.436,-3.3874,-3.3504,-3.3109,-3.2838,-3.274,-3.2659,-3.2798,-3.3079,-3.3172,-3.3224,-3.3246,-3.3072,-3.298,-3.2802,-3.2341,-3.2084,-3.2111,-3.2633,-3.2947,-3.296,-3.3496,-3.3768,-3.374,-3.4105,-3.4259,-3.4191,-3.3164,-3.2436,-3.2137,-3.1419,-3.1024,-3.1024,-3.1378,-3.1575,-3.1654,-3.2685,-3.3339,-3.3404,-3.3639,-3.3456,-3.2751,-3.2319,-3.1797,-3.1091,-3.1024,-3.1024,-3.1024,-3.1024,-3.1024,-3.1024,-3.1024,-3.1024,-3.1024,-3.1024,-3.1024,-3.1039,-3.1313,-3.1484,-3.1497,-3.1523,-3.1575,-3.1536,-3.1261,-3.1194,-3.17,-3.1609,-3.1863,-3.2489,-3.2918,-3.2867,-3.2325,-3.165,-3.0778,-2.9582,-2.9196,-2.8876,-2.8912,-2.8994,-2.9216,-2.956,-2.9716,-2.9927,-3.0174,-3.0369,-3.0519,-3.0568,-3.0746,-3.0968,-4.2086,-4.1376,-4.1324,-4.1311,-4.1311,-4.1311,-4.1311,-4.1285,-4.0697,-4.0409,-4.02,-3.9259,-3.871,-3.8606,-3.8161,-3.7913,-3.7854,-3.7657,-3.7518,-3.7492,-3.7261,-3.686,-3.6308,-3.5712,-3.5091,-3.455,-3.4207,-3.3762,-3.3284,-3.3726,-3.3392,-3.2332,-3.2674,-3.271,-3.2444,-3.2568,-3.2578,-3.2403,-3.2499,-3.2428,-3.2237,-3.2611,-3.2791,-3.2736,-3.3234,-3.3548,-3.36,-3.4071,-3.4275,-3.4066,-3.4105,-3.4021,-3.3678,-3.2757,-3.1795,-3.1008,-3.0939,-3.1024,-3.1024,-3.1052,-3.1078,-3.1182,-3.2163,-3.2751,-3.2881,-3.3731,-3.3783,-3.279,-3.262,-3.215,-3.1207,-3.1024,-3.1024,-3.1024,-3.1024,-3.1024,-3.1024,-3.1024,-3.1024,-3.1024,-3.1024,-3.1024,-3.1024,-3.0999,-3.1078,-3.1091,-3.1065,-3.1078,-3.1104,-3.1026,-3.1076,-3.114,-3.1288,-3.1556,-3.2237,-3.2574,-3.2569,-3.211,-3.1314,-3.0499,-2.9697,-2.8982,-2.8595,-2.8346,-2.8509,-2.8656,-2.8835,-2.9022,-2.9313,-2.9526,-2.9719,-2.9845,-3.037,-3.0211,-3.0522,-4.2459,-4.1796,-4.1782,-4.1782,-4.1796,-4.166,-4.1547,-4.1521,-4.1138,-4.0762,-4.0396,-3.9965,-3.9403,-3.871,-3.8514,-3.8134,-3.767,-3.7564,-3.7413,-3.7261,-3.6968,-3.6391,-3.5563,-3.5117,-3.4534,-3.3908,-3.3713,-3.3636,-3.3553,-3.3762,-3.3424,-3.2646,-3.2414,-3.2196,-3.1957,-3.1825,-3.1848,-3.2068,-3.2443,-3.2654,-3.2731,-3.3161,-3.3399,-3.3356,-3.3524,-3.3695,-3.3682,-3.3833,-3.3937,-3.3852,-3.3852,-3.381,-3.361,-3.281,-3.1978,-3.1319,-3.1082,-3.1024,-3.1024,-3.1024,-3.1024,-3.1065,-3.2032,-3.2685,-3.2868,-3.3666,-3.3914,-3.2973,-3.2685,-3.2176,-3.13,-3.1024,-3.1024,-3.1024,-3.1024,-3.1024,-3.1024,-3.1024,-3.1024,-3.1024,-3.1024,-3.1024,-3.1024,-3.1024,-3.1024,-3.1024,-3.1024,-3.1024,-3.1024,-3.1024,-3.1024,-3.1024,-3.1061,-3.1235,-3.1593,-3.1973,-3.2037,-3.1654,-3.1073,-3.0309,-2.949,-2.8999,-2.8658,-2.8193,-2.8211,-2.8343,-2.8546,-2.9034,-2.9198,-2.9386,-2.9534,-2.9797,-3.0335,-3.0294,-3.067,-4.251,-4.2257,-4.2239,-4.2239,-4.2177,-4.1845,-4.1696,-4.1647,-4.1411,-4.1089,-4.0723,-4.0501,-3.9886,-3.9063,-3.8802,-3.827,-3.7544,-3.7505,-3.7413,-3.7214,-3.6956,-3.6332,-3.5582,-3.5216,-3.4691,-3.4045,-3.3741,-3.3738,-3.3926,-3.373,-3.33,-3.2711,-3.222,-3.1825,-3.1472,-3.135,-3.1472,-3.1825,-3.232,-3.2723,-3.2982,-3.3313,-3.3471,-3.3386,-3.3386,-3.3513,-3.367,-3.3641,-3.3556,-3.3513,-3.3428,-3.3297,-3.3098,-3.2462,-3.1896,-3.1448,-3.1085,-3.0949,-3.0986,-3.1024,-3.1065,-3.1274,-3.2046,-3.2671,-3.2866,-3.3684,-3.3552,-3.2825,-3.2566,-3.215,-3.125,-3.0949,-3.1024,-3.1024,-3.1024,-3.1024,-3.1024,-3.1024,-3.1024,-3.1024,-3.1024,-3.1024,-3.1024,-3.1024,-3.1024,-3.1024,-3.1024,-3.1024,-3.1024,-3.1024,-3.1024,-3.1024,-3.1024,-3.1061,-3.1235,-3.1495,-3.1767,-3.146,-3.1016,-3.0228,-2.9674,-2.9196,-2.8697,-2.821,-2.8019,-2.8119,-2.8439,-2.8966,-2.9248,-2.945,-2.9578,-2.9814,-3.0181,-3.0446,-3.0821,-4.2266,-4.2511,-4.2511,-4.2498,-4.2449,-4.1944,-4.1696,-4.1647,-4.1411,-4.1272,-4.1128,-4.0684,-4.0082,-3.9534,-3.8958,-3.8257,-3.7629,-3.7551,-3.7505,-3.7413,-3.7155,-3.6801,-3.6179,-3.5933,-3.5517,-3.4933,-3.4476,-3.431,-3.4408,-3.3844,-3.3303,-3.2723,-3.2356,-3.1878,-3.1029,-3.1335,-3.1413,-3.1672,-3.2196,-3.2617,-3.2723,-3.3057,-3.3075,-3.281,-3.2754,-3.3043,-3.3586,-3.3428,-3.3227,-3.3056,-3.284,-3.245,-3.2095,-3.1689,-3.1372,-3.1198,-3.0894,-3.0825,-3.0949,-3.1026,-3.1275,-3.1654,-3.2201,-3.2665,-3.309,-3.3521,-3.3332,-3.254,-3.2313,-3.194,-3.106,-3.09,-3.0986,-3.1024,-3.1024,-3.1024,-3.1024,-3.1024,-3.1024,-3.1024,-3.1024,-3.1024,-3.1024,-3.1024,-3.1024,-3.1024,-3.1024,-3.1024,-3.1024,-3.1024,-3.1024,-3.1024,-3.1024,-3.1024,-3.1024,-3.1061,-3.1286,-3.1378,-3.0894,-3.0336,-3.0072,-2.9639,-2.9145,-2.8699,-2.8502,-2.8591,-2.8649,-2.913,-2.9425,-2.9641,-2.9733,-2.9923,-3.0294,-3.064,-3.0856,-4.2484,-4.297,-4.2852,-4.279,-4.2693,-4.219,-4.1881,-4.171,-4.1411,-4.1311,-4.1206,-4.0684,-4.0122,-3.956,-3.8985,-3.8376,-3.7821,-3.7762,-3.7611,-3.7261,-3.7155,-3.6814,-3.6411,-3.623,-3.58,-3.5206,-3.492,-3.4572,-3.4255,-3.4158,-3.3718,-3.2891,-3.2964,-3.2682,-3.2046,-3.2265,-3.2422,-3.2468,-3.2959,-3.3175,-3.3111,-3.3427,-3.3339,-3.276,-3.2667,-3.2655,-3.2556,-3.2624,-3.2581,-3.2339,-3.2251,-3.2091,-3.1784,-3.1601,-3.1352,-3.112,-3.1056,-3.0958,-3.0864,-3.1124,-3.1409,-3.172,-3.2299,-3.2744,-3.3014,-3.3418,-3.335,-3.2672,-3.2397,-3.1898,-3.1371,-3.0943,-3.0875,-3.0986,-3.1024,-3.0973,-3.0986,-3.0986,-3.1024,-3.1024,-3.1024,-3.1024,-3.0986,-3.0986,-3.0986,-3.0986,-3.0986,-3.0986,-3.0986,-3.0986,-3.1024,-3.1024,-3.1024,-3.0949,-3.0898,-3.0861,-3.0986,-3.1174,-3.0887,-3.0624,-3.0364,-3.0144,-2.965,-2.9248,-2.91,-2.9026,-2.9118,-2.9366,-2.9768,-3.003,-3.0283,-3.0487,-3.0655,-3.0814,-3.1006,-4.2422,-4.3067,-4.2838,-4.2803,-4.279,-4.2141,-4.1746,-4.1647,-4.1311,-4.1211,-4.1143,-4.0684,-4.0122,-3.9573,-3.8985,-3.8423,-3.7939,-3.79,-3.7716,-3.7459,-3.7413,-3.7193,-3.6896,-3.6675,-3.6292,-3.572,-3.54,-3.5045,-3.4647,-3.4597,-3.4287,-3.3778,-3.3781,-3.3572,-3.312,-3.3182,-3.3282,-3.3282,-3.3628,-3.3826,-3.3748,-3.3886,-3.3669,-3.2989,-3.2702,-3.2284,-3.1673,-3.1705,-3.1705,-3.1548,-3.1359,-3.1181,-3.1125,-3.0914,-3.0804,-3.0782,-3.0698,-3.0594,-3.0433,-3.0881,-3.1381,-3.1624,-3.2299,-3.2842,-3.3046,-3.3416,-3.3216,-3.2708,-3.2406,-3.1992,-3.1381,-3.1177,-3.0982,-3.0887,-3.0949,-3.0936,-3.0911,-3.0874,-3.0836,-3.0798,-3.0761,-3.0785,-3.0785,-3.0748,-3.0785,-3.0798,-3.0798,-3.0836,-3.0836,-3.0798,-3.0836,-3.0836,-3.0761,-3.0761,-3.0748,-3.0748,-3.0748,-3.0823,-3.0859,-3.0764,-3.0631,-3.0579,-3.0255,-2.9849,-2.9588,-2.9588,-2.968,-3.0098,-3.0464,-3.0673,-3.0725,-3.0813,-3.0874,-3.0939,-3.1111,-4.2141,-4.279,-4.2547,-4.2595,-4.2679,-4.1759,-4.1448,-4.1547,-4.1134,-4.1047,-4.108,-4.0543,-4.0056,-3.9547,-3.8906,-3.8318,-3.7978,-3.79,-3.79,-3.7854,-3.7854,-3.7743,-3.7612,-3.7204,-3.6815,-3.6472,-3.5839,-3.56,-3.5432,-3.5009,-3.4808,-3.4715,-3.4462,-3.4276,-3.4001,-3.4047,-3.3952,-3.3873,-3.4241,-3.4458,-3.4392,-3.4413,-3.3954,-3.3154,-3.2653,-3.1974,-3.1019,-3.0623,-3.0578,-3.0713,-3.0193,-2.9954,-3.0033,-2.9823,-2.9953,-3.017,-2.9987,-2.9952,-2.9975,-3.0538,-3.1162,-3.1655,-3.2237,-3.2731,-3.3174,-3.3177,-3.2978,-3.2512,-3.2394,-3.2101,-3.1411,-3.1175,-3.11,-3.0763,-3.0798,-3.0836,-3.0736,-3.0698,-3.0647,-3.0482,-3.0406,-3.0406,-3.0482,-3.0444,-3.0444,-3.0444,-3.0482,-3.0558,-3.0609,-3.0609,-3.0533,-3.0533,-3.0571,-3.0571,-3.0596,-3.0596,-3.0596,-3.0621,-3.071,-3.0696,-3.0693,-3.0667,-3.0641,-3.0251,-3.0027,-3.0077,-3.0207,-3.0509,-3.0704,-3.0794,-3.0846,-3.0973,-3.1024,-3.1061,-3.1024,-4.1584,-4.2275,-4.1993,-4.2043,-4.219,-4.156,-4.1198,-4.1084,-4.0984,-4.0933,-4.0839,-4.0142,-3.9769,-3.9507,-3.8579,-3.8031,-3.7926,-3.79,-3.79,-3.79,-3.79,-3.7762,-3.7611,-3.7261,-3.6862,-3.6461,-3.5993,-3.5581,-3.5115,-3.5034,-3.4773,-3.4309,-3.4764,-3.4681,-3.4379,-3.4649,-3.4725,-3.4606,-3.5023,-3.5051,-3.4789,-3.4833,-3.4246,-3.2979,-3.2478,-3.1547,-3.0262,-2.9416,-2.9301,-2.9795,-2.9325,-2.9002,-2.913,-2.9363,-2.9454,-2.9392,-2.9626,-2.9851,-3.0102,-3.0503,-3.1055,-3.1743,-3.2297,-3.2721,-3.2859,-3.3025,-3.3006,-3.278,-3.2546,-3.2252,-3.1959,-3.1316,-3.0657,-3.0164,-3.0419,-3.0647,-3.0495,-3.0482,-3.0432,-3.0394,-3.0368,-3.0368,-3.0368,-3.0368,-3.0368,-3.0368,-3.0368,-3.0406,-3.0419,-3.0419,-3.0343,-3.0406,-3.0444,-3.0406,-3.0406,-3.0406,-3.0406,-3.0432,-3.0482,-3.0482,-3.0482,-3.0507,-3.0456,-3.0314,-3.0235,-3.0246,-3.035,-3.057,-3.0685,-3.0761,-3.0836,-3.0911,-3.0949,-3.0986,-3.0874,-4.1255,-4.1746,-4.1484,-4.1597,-4.1845,-4.1348,-4.1034,-4.0883,-4.0795,-4.0795,-4.0637,-3.9852,-3.9503,-3.9481,-3.8423,-3.7913,-3.79,-3.79,-3.79,-3.79,-3.7762,-3.7657,-3.7446,-3.7108,-3.6722,-3.6358,-3.5895,-3.5496,-3.5203,-3.5129,-3.4944,-3.4868,-3.5075,-3.5081,-3.4773,-3.4993,-3.5126,-3.5017,-3.5271,-3.5293,-3.5178,-3.5059,-3.437,-3.3248,-3.2464,-3.1318,-2.9722,-2.8802,-2.8563,-2.8718,-2.8456,-2.8222,-2.8269,-2.8642,-2.8736,-2.8578,-2.8973,-2.9374,-2.9553,-3.0127,-3.0786,-3.1339,-3.2099,-3.2618,-3.2754,-3.2939,-3.3124,-3.3061,-3.2784,-3.2503,-3.206,-3.1142,-3.0376,-3.0065,-3.0086,-3.0164,-3.0113,-3.0216,-3.0216,-3.0177,-3.0152,-3.0152,-3.0152,-3.0152,-3.0152,-3.0152,-3.0113,-3.019,-3.0228,-3.019,-3.019,-3.0216,-3.019,-3.0152,-3.0113,-3.0113,-3.0152,-3.0177,-3.0216,-3.0228,-3.0292,-3.033,-3.0355,-3.0343,-3.0355,-3.0406,-3.0419,-3.0457,-3.0533,-3.0596,-3.071,-3.0761,-3.0761,-3.0836,-3.0723,-4.1004,-4.1211,-4.0946,-4.1147,-4.1547,-4.1134,-4.0946,-4.0833,-4.0694,-4.0694,-4.0637,-3.9741,-3.942,-3.9534,-3.8436,-3.79,-3.79,-3.79,-3.79,-3.7808,-3.7657,-3.7446,-3.7214,-3.6769,-3.6345,-3.5978,-3.5368,-3.515,-3.5029,-3.5017,-3.5199,-3.5173,-3.533,-3.5295,-3.4896,-3.4969,-3.503,-3.4823,-3.4872,-3.5054,-3.5029,-3.4812,-3.4198,-3.3327,-3.2073,-3.0838,-2.9451,-2.8629,-2.8336,-2.8084,-2.7741,-2.7631,-2.7631,-2.7857,-2.7957,-2.8017,-2.8342,-2.8533,-2.8628,-2.9593,-3.0371,-3.0711,-3.177,-3.2581,-3.2581,-3.281,-3.2982,-3.2952,-3.3025,-3.2584,-3.1764,-3.0807,-3.0167,-2.9816,-2.949,-2.9489,-2.9624,-2.9844,-2.996,-2.983,-2.9792,-2.9792,-2.9779,-2.9779,-2.9779,-2.9831,-2.9793,-2.9793,-2.9831,-2.9831,-2.987,-2.9947,-2.9882,-2.9818,-2.9818,-2.9818,-2.9856,-2.9895,-2.9934,-2.9972,-3.0152,-3.0228,-3.0254,-3.0292,-3.019,-3.019,-3.0216,-3.0292,-3.033,-3.0406,-3.0482,-3.0444,-3.0444,-3.052,-3.0533,-4.0603,-4.0656,-4.0593,-4.0909,-4.1311,-4.1047,-4.0883,-4.0883,-4.0833,-4.0833,-4.0687,-3.9901,-3.9568,-3.956,-3.8553,-3.79,-3.7952,-3.7926,-3.79,-3.7854,-3.7598,-3.7108,-3.6675,-3.6238,-3.5679,-3.5005,-3.4482,-3.4188,-3.4139,-3.4335,-3.4433,-3.4677,-3.492,-3.4726,-3.4384,-3.4335,-3.404,-3.3793,-3.404,-3.4237,-3.4286,-3.4176,-3.3744,-3.2876,-3.1341,-3.0024,-2.9211,-2.8731,-2.852,-2.833,-2.7841,-2.7508,-2.7546,-2.7647,-2.7741,-2.7817,-2.7877,-2.8089,-2.8572,-2.9004,-2.9463,-3.0256,-3.1098,-3.1705,-3.1969,-3.245,-3.268,-3.2636,-3.2667,-3.2259,-3.1332,-3.0742,-2.9953,-2.9184,-2.8851,-2.8753,-2.871,-2.9194,-2.952,-2.9585,-2.9713,-2.9804,-2.9829,-2.9816,-2.9713,-2.9573,-2.947,-2.9431,-2.9431,-2.947,-2.9548,-2.9638,-2.965,-2.9624,-2.9624,-2.9624,-2.9663,-2.965,-2.9689,-2.9779,-2.9972,-3.0049,-3.0037,-2.9998,-2.9908,-2.9972,-3.0037,-3.0113,-3.0152,-3.0228,-3.0267,-3.0267,-3.0305,-3.033,-3.0305,-4.0447,-4.0313,-4.0453,-4.0744,-4.1047,-4.111,-4.0997,-4.0883,-4.0883,-4.0883,-4.0765,-4.0112,-3.9858,-3.9926,-3.9115,-3.8593,-3.8253,-3.8004,-3.79,-3.7795,-3.7505,-3.6968,-3.625,-3.5559,-3.4848,-3.4188,-3.3854,-3.3607,-3.3656,-3.3915,-3.431,-3.458,-3.4726,-3.4628,-3.4188,-3.3941,-3.3534,-3.3135,-3.3135,-3.3235,-3.3224,-3.3124,-3.2705,-3.1973,-3.0712,-2.9785,-2.9172,-2.9039,-2.8814,-2.8556,-2.8162,-2.799,-2.8015,-2.7986,-2.8063,-2.8253,-2.8229,-2.8335,-2.8674,-2.9101,-2.9455,-2.984,-3.0634,-3.1128,-3.1572,-3.2045,-3.2363,-3.2376,-3.2307,-3.1955,-3.1001,-3.0144,-2.9375,-2.8945,-2.851,-2.8395,-2.8432,-2.8963,-2.9539,-2.968,-3.0022,-3.0186,-3.0214,-2.9978,-2.9826,-2.969,-2.9298,-2.9234,-2.9236,-2.9248,-2.9275,-2.9326,-2.9417,-2.9417,-2.9429,-2.9417,-2.9456,-2.9482,-2.956,-2.965,-2.9818,-2.9818,-2.9818,-2.983,-2.983,-2.983,-2.9895,-2.9934,-2.9972,-2.9972,-3.0049,-3.0075,-3.0113,-3.0075,-3.0049,-4.0331,-4.0134,-4.0402,-4.0643,-4.0933,-4.1161,-4.1161,-4.0997,-4.0933,-4.0997,-4.083,-4.035,-4.0148,-4.0217,-3.9782,-3.9246,-3.8684,-3.8148,-3.79,-3.7854,-3.7353,-3.6828,-3.6133,-3.5199,-3.4452,-3.396,-3.3531,-3.343,-3.3619,-3.396,-3.4391,-3.4725,-3.4775,-3.4628,-3.4323,-3.3782,-3.3235,-3.2723,-3.2471,-3.2319,-3.2269,-3.2026,-3.1586,-3.0938,-3.0586,-3.0056,-2.9569,-2.9394,-2.9259,-2.8856,-2.8825,-2.8975,-2.904,-2.8761,-2.872,-2.9219,-2.9168,-2.9247,-2.9352,-2.966,-2.9927,-2.9663,-3.0274,-3.0819,-3.1135,-3.1487,-3.1737,-3.1781,-3.1625,-3.1258,-3.0666,-2.9793,-2.9105,-2.8723,-2.8408,-2.8206,-2.8298,-2.8871,-2.9332,-2.9776,-3.0004,-3.022,-3.0233,-3.0086,-2.9947,-2.9736,-2.9309,-2.9004,-2.8965,-2.8919,-2.8812,-2.8895,-2.8934,-2.9206,-2.9294,-2.9435,-2.9426,-2.9551,-2.9584,-2.9655,-2.9747,-2.9688,-2.9688,-2.9792,-2.9779,-2.9779,-2.9779,-2.9818,-2.9856,-2.9779,-2.9818,-2.9934,-2.9895,-2.9779,-2.983,-4.0331,-4.0134,-4.0402,-4.0643,-4.0946,-4.1211,-4.1261,-4.1211,-4.1211,-4.1211,-4.1132,-4.0598,-4.0376,-4.0318,-3.986,-3.9285,-3.8723,-3.8174,-3.79,-3.7808,-3.7366,-3.6794,-3.6163,-3.5257,-3.4527,-3.3968,-3.3618,-3.3589,-3.3725,-3.4058,-3.4722,-3.4809,-3.4871,-3.4737,-3.4394,-3.3645,-3.2935,-3.2269,-3.1924,-3.1669,-3.1424,-3.1322,-3.1064,-3.0495,-3.0391,-3.0172,-2.9943,-2.987,-2.9839,-2.9766,-2.9756,-2.9995,-3.0093,-2.9642,-2.9627,-3.0035,-3.0252,-3.0289,-3.0348,-3.0378,-3.0349,-3.0208,-3.0289,-3.0336,-3.0501,-3.0742,-3.0929,-3.0656,-3.0419,-3.0045,-2.9749,-2.91,-2.8545,-2.8111,-2.7891,-2.7718,-2.7656,-2.8198,-2.8889,-2.9328,-2.9754,-3.0128,-3.0049,-2.9886,-2.9623,-2.9337,-2.8941,-2.8539,-2.8357,-2.8274,-2.812,-2.825,-2.8379,-2.8759,-2.9128,-2.9346,-2.95,-2.9772,-2.9833,-2.9763,-2.9788,-2.9564,-2.9569,-2.9897,-2.9889,-2.9779,-2.9779,-2.9792,-2.9779,-2.9779,-2.9779,-2.9779,-2.9779,-2.9779,-2.9779,-4.0039,-3.9929,-4.0198,-4.0389,-4.0529,-4.0946,-4.111,-4.111,-4.1211,-4.1311,-4.1232,-4.1023,-4.088,-4.0723,-4.0278,-3.9573,-3.8749,-3.8148,-3.7926,-3.7808,-3.7366,-3.7066,-3.6626,-3.5695,-3.5461,-3.5257,-3.4941,-3.4457,-3.4366,-3.5102,-3.5494,-3.5715,-3.561,-3.5342,-3.4902,-3.3922,-3.2891,-3.2088,-3.1487,-3.1023,-3.062,-3.0609,-3.0401,-3.0297,-3.0193,-3.0141,-3.0047,-2.9994,-2.9994,-2.9984,-2.9984,-3.0203,-3.0369,-3.0525,-3.0561,-3.1074,-3.124,-3.1287,-3.1216,-3.1097,-3.0775,-3.0263,-3.0211,-3.0054,-2.9927,-3.0083,-3.0079,-2.9725,-2.9382,-2.9141,-2.8932,-2.8466,-2.8021,-2.7742,-2.76,-2.7519,-2.7561,-2.8058,-2.844,-2.8858,-2.9293,-2.9616,-2.9681,-2.9489,-2.9259,-2.8896,-2.8523,-2.8202,-2.7874,-2.7762,-2.7694,-2.7865,-2.8032,-2.8289,-2.8736,-2.8986,-2.9349,-2.9689,-2.9846,-2.9827,-2.9905,-2.9724,-2.9954,-3.0288,-3.0164,-2.9874,-2.9804,-2.9804,-2.9792,-2.9792,-2.9779,-2.9779,-2.9779,-2.9779,-2.9779,-3.9697,-3.9749,-3.9981,-4.0083,-4.0185,-4.0681,-4.0883,-4.0933,-4.1211,-4.1311,-4.1311,-4.1298,-4.1285,-4.1102,-4.0501,-3.9664,-3.8697,-3.8161,-3.7926,-3.7808,-3.7472,-3.7356,-3.7253,-3.6727,-3.618,-3.6617,-3.6403,-3.5911,-3.5555,-3.6042,-3.6609,-3.6633,-3.6405,-3.6184,-3.5801,-3.4512,-3.3253,-3.2181,-3.137,-3.0684,-3.0172,-2.9994,-2.9994,-2.9994,-2.9994,-2.9984,-2.9994,-2.9994,-2.9994,-2.9994,-3.0047,-3.0151,-3.0391,-3.0858,-3.1393,-3.1872,-3.2028,-3.2073,-3.1954,-3.182,-3.1363,-3.0597,-3.034,-2.9954,-2.9471,-2.9343,-2.9261,-2.8973,-2.8642,-2.8456,-2.8243,-2.782,-2.7573,-2.7515,-2.7494,-2.7552,-2.7584,-2.7782,-2.7949,-2.8383,-2.885,-2.9096,-2.9181,-2.9206,-2.8959,-2.8668,-2.8299,-2.7955,-2.7646,-2.7524,-2.7499,-2.762,-2.7763,-2.7917,-2.8182,-2.8424,-2.888,-2.9362,-2.9474,-2.9445,-2.9747,-2.9923,-3.0163,-3.025,-3.0278,-3.0059,-2.992,-2.9866,-2.9955,-2.9955,-2.9842,-2.9779,-2.9779,-2.9779,-2.9779,-3.9697,-3.9749,-3.9981,-4.0083,-4.0185,-4.0643,-4.0883,-4.0933,-4.1161,-4.1311,-4.1311,-4.1311,-4.1298,-4.0921,-4.0073,-3.929,-3.8637,-3.8174,-3.79,-3.7854,-3.7577,-3.7642,-3.7849,-3.7307,-3.7201,-3.7512,-3.7398,-3.7079,-3.6735,-3.694,-3.7239,-3.7378,-3.7066,-3.6719,-3.6555,-3.5109,-3.3964,-3.2775,-3.179,-3.0927,-3.0214,-3.0047,-3.0047,-3.0047,-3.0047,-3.0047,-3.0047,-3.0047,-2.9994,-2.9994,-2.9994,-3.0151,-3.0391,-3.064,-3.1094,-3.1807,-3.2409,-3.2986,-3.2585,-3.2356,-3.1934,-3.1041,-3.0626,-2.9967,-2.9338,-2.8727,-2.8511,-2.8484,-2.8119,-2.7947,-2.7905,-2.7572,-2.7378,-2.745,-2.7554,-2.7502,-2.7519,-2.7875,-2.7977,-2.7973,-2.8439,-2.861,-2.8729,-2.8689,-2.8637,-2.8356,-2.8055,-2.7748,-2.7474,-2.7381,-2.7308,-2.7462,-2.754,-2.7695,-2.7861,-2.8107,-2.8443,-2.8969,-2.9071,-2.9145,-2.9452,-2.9697,-2.973,-2.9808,-3.0018,-3.0179,-3.0098,-3.0078,-3.0148,-3.004,-2.9886,-2.9788,-2.9779,-2.9792,-2.9727,-3.9697,-3.9697,-3.9839,-3.989,-3.9942,-4.0287,-4.0529,-4.0694,-4.0946,-4.1147,-4.1261,-4.1311,-4.0885,-4.0096,-3.9251,-3.8553,-3.8093,-3.7912,-3.7913,-3.7867,-3.7735,-3.7937,-3.8374,-3.8025,-3.789,-3.8194,-3.8093,-3.7866,-3.7714,-3.7875,-3.8209,-3.8103,-3.7782,-3.7431,-3.7025,-3.5398,-3.4025,-3.2737,-3.1598,-3.0695,-3.0391,-3.0349,-3.0412,-3.0412,-3.0297,-3.0245,-3.0193,-3.0036,-2.9994,-2.9994,-2.9994,-3.0047,-3.0193,-3.0391,-3.0692,-3.0899,-3.1629,-3.2066,-3.2258,-3.219,-3.1721,-3.1187,-3.0623,-3.0051,-2.9293,-2.8718,-2.8366,-2.8477,-2.8321,-2.8143,-2.8133,-2.8077,-2.8077,-2.8007,-2.7883,-2.7924,-2.7924,-2.8017,-2.817,-2.8097,-2.8035,-2.8309,-2.8429,-2.8285,-2.8247,-2.8094,-2.7846,-2.7661,-2.7452,-2.7321,-2.7319,-2.7323,-2.7401,-2.7423,-2.7636,-2.7829,-2.8074,-2.8479,-2.8628,-2.8763,-2.9081,-2.9308,-2.9358,-2.9767,-3.022,-3.0295,-3.0218,-3.0272,-3.0399,-3.0118,-2.9849,-2.9774,-2.9688,-2.9452,-2.9398,-3.9697,-3.9697,-3.9697,-3.9697,-3.9749,-3.9981,-4.0236,-4.0504,-4.0795,-4.1047,-4.1159,-4.1015,-4.019,-3.9075,-3.8471,-3.8019,-3.7438,-3.7657,-3.7762,-3.7775,-3.795,-3.8389,-3.8701,-3.8574,-3.8529,-3.9037,-3.8161,-3.7791,-3.7909,-3.8214,-3.84,-3.8724,-3.8255,-3.7901,-3.7184,-3.5771,-3.4143,-3.2485,-3.1295,-3.0643,-3.0474,-3.0609,-3.0724,-3.0713,-3.0547,-3.0391,-3.0339,-3.0141,-2.9994,-2.9994,-3.0099,-3.0141,-3.0193,-3.0453,-3.0557,-3.0713,-3.1075,-3.1219,-3.1465,-3.1465,-3.1208,-3.0764,-3.0326,-2.9796,-2.9393,-2.8897,-2.8607,-2.8603,-2.8564,-2.8535,-2.8607,-2.8566,-2.8493,-2.8473,-2.8504,-2.8587,-2.8618,-2.8556,-2.8462,-2.8359,-2.8338,-2.8431,-2.8421,-2.8001,-2.7835,-2.7752,-2.7631,-2.7579,-2.7475,-2.7382,-2.7321,-2.7291,-2.7311,-2.7379,-2.7479,-2.7647,-2.7878,-2.803,-2.8171,-2.8269,-2.8544,-2.8868,-2.9056,-2.959,-3.0148,-3.011,-2.9822,-3.0226,-3.057,-3.0216,-2.9898,-2.974,-2.9593,-2.9309,-2.9152,-3.9697,-3.9697,-3.9697,-3.9697,-3.9697,-3.9981,-4.0236,-4.0491,-4.0744,-4.0971,-4.1004,-4.0424,-3.9323,-3.8357,-3.7941,-3.7608,-3.7121,-3.74,-3.7459,-3.7733,-3.8236,-3.8601,-3.8846,-3.8841,-3.874,-3.8509,-3.7921,-3.74,-3.7108,-3.7547,-3.8096,-3.8647,-3.8432,-3.8072,-3.7234,-3.5841,-3.3931,-3.233,-3.1274,-3.079,-3.0621,-3.0713,-3.0879,-3.0765,-3.0547,-3.0391,-3.0391,-3.0193,-3.0151,-3.0151,-3.0349,-3.0547,-3.0599,-3.0765,-3.092,-3.092,-3.0858,-3.0961,-3.0961,-3.1013,-3.0909,-3.0431,-2.9953,-2.957,-2.9415,-2.8938,-2.869,-2.8773,-2.8887,-2.8804,-2.8742,-2.8649,-2.8845,-2.8897,-2.898,-2.897,-2.8959,-2.8866,-2.8783,-2.8659,-2.8731,-2.8907,-2.8938,-2.8669,-2.8276,-2.8173,-2.809,-2.8038,-2.7707,-2.7562,-2.7403,-2.7336,-2.7357,-2.7367,-2.7378,-2.7535,-2.7725,-2.7778,-2.782,-2.7768,-2.7799,-2.8196,-2.8769,-2.8981,-2.9387,-2.9392,-2.9522,-2.981,-3.0048,-3.0049,-2.9858,-2.9475,-2.9326,-2.913,-2.9064,-3.9697,-3.9697,-3.9697,-3.9697,-3.9697,-3.9788,-3.9981,-4.0236,-4.0377,-4.0324,-4.0214,-3.9092,-3.8293,-3.7741,-3.7178,-3.6915,-3.67,-3.6747,-3.6841,-3.7019,-3.7435,-3.7995,-3.8261,-3.8492,-3.8391,-3.8182,-3.7655,-3.7411,-3.7346,-3.7098,-3.7476,-3.7983,-3.8267,-3.7933,-3.7019,-3.5459,-3.3453,-3.2175,-3.14,-3.1138,-3.083,-3.1075,-3.1281,-3.127,-3.0827,-3.0776,-3.0817,-3.0443,-3.0505,-3.0661,-3.0806,-3.1064,-3.1311,-3.1476,-3.1527,-3.1527,-3.1414,-3.1208,-3.0806,-3.0713,-3.0349,-3.0235,-2.9881,-2.9715,-2.9673,-2.9518,-2.9466,-2.9477,-2.9404,-2.9332,-2.9446,-2.9466,-2.9528,-2.9466,-2.9415,-2.9373,-2.9332,-2.9259,-2.9259,-2.9218,-2.9373,-2.957,-2.9549,-2.9487,-2.9063,-2.869,-2.8618,-2.8493,-2.8173,-2.7862,-2.7686,-2.7583,-2.7662,-2.7665,-2.7676,-2.7665,-2.7665,-2.7631,-2.7585,-2.7633,-2.776,-2.8019,-2.8508,-2.8588,-2.8746,-2.9019,-2.9253,-2.9349,-2.9421,-2.9408,-2.9233,-2.8944,-2.8896,-2.8945,-2.8873,-3.9697,-3.9697,-3.9697,-3.9697,-3.9697,-3.9697,-3.9826,-4.0045,-3.9931,-3.9511,-3.9022,-3.7998,-3.7422,-3.7111,-3.6644,-3.6301,-3.6275,-3.6216,-3.6168,-3.643,-3.688,-3.7281,-3.7617,-3.7856,-3.8052,-3.7885,-3.7453,-3.7089,-3.7173,-3.6744,-3.7127,-3.7712,-3.7894,-3.7529,-3.6673,-3.4845,-3.2957,-3.1963,-3.1692,-3.1413,-3.1074,-3.13,-3.1419,-3.1284,-3.0827,-3.0776,-3.0817,-3.0703,-3.0806,-3.1167,-3.1476,-3.1812,-3.2066,-3.2319,-3.237,-3.2331,-3.2269,-3.2066,-3.1567,-3.0754,-3.0193,-3.0183,-3.0036,-2.9963,-3.0005,-3.0005,-2.986,-2.9901,-2.9942,-2.9994,-2.9994,-2.9891,-2.9849,-2.9756,-2.9777,-2.9746,-2.9777,-2.9735,-2.9798,-2.9829,-2.9922,-2.988,-2.9849,-2.9766,-2.9601,-2.9218,-2.9032,-2.8907,-2.868,-2.838,-2.81,-2.8028,-2.8028,-2.8079,-2.8131,-2.8131,-2.8131,-2.8121,-2.8066,-2.7952,-2.8032,-2.8244,-2.8387,-2.8523,-2.8697,-2.88,-2.8828,-2.8744,-2.876,-2.8787,-2.8677,-2.8645,-2.8723,-2.8746,-2.8533,-3.9697,-3.9697,-3.9697,-3.9685,-3.9647,-3.9672,-3.9801,-3.9842,-3.9386,-3.8688,-3.7886,-3.7559,-3.7159,-3.6568,-3.6218,-3.6015,-3.5847,-3.5679,-3.5475,-3.5635,-3.6258,-3.6758,-3.7093,-3.7276,-3.7589,-3.7162,-3.7036,-3.6982,-3.6904,-3.6891,-3.7197,-3.7387,-3.7551,-3.7033,-3.6557,-3.4958,-3.3359,-3.2232,-3.2197,-3.1808,-3.1285,-3.1328,-3.1294,-3.0964,-3.0661,-3.0609,-3.0817,-3.1027,-3.1256,-3.1823,-3.2412,-3.278,-3.3112,-3.3284,-3.335,-3.3338,-3.3047,-3.2862,-3.2661,-3.1249,-3.0651,-3.0391,-3.0245,-3.0088,-3.0025,-3.0015,-3.0067,-3.0129,-3.0036,-3.0005,-2.9994,-3.0005,-3.0005,-2.9994,-2.9994,-2.9994,-2.9994,-2.9994,-2.9994,-2.9994,-2.9994,-2.9994,-2.9984,-2.9973,-2.9963,-2.9756,-2.9497,-2.929,-2.9083,-2.8856,-2.8545,-2.8411,-2.84,-2.8545,-2.8597,-2.8597,-2.8597,-2.8597,-2.8483,-2.8297,-2.8338,-2.8543,-2.8605,-2.8636,-2.8736,-2.8953,-2.8502,-2.8022,-2.8312,-2.861,-2.8495,-2.8468,-2.8569,-2.8479,-2.8188,-3.9697,-3.9697,-3.9697,-3.9484,-3.9182,-3.9145,-3.9246,-3.9121,-3.8339,-3.7684,-3.7318,-3.6991,-3.6726,-3.6301,-3.5943,-3.5668,-3.5416,-3.4726,-3.4458,-3.4465,-3.5301,-3.5451,-3.5845,-3.6597,-3.7054,-3.7036,-3.7036,-3.7411,-3.7601,-3.7404,-3.7605,-3.7887,-3.7293,-3.6376,-3.5498,-3.4256,-3.3166,-3.2284,-3.2152,-3.2028,-3.1273,-3.136,-3.1285,-3.0819,-3.0558,-3.0631,-3.1057,-3.1291,-3.1932,-3.2712,-3.3339,-3.4056,-3.4497,-3.4757,-3.4722,-3.4677,-3.4497,-3.4127,-3.3472,-3.2319,-3.1259,-3.0858,-3.0433,-3.0381,-3.043,-3.0129,-3.0191,-3.0305,-3.0222,-3.0149,-2.9994,-3.0015,-3.0015,-3.0005,-2.9994,-2.9994,-2.9994,-2.9994,-2.9994,-2.9994,-2.9994,-3.0005,-3.0015,-3.0129,-3.0149,-3.017,-2.9942,-2.958,-2.9332,-2.9187,-2.8959,-2.8794,-2.8763,-2.8959,-2.9063,-2.9063,-2.9063,-2.9063,-2.8835,-2.8535,-2.8649,-2.8878,-2.8971,-2.8971,-2.9012,-2.9021,-2.8671,-2.8413,-2.8447,-2.8533,-2.8386,-2.8174,-2.8121,-2.7941,-2.7641,-3.9584,-3.9408,-3.9408,-3.9082,-3.8705,-3.8831,-3.8743,-3.8228,-3.75,-3.7098,-3.6895,-3.6556,-3.6417,-3.6228,-3.5847,-3.5572,-3.5223,-3.4286,-3.4053,-3.3881,-3.4234,-3.4756,-3.5267,-3.5956,-3.6792,-3.7036,-3.7465,-3.7892,-3.8214,-3.8017,-3.7929,-3.7794,-3.737,-3.6534,-3.5422,-3.4346,-3.3406,-3.2703,-3.2542,-3.2204,-3.1696,-3.1556,-3.1411,-3.0979,-3.079,-3.0905,-3.1295,-3.1855,-3.2601,-3.3541,-3.4388,-3.5201,-3.5628,-3.5827,-3.5715,-3.567,-3.5454,-3.4981,-3.4176,-3.3688,-3.2661,-3.1655,-3.104,-3.0757,-3.0888,-3.0698,-3.0719,-3.0739,-3.0563,-3.0512,-3.045,-3.0419,-3.0408,-3.0408,-3.0419,-3.0439,-3.046,-3.0481,-3.0377,-3.0336,-3.0243,-3.0191,-3.0118,-3.0222,-3.0336,-3.0367,-3.0377,-3.0015,-2.9673,-2.9549,-2.9435,-2.927,-2.9208,-2.9394,-2.9508,-2.9539,-2.9539,-2.9539,-2.928,-2.8919,-2.9003,-2.925,-2.9291,-2.927,-2.9146,-2.9065,-2.9003,-2.8889,-2.8661,-2.8423,-2.8144,-2.7935,-2.7748,-2.7665,-2.7555,-3.9346,-3.8881,-3.8894,-3.8504,-3.8128,-3.8429,-3.814,-3.7211,-3.7197,-3.6883,-3.643,-3.6443,-3.6417,-3.6275,-3.5847,-3.5572,-3.5332,-3.4247,-3.4032,-3.4129,-3.4143,-3.4509,-3.5058,-3.5871,-3.6599,-3.7304,-3.7838,-3.8198,-3.8675,-3.8487,-3.8162,-3.7913,-3.7724,-3.6911,-3.5916,-3.4869,-3.3909,-3.3226,-3.2834,-3.243,-3.1948,-3.1882,-3.1545,-3.1181,-3.1087,-3.1185,-3.1528,-3.2105,-3.2802,-3.3648,-3.4539,-3.5202,-3.5647,-3.5865,-3.5973,-3.6027,-3.5904,-3.5539,-3.5016,-3.4719,-3.3868,-3.2726,-3.1816,-3.1484,-3.1283,-3.1247,-3.1215,-3.1247,-3.1174,-3.1236,-3.1247,-3.1215,-3.1174,-3.1184,-3.1184,-3.1205,-3.1215,-3.1143,-3.0988,-3.0874,-3.075,-3.0636,-3.046,-3.0481,-3.0655,-3.076,-3.0791,-3.0677,-3.0356,-3.0067,-2.9942,-2.9777,-2.9715,-2.9807,-2.9859,-2.9672,-2.9652,-2.9538,-2.9704,-2.9477,-2.9568,-2.9516,-2.9422,-2.9318,-2.9157,-2.9076,-2.9032,-2.8881,-2.8655,-2.8409,-2.8299,-2.8074,-2.8,-2.8039,-2.8029,-3.8781,-3.8266,-3.8253,-3.7927,-3.7437,-3.7186,-3.6885,-3.6669,-3.6644,-3.6518,-3.6417,-3.6417,-3.6417,-3.637,-3.5847,-3.556,-3.5114,-3.4592,-3.4062,-3.3999,-3.4072,-3.4285,-3.4838,-3.5688,-3.6437,-3.7131,-3.772,-3.8303,-3.8502,-3.8518,-3.8778,-3.8785,-3.8101,-3.7524,-3.6731,-3.5697,-3.4613,-3.3681,-3.3239,-3.2648,-3.2209,-3.2106,-3.1671,-3.1433,-3.1371,-3.1504,-3.1755,-3.2367,-3.3051,-3.3747,-3.4762,-3.558,-3.6395,-3.6464,-3.6612,-3.7072,-3.6998,-3.6727,-3.6063,-3.5568,-3.4808,-3.3679,-3.29,-3.2355,-3.202,-3.1671,-3.1609,-3.1692,-3.1671,-3.165,-3.1629,-3.1619,-3.1609,-3.1619,-3.1619,-3.1619,-3.1629,-3.1588,-3.1433,-3.1223,-3.1099,-3.09,-3.0714,-3.0869,-3.1011,-3.1161,-3.1215,-3.112,-3.0926,-3.0551,-3.0346,-3.017,-2.9931,-2.9879,-2.9669,-2.9493,-2.9576,-2.9586,-2.9722,-2.9774,-2.9691,-2.9618,-2.9544,-2.9343,-2.9079,-2.9049,-2.9074,-2.8938,-2.8777,-2.8887,-2.8813,-2.8501,-2.8269,-2.831,-2.8269,-3.8352,-3.786,-3.7737,-3.7362,-3.6895,-3.6556,-3.6417,-3.6417,-3.6417,-3.6417,-3.6417,-3.6417,-3.6417,-3.6358,-3.5991,-3.5668,-3.5501,-3.4732,-3.4377,-3.4601,-3.4165,-3.4464,-3.493,-3.5593,-3.6274,-3.6904,-3.7507,-3.8157,-3.8356,-3.8619,-3.8881,-3.8752,-3.8303,-3.7986,-3.7334,-3.6417,-3.5312,-3.4334,-3.3526,-3.288,-3.2519,-3.2282,-3.2023,-3.1764,-3.1754,-3.1896,-3.1968,-3.2622,-3.3157,-3.3689,-3.4581,-3.5466,-3.6259,-3.6549,-3.685,-3.722,-3.6974,-3.6603,-3.6015,-3.5675,-3.4924,-3.4143,-3.3672,-3.3114,-3.2577,-3.2168,-3.2188,-3.223,-3.2075,-3.195,-3.194,-3.1919,-3.193,-3.194,-3.194,-3.194,-3.195,-3.1961,-3.176,-3.1474,-3.1275,-3.1086,-3.1041,-3.1205,-3.1328,-3.1258,-3.1329,-3.137,-3.1103,-3.0753,-3.0582,-3.0419,-3.0054,-2.9774,-2.9595,-2.9465,-2.956,-2.9603,-2.9606,-2.9659,-2.9679,-2.9542,-2.9308,-2.9119,-2.893,-2.895,-2.902,-2.9079,-2.8991,-2.9056,-2.897,-2.865,-2.8443,-2.8579,-2.8466,-3.8028,-3.7473,-3.7255,-3.6895,-3.6455,-3.6417,-3.6417,-3.6417,-3.6417,-3.6417,-3.6417,-3.6417,-3.6417,-3.637,-3.6051,-3.5968,-3.5646,-3.5052,-3.4905,-3.5413,-3.4483,-3.4464,-3.5033,-3.5609,-3.5817,-3.6483,-3.7089,-3.7518,-3.8145,-3.8303,-3.8303,-3.8356,-3.8262,-3.7998,-3.7518,-3.67,-3.5642,-3.4703,-3.3773,-3.3063,-3.2742,-3.2587,-3.2551,-3.2194,-3.2344,-3.2509,-3.2359,-3.2663,-3.3193,-3.3512,-3.4054,-3.4825,-3.5756,-3.6625,-3.6961,-3.7095,-3.701,-3.6567,-3.6135,-3.5792,-3.4993,-3.4378,-3.3967,-3.3402,-3.2824,-3.2509,-3.2463,-3.2473,-3.2385,-3.2364,-3.2354,-3.2344,-3.2354,-3.2354,-3.2354,-3.2354,-3.2354,-3.2287,-3.2148,-3.1871,-3.1615,-3.1436,-3.1223,-3.1375,-3.1466,-3.1378,-3.1428,-3.1519,-3.1339,-3.0997,-3.0714,-3.0576,-3.0327,-2.9993,-2.9748,-2.9682,-2.9667,-2.9682,-2.9652,-2.9723,-2.9819,-2.9494,-2.9016,-2.9069,-2.9139,-2.8991,-2.8961,-2.9019,-2.9033,-2.8866,-2.8759,-2.8627,-2.8601,-2.8731,-2.8582,-3.7575,-3.6877,-3.6701,-3.6518,-3.6417,-3.6417,-3.6417,-3.6417,-3.6417,-3.6417,-3.6417,-3.6405,-3.6417,-3.637,-3.6146,-3.6063,-3.5861,-3.5466,-3.5423,-3.5275,-3.4721,-3.4618,-3.498,-3.5058,-3.5146,-3.5411,-3.597,-3.6646,-3.7173,-3.7441,-3.772,-3.7974,-3.7826,-3.753,-3.737,-3.6538,-3.5642,-3.4803,-3.4054,-3.3239,-3.2727,-3.2669,-3.2587,-3.2514,-3.2628,-3.2628,-3.2561,-3.2623,-3.2851,-3.2955,-3.3296,-3.4278,-3.5619,-3.6794,-3.734,-3.7426,-3.7349,-3.6781,-3.6269,-3.5833,-3.5129,-3.4387,-3.3866,-3.3297,-3.2887,-3.2784,-3.2669,-3.2669,-3.2669,-3.2669,-3.2669,-3.2669,-3.2669,-3.2669,-3.2669,-3.2669,-3.2669,-3.2571,-3.2473,-3.2246,-3.1999,-3.173,-3.1482,-3.1418,-3.1586,-3.1637,-3.1714,-3.1667,-3.1479,-3.117,-3.0797,-3.0666,-3.0539,-3.0277,-3.0003,-2.9902,-2.991,-2.9872,-2.9868,-2.9928,-2.9958,-2.9684,-2.9357,-2.94,-2.9417,-2.9266,-2.9119,-2.9025,-2.8957,-2.8923,-2.8844,-2.877,-2.8849,-2.8957,-2.8697,-3.745,-3.7028,-3.6687,-3.6405,-3.6228,-3.6241,-3.6181,-3.6086,-3.6181,-3.6241,-3.6228,-3.6323,-3.6417,-3.6417,-3.6241,-3.6146,-3.6088,-3.5733,-3.5739,-3.5577,-3.5065,-3.4859,-3.478,-3.4624,-3.4568,-3.4714,-3.5135,-3.574,-3.6134,-3.6309,-3.658,-3.6839,-3.6754,-3.682,-3.6712,-3.6036,-3.5422,-3.4747,-3.4065,-3.3399,-3.2784,-3.2669,-3.2669,-3.2669,-3.2669,-3.2669,-3.2669,-3.2669,-3.2669,-3.2898,-3.3353,-3.4233,-3.5409,-3.6302,-3.6943,-3.7116,-3.7082,-3.6759,-3.6189,-3.5614,-3.4993,-3.4208,-3.354,-3.2856,-3.2534,-3.2373,-3.2201,-3.2201,-3.2201,-3.2201,-3.243,-3.2487,-3.2612,-3.2669,-3.2669,-3.2669,-3.2669,-3.2659,-3.2399,-3.2015,-3.1772,-3.1599,-3.1359,-3.1128,-3.1275,-3.1275,-3.1392,-3.145,-3.1341,-3.1319,-3.0943,-3.0741,-3.07,-3.0394,-3.0053,-3.0013,-3.0133,-3.0087,-3.0079,-2.9996,-3.0028,-2.9901,-2.9728,-2.9695,-2.9639,-2.9558,-2.943,-2.9336,-2.9277,-2.9264,-2.9156,-2.9059,-2.9101,-2.9219,-2.9111,-3.7337,-3.716,-3.6769,-3.6339,-3.5988,-3.5991,-3.5872,-3.5656,-3.5824,-3.5968,-3.6015,-3.6241,-3.631,-3.6405,-3.6417,-3.6358,-3.6256,-3.5976,-3.6013,-3.58,-3.515,-3.491,-3.467,-3.4468,-3.4188,-3.4121,-3.4446,-3.4658,-3.4991,-3.5157,-3.5323,-3.5312,-3.5477,-3.5642,-3.5642,-3.5477,-3.5046,-3.4435,-3.3851,-3.3466,-3.3012,-3.2669,-3.2669,-3.2669,-3.2669,-3.2669,-3.2669,-3.2669,-3.2669,-3.3012,-3.3445,-3.4247,-3.4978,-3.5718,-3.6274,-3.6561,-3.6323,-3.5975,-3.5532,-3.4831,-3.4194,-3.3592,-3.2962,-3.2493,-3.218,-3.196,-3.1787,-3.173,-3.173,-3.196,-3.2133,-3.2305,-3.2487,-3.2612,-3.2669,-3.2669,-3.2669,-3.2612,-3.2258,-3.1845,-3.1624,-3.145,-3.1228,-3.1005,-3.0947,-3.0898,-3.0898,-3.0898,-3.0937,-3.1053,-3.0943,-3.0871,-3.093,-3.0548,-3.0238,-3.034,-3.0542,-3.0406,-3.0391,-3.0241,-3.0132,-3.016,-3.0152,-2.9978,-2.9893,-2.9932,-2.9853,-2.9785,-2.9726,-2.9648,-2.9414,-2.9307,-2.956,-2.9658,-2.9717,-3.658,-3.5801,-3.5976,-3.5764,-3.5466,-3.5757,-3.586,-3.562,-3.5608,-3.5668,-3.5716,-3.5968,-3.6193,-3.6417,-3.6417,-3.6323,-3.616,-3.6061,-3.601,-3.5841,-3.5294,-3.4915,-3.4449,-3.3907,-3.3523,-3.3466,-3.3625,-3.3805,-3.4065,-3.4289,-3.4446,-3.4591,-3.4658,-3.4758,-3.4703,-3.4547,-3.4345,-3.3851,-3.3568,-3.3182,-3.2898,-3.2669,-3.2669,-3.2669,-3.2669,-3.2669,-3.2669,-3.2669,-3.2669,-3.2898,-3.3321,-3.3927,-3.4482,-3.5103,-3.566,-3.5822,-3.5575,-3.5399,-3.4918,-3.4181,-3.3561,-3.3159,-3.2607,-3.2045,-3.1777,-3.1566,-3.1392,-3.1286,-3.1392,-3.1845,-3.2076,-3.219,-3.2363,-3.2555,-3.2612,-3.2612,-3.2555,-3.243,-3.2133,-3.1787,-3.1556,-3.1344,-3.1064,-3.0947,-3.0947,-3.0898,-3.0898,-3.0898,-3.0898,-3.0898,-3.0898,-3.0994,-3.1019,-3.1003,-3.0818,-3.0881,-3.0968,-3.0797,-3.0672,-3.0563,-3.0563,-3.0673,-3.0615,-3.0381,-3.0459,-3.0576,-3.0459,-3.0215,-3.0156,-3.0039,-2.9707,-2.9609,-2.9902,-3.0107,-3.0166]},{"header":{"parameterUnit":"m.s-1","parameterCategory":1,"la1":31.0,"la2":29.5877,"lo1":-88.7671,"lo2":-86.6584,"dy":0.0162,"dx":0.0185,"nx":115,"ny":88,"refTime":"2023-09-04T06:00:00:Z","depth":0,"parameterNumber":3,"parameterNumberName":"V-component_of_WINDS"},"data":[0.0,0.0,0.0,0.0,0.0,0.0,0.0,0.0,0.0,0.0,0.0,0.0,0.0,0.0,0.0,0.0,0.0,0.0,0.0,0.0,0.0,0.0,0.0,0.0,0.0,0.0,0.0,0.0,0.0,0.0,0.0,0.0,0.0,0.0,0.0,0.0,0.0,0.0,0.0,0.0,0.0,0.0,0.0,0.0,0.0,0.0,0.0,0.0,0.0,0.0,0.0,0.0,0.0,0.0,0.0,0.0,0.0,0.0,0.0,0.0,0.0,0.0,0.0,0.0,0.0,0.0,0.0,0.0,0.0,0.0,0.0,0.0,0.0,0.0,0.0,0.0,0.0,0.0,0.0,0.0,0.0,0.0,0.0,0.0,0.0,0.0,0.0,0.0,0.0,0.0,0.0,0.0,0.0,0.0,0.0,0.0,0.0,0.0,0.0,0.0,0.0,0.0,0.0,0.0,0.0,0.0,0.0,0.0,0.0,0.0,0.0,0.0,0.0,0.0,0.0,0.0,0.0,0.0,0.0,0.0,0.0,0.0,0.0,0.0,0.0,0.0,0.0,0.0,0.0,0.0,0.0,0.0,0.0,0.0,0.0,0.0,0.0,0.0,0.0,0.0,0.0,0.0,0.0,0.0,0.0,0.0,0.0,0.0,0.0,0.0,0.0,0.0,0.0,0.0,0.0,0.0,0.0,0.0,0.0,0.0,0.0,0.0,0.0,0.0,0.0,0.0,0.0,0.0,0.0,0.0,0.0,0.0,0.0,0.0,0.0,0.0,0.0,0.0,0.0,0.0,0.0,0.0,0.0,0.0,0.0,0.0,0.0,0.0,0.0,0.0,0.0,0.0,0.0,0.0,0.0,0.0,0.0,0.0,0.0,0.0,0.0,0.0,0.0,0.0,0.0,0.0,0.0,0.0,0.0,0.0,0.0,0.0,0.0,0.0,0.0,0.0,0.0,0.0,0.0,0.0,0.0,0.0,0.0,0.0,0.0,0.0,0.0,0.0,0.0,0.0,0.0,0.0,0.0,0.0,0.0,0.0,0.0,0.0,0.0,0.0,0.0,0.0,0.0,0.0,0.0,0.0,0.0,0.0,0.0,0.0,0.0,0.0,0.0,0.0,0.0,0.0,0.0,0.0,0.0,0.0,0.0,0.0,0.0,0.0,0.0,0.0,0.0,0.0,0.0,0.0,0.0,0.0,0.0,0.0,0.0,0.0,0.0,0.0,0.0,0.0,0.0,0.0,0.0,0.0,0.0,0.0,0.0,0.0,0.0,0.0,0.0,0.0,0.0,0.0,0.0,0.0,0.0,0.0,0.0,0.0,0.0,0.0,0.0,0.0,0.0,0.0,0.0,0.0,0.0,0.0,0.0,0.0,0.0,0.0,0.0,0.0,0.0,0.0,0.0,0.0,0.0,0.0,0.0,0.0,0.0,0.0,0.0,0.0,0.0,0.0,0.0,0.0,0.0,0.0,0.0,0.0,0.0,0.0,0.0,0.0,0.0,0.0,0.0,0.0,0.0,0.0,0.0,0.0,0.0,0.0,0.0,0.0,0.0,0.0,0.0,0.0,0.0,0.0,0.0,0.0,0.0,0.0,0.0,0.0,0.0,0.0,0.0,0.0,0.0,0.0,0.0,0.0,0.0,0.0,0.0,0.0,0.0,0.0,0.0,0.0,0.0,0.0,0.0,0.0,0.0,0.0,0.0,0.0,0.0,0.0,0.0,0.0,0.0,0.0,0.0,0.0,0.0,0.0,0.0,0.0,0.0,0.0,0.0,0.0,0.0,0.0,0.0,0.0,0.0,0.0,0.0,0.0,0.0,0.0,0.0,0.0,0.0,0.0,0.0,0.0,0.0,0.0,0.0,0.0,0.0,0.0,0.0,0.0,0.0,0.0,0.0,0.0,0.0,0.0,0.0,0.0,0.0,0.0,0.0,0.0,0.0,0.0,0.0,0.0,0.0,0.0,0.0,0.0,0.0,0.0,0.0,0.0,0.0,0.0,0.0,0.0,0.0,0.0,0.0,0.0,0.0,0.0,0.0,0.0,0.0,0.0,0.0,0.0,0.0,0.0,0.0,0.0,0.0,0.0,0.0,0.0,0.0,0.0,0.0,0.0,0.0,0.0,0.0,0.0,0.0,0.0,0.0,0.0,0.0,0.0,0.0,0.0,0.0,0.0,0.0,0.0,0.0,0.0,0.0,0.0,0.0,0.0,0.0,0.0,0.0,0.0,0.0,0.0,0.0,0.0,0.0,0.0,0.0,0.0,0.0,0.0,0.0,0.0,0.0,0.0,0.0,0.0,0.0,0.0,0.0,0.0,0.0,0.0,0.0,0.0,0.0,0.0,0.0,0.0,0.0,0.0,0.0,0.0,0.0,0.0,0.0,0.0,0.0,0.0,0.0,0.0,0.0,0.0,0.0,0.0,0.0,0.0,0.0,0.0,0.0,0.0,0.0,0.0,0.0,0.0,0.0,0.0,0.0,0.0,0.0,0.0,0.0,0.0,0.0,0.0,0.0,0.0,0.0,0.0,0.0,0.0,0.0,0.0,0.0,0.0,0.0,0.0,0.0,0.0,0.0,0.0,0.0,0.0,0.0,0.0,0.0,0.0,0.0,0.0,0.0,0.0,0.0,0.0,0.0,0.0,0.0,0.0,0.0,0.0,0.0,0.0,0.0,0.0,0.0,0.0,0.0,0.0,0.0,0.0,0.0,0.0,0.0,0.0,0.0,0.0,0.0,0.0,0.0,0.0,0.0,0.0,0.0,0.0,0.0,0.0,0.0,0.0,0.0,0.0,0.0,0.0,0.0,0.0,0.0,0.0,0.0,0.0,0.0,0.0,0.0,0.0,0.0,0.0,0.0,0.0,0.0,0.0,0.0,0.0,0.0,0.0,0.0,0.0,0.0,0.0,0.0,0.0,0.0,0.0,0.0,0.0,0.0,0.0,0.0,0.0,0.0,0.0,0.0,0.0,0.0,0.0,0.0,0.0,0.0,0.0,0.0,0.0,0.0,0.0,0.0,0.0,0.0,0.0,0.0,0.0,0.0,0.0,0.0,0.0,0.0,0.0,0.0,0.0,0.0,0.0,0.0,0.0,0.0,0.0,0.0,0.0,0.0,0.0,0.0,0.0,0.0,0.0,0.0,0.0,0.0,0.0,0.0,0.0,0.0,0.0,0.0,0.0,0.0,0.0,0.0,0.0,0.0,0.0,0.0,0.0,0.0,0.0,0.0,0.0,0.0,0.0,0.0,0.0,0.0,0.0,0.0,0.0,0.0,0.0,0.0,0.0,0.0,0.0,0.0,0.0,0.0,0.0,0.0,0.0,0.0,0.0,0.0,0.0,0.0,0.0,0.0,0.0,0.0,0.0,0.0,0.0,0.0,0.0,0.0,0.0,0.0,0.0,0.0,0.0,0.0,0.0,0.0,0.0,0.0,0.0,0.0,0.0,0.0,0.0,0.0,0.0,0.0,0.0,0.0,0.0,0.0,0.0,0.0,0.0,0.0,0.0,0.0,0.0,0.0,0.0,0.0,0.0,0.0,0.0,0.0,0.0,0.0,0.0,0.0,0.0,0.0,0.0,0.0,0.0,0.0,0.0,0.0,0.0,0.0,0.0,0.0,0.0,0.0,0.0,0.0,0.0,0.0,0.0,0.0,0.0,0.0,0.0,0.0,0.0,0.0,0.0,0.0,0.0,0.0,0.0,0.0,0.0,0.0,0.0,0.0,0.0,0.0,0.0,0.0,0.0,0.0,0.0,0.0,0.0,0.0,0.0,0.0,0.0,0.0,0.0,0.0,0.0,0.0,0.0,0.0,0.0,0.0,0.0,0.0,0.0,0.0,0.0,0.0,0.0,0.0,0.0,0.0,0.0,0.0,0.0,0.0,0.0,0.0,0.0,0.0,0.0,0.0,0.0,0.0,0.0,0.0,0.0,0.0,0.0,0.0,0.0,0.0,0.0,0.0,0.0,0.0,0.0,0.0,0.0,0.0,0.0,0.0,0.0,0.0,0.0,0.0,0.0,0.0,0.0,0.0,0.0,0.0,0.0,0.0,0.0,0.0,0.0,0.0,0.0,0.0,0.0,0.0,0.0,0.0,0.0,0.0,0.0,0.0,0.0,0.0,0.0,0.0,0.0,0.0,0.0,0.0,0.0,0.0,0.0,0.0,0.0,0.0,0.0,0.0,0.0,0.0,0.0,0.0,0.0,0.0,0.0,0.0,0.0,0.0,0.0,0.0,0.0,0.0,0.0,0.0,0.0,1.2445,0.0,0.0,0.0,0.0,0.0,0.0,0.0,0.0,0.0,0.0,0.0,0.0,0.0,0.0,0.0,0.0,0.0,0.0,0.0,0.0,0.0,0.0,0.0,0.0,0.0,0.0,0.0,0.0,0.0,0.0,0.0,0.0,0.0,0.0,0.0,0.0,0.0,0.0,0.0,0.0,0.0,0.0,0.0,0.0,0.0,0.0,0.0,0.0,0.0,0.0,0.0,0.0,0.0,0.0,0.0,0.0,0.0,0.0,0.0,0.0,0.0,0.0,0.0,0.0,0.0,0.0,0.0,0.0,0.0,0.0,0.0,0.0,0.0,0.0,0.0,0.0,0.0,0.0,0.0,0.0,0.0,0.0,0.0,0.0,0.0,0.0,0.0,0.0,0.0,0.0,0.0,0.0,0.0,0.0,0.0,0.0,0.0,0.0,0.0,0.0,0.0,0.0,0.0,0.0,0.0,0.0,0.0,0.0,0.0,0.0,1.2837,1.3381,1.3359,1.3442,1.3604,0.0,0.0,0.0,0.0,0.0,0.0,0.0,0.0,0.0,0.0,0.0,0.0,0.0,0.0,0.0,0.0,0.0,0.0,0.0,0.0,0.0,0.0,0.0,0.0,0.0,0.0,0.0,0.0,0.0,0.0,0.0,0.0,0.0,0.0,0.0,0.0,0.0,0.0,0.0,0.0,0.0,0.0,0.0,0.0,0.0,0.0,0.0,0.0,0.0,0.0,0.0,0.0,0.0,0.0,0.0,0.0,0.0,0.0,0.0,0.0,0.0,0.0,0.0,0.0,0.0,0.0,0.0,0.0,0.0,0.0,0.0,0.0,0.0,0.0,0.0,0.0,0.0,0.0,0.0,0.0,0.0,0.0,0.0,0.0,0.0,0.0,0.0,0.0,0.0,0.0,0.0,0.0,0.0,0.0,0.0,0.0,0.0,0.0,0.0,0.0,0.0,0.0,0.0,0.0,0.0,0.0,0.0,0.0,0.0,0.0,0.0,0.0,1.4259,1.4414,1.4497,0.0,0.0,0.0,0.0,0.0,0.0,0.0,0.0,0.0,0.0,0.0,0.0,0.0,0.0,0.0,0.0,0.0,0.0,0.0,0.0,0.0,0.0,0.0,0.0,0.0,0.0,0.0,0.0,0.0,0.0,0.0,0.0,0.0,0.0,0.0,0.0,0.0,0.0,0.0,0.0,0.0,0.0,0.0,0.0,0.0,0.0,0.0,0.0,0.0,0.0,0.0,0.0,0.0,0.0,0.0,0.0,0.0,0.0,0.0,0.0,0.0,0.0,0.0,0.0,0.0,0.0,0.0,0.0,0.0,0.0,0.0,0.0,0.0,0.0,0.0,0.0,0.0,0.0,0.0,0.0,0.0,0.0,0.0,0.0,0.0,0.0,0.0,0.0,0.0,0.0,0.0,0.0,0.0,0.0,0.0,0.0,0.0,0.0,0.0,0.0,0.0,0.0,0.0,0.0,0.0,0.0,0.0,0.0,0.0,0.0,1.4203,1.4776,1.4808,0.0,1.4674,0.0,0.0,0.0,0.0,0.0,0.0,0.0,0.0,0.0,0.0,0.0,0.0,0.0,0.0,0.0,0.0,0.0,0.0,0.0,0.0,0.0,0.0,0.0,0.0,0.0,0.0,0.0,0.0,0.0,0.0,0.0,0.0,0.0,0.0,0.0,0.0,0.0,0.0,0.0,0.0,0.0,0.0,0.0,0.0,0.0,0.0,0.0,0.0,0.0,0.0,0.0,0.0,0.0,0.0,0.0,0.0,0.0,0.0,0.0,0.0,0.0,0.0,0.0,0.0,0.0,0.0,0.0,0.0,0.0,0.0,0.0,0.0,0.0,0.0,0.0,0.0,0.0,0.0,0.0,0.0,0.0,0.0,0.0,0.0,0.0,0.0,0.0,0.0,0.0,0.0,0.0,0.0,0.0,0.0,0.0,0.0,0.0,0.0,0.0,0.0,0.0,0.0,0.0,0.0,0.0,0.0,0.0,0.0,0.0,0.0,1.5458,1.6207,1.6381,1.6269,0.0,0.0,0.0,0.0,0.0,0.0,0.0,0.0,0.0,0.0,0.0,0.0,0.0,0.0,0.0,0.0,0.0,0.0,0.0,0.0,0.0,0.0,0.0,0.0,0.0,0.0,0.0,0.0,0.0,0.0,0.0,0.0,0.0,0.0,0.0,0.0,0.0,0.0,0.0,0.0,0.0,0.0,0.0,0.0,0.0,0.0,0.0,0.0,0.0,0.0,0.0,0.0,0.0,0.0,0.0,0.0,0.0,0.0,0.0,0.0,0.0,0.0,0.0,0.0,0.0,0.0,0.0,0.0,0.0,0.0,0.0,0.0,0.0,0.0,0.0,0.0,0.0,0.0,0.0,0.0,0.0,0.0,0.0,0.0,0.0,0.0,0.0,0.0,0.0,0.0,0.0,0.0,0.0,0.0,0.0,0.0,0.0,0.0,0.0,0.0,0.0,0.0,0.0,0.0,0.0,0.0,0.0,0.0,0.0,0.0,1.5934,1.6389,1.7215,1.7637,1.759,1.7004,0.0,0.0,0.0,0.0,0.0,0.0,0.0,0.0,0.0,0.0,0.0,0.0,0.0,0.0,0.0,0.0,0.0,0.0,0.0,0.0,0.0,0.0,0.0,0.0,0.0,0.0,0.0,0.0,0.0,0.0,0.0,0.0,0.0,0.0,0.0,0.0,0.0,0.0,0.0,0.0,0.0,0.0,0.0,0.0,0.0,0.0,0.0,0.0,0.0,0.0,0.0,0.0,0.0,0.0,0.0,0.0,0.0,0.0,0.0,0.0,0.0,0.0,0.0,0.0,0.0,0.0,0.0,0.0,0.0,0.0,0.0,0.0,0.0,0.0,0.0,0.0,0.0,0.0,0.0,0.0,0.0,0.0,0.0,0.0,0.0,0.0,0.0,0.0,0.0,0.0,0.0,0.0,0.0,0.0,0.0,0.0,0.0,0.0,0.0,0.0,0.0,0.0,0.0,0.0,0.0,0.0,0.0,0.0,1.6184,1.6249,1.6726,1.7564,1.8221,1.8358,0.0,0.0,0.0,0.0,0.0,0.0,0.0,0.0,0.0,0.0,0.0,0.0,0.0,0.0,0.0,0.0,0.0,0.0,0.0,0.0,0.0,0.0,0.0,0.0,0.0,0.0,0.0,0.0,0.0,0.0,0.0,0.0,0.0,0.0,0.0,0.0,0.0,0.0,0.0,0.0,0.0,0.0,0.0,0.0,0.0,0.0,0.0,0.0,0.0,0.0,0.0,0.0,0.0,0.0,0.0,0.0,0.0,0.0,0.0,0.0,0.0,0.0,0.0,0.0,0.0,0.0,0.0,0.0,0.0,0.0,0.0,0.0,0.0,0.0,0.0,0.0,0.0,0.0,0.0,0.0,0.0,0.0,0.0,0.0,0.0,0.0,0.0,0.0,0.0,0.0,0.0,0.0,0.0,0.0,0.0,0.0,0.0,0.0,0.0,0.0,0.0,0.0,0.0,0.0,0.0,0.0,0.0,0.0,0.0,1.6809,1.7501,1.8152,1.8717,1.8871,1.8902,0.0,0.0,0.0,0.0,0.0,0.0,0.0,0.0,0.0,0.0,0.0,0.0,0.0,0.0,0.0,0.0,0.0,0.0,0.0,0.0,0.0,0.0,0.0,0.0,0.0,0.0,0.0,0.0,0.0,0.0,0.0,0.0,0.0,0.0,0.0,0.0,0.0,0.0,0.0,0.0,0.0,0.0,0.0,0.0,0.0,0.0,0.0,0.0,0.0,0.0,0.0,0.0,0.0,0.0,0.0,0.0,0.0,0.0,0.0,0.0,0.0,0.0,0.0,0.0,0.0,0.0,0.0,0.0,0.0,0.0,0.0,0.0,0.0,0.0,0.0,0.0,0.0,0.0,0.0,0.0,0.0,0.0,0.0,0.0,0.0,0.0,0.0,0.0,0.0,0.0,0.0,0.0,0.0,0.0,0.0,0.0,0.0,0.0,0.0,0.0,0.0,0.0,0.0,0.0,0.0,0.0,0.0,0.0,0.0,1.7689,0.0,1.9288,1.9692,1.9626,1.9579,0.0,0.0,0.0,0.0,0.0,0.0,0.0,0.0,0.0,0.0,0.0,0.0,0.0,0.0,0.0,0.0,0.0,0.0,0.0,0.0,0.0,0.0,0.0,0.0,0.0,0.0,0.0,0.0,0.0,0.0,0.0,0.0,0.0,0.0,0.0,0.0,0.0,0.0,0.0,0.0,0.0,0.0,0.0,0.0,0.0,0.0,0.0,0.0,0.0,0.0,0.0,0.0,0.0,0.0,0.0,0.0,0.0,0.0,0.0,0.0,0.0,0.0,0.0,0.0,0.0,0.0,0.0,0.0,0.0,0.0,0.0,0.0,0.0,0.0,0.0,0.0,0.0,0.0,0.0,0.0,0.0,0.0,0.0,0.0,0.0,0.0,0.0,0.0,0.0,0.0,0.0,0.0,0.0,0.0,0.0,0.0,0.0,0.0,0.0,0.0,0.0,0.0,0.0,0.0,0.0,0.0,0.0,0.0,1.8056,1.8872,1.9458,1.9967,2.0326,2.058,2.0436,0.0,0.0,0.0,0.0,0.0,0.0,0.0,0.0,0.0,0.0,0.0,0.0,0.0,0.0,0.0,0.0,0.0,0.0,0.0,0.0,0.0,0.0,0.0,0.0,0.0,0.0,0.0,0.0,0.0,0.0,0.0,0.0,0.0,0.0,0.0,0.0,0.0,0.0,0.0,0.0,0.0,0.0,0.0,0.0,0.0,0.0,0.0,0.0,0.0,0.0,0.0,0.0,0.0,0.0,0.0,0.0,0.0,0.0,0.0,0.0,0.0,0.0,0.0,0.0,0.0,0.0,0.0,0.0,0.0,0.0,0.0,0.0,0.0,0.0,0.0,0.0,0.0,0.0,0.0,0.0,0.0,0.0,0.0,0.0,0.0,0.0,0.0,0.0,0.0,0.0,0.0,0.0,0.0,0.0,0.0,0.0,0.0,0.0,0.0,0.0,0.0,0.0,0.0,0.0,0.0,0.0,0.0,0.0,0.0,1.967,2.015,2.0841,2.167,2.1325,2.1038,0.0,0.0,0.0,0.0,0.0,0.0,0.0,0.0,0.0,0.0,0.0,0.0,0.0,0.0,0.0,0.0,0.0,0.0,0.0,0.0,0.0,0.0,0.0,0.0,0.0,0.0,0.0,0.0,0.0,0.0,0.0,0.0,0.0,0.0,0.0,0.0,0.0,0.0,0.0,0.0,0.0,0.0,0.0,0.0,0.0,0.0,0.0,0.0,0.0,0.0,0.0,0.0,0.0,0.0,0.0,0.0,0.0,0.0,0.0,0.0,0.0,0.0,0.0,0.0,0.0,0.0,0.0,0.0,0.0,0.0,0.0,0.0,0.0,0.0,0.0,0.0,0.0,0.0,0.0,0.0,0.0,0.0,0.0,0.0,0.0,0.0,0.0,0.0,0.0,0.0,0.0,0.0,0.0,0.0,0.0,0.0,0.0,0.0,0.0,0.0,0.0,0.0,0.0,0.0,0.0,0.0,0.0,0.0,0.0,2.1227,2.1379,2.1892,2.2885,2.231,2.194,2.1792,0.0,0.0,0.0,0.0,0.0,0.0,0.0,0.0,0.0,0.0,0.0,0.0,0.0,0.0,0.0,0.0,0.0,0.0,0.0,0.0,0.0,0.0,0.0,0.0,0.0,0.0,0.0,0.0,0.0,0.0,0.0,0.0,0.0,0.0,0.0,0.0,0.0,0.0,0.0,0.0,0.0,0.0,0.0,0.0,0.0,0.0,0.0,0.0,0.0,0.0,0.0,0.0,0.0,0.0,0.0,0.0,0.0,0.0,0.0,0.0,0.0,0.0,0.0,0.0,0.0,0.0,0.0,0.0,0.0,0.0,0.0,0.0,0.0,0.0,0.0,0.0,0.0,0.0,0.0,0.0,0.0,0.0,0.0,0.0,0.0,0.0,0.0,0.0,0.0,0.0,0.0,0.0,0.0,0.0,0.0,0.0,0.0,0.0,0.0,0.0,0.0,0.0,0.0,0.0,0.0,0.0,0.0,0.0,2.3311,2.306,2.3195,2.384,2.3531,2.3117,0.0,0.0,0.0,0.0,0.0,0.0,0.0,0.0,0.0,0.0,0.0,0.0,0.0,0.0,0.0,0.0,0.0,0.0,0.0,0.0,0.0,0.0,0.0,0.0,0.0,0.0,0.0,0.0,0.0,0.0,0.0,0.0,0.0,0.0,0.0,0.0,0.0,0.0,0.0,0.0,0.0,0.0,0.0,0.0,0.0,0.0,0.0,0.0,0.0,0.0,0.0,0.0,0.0,0.0,0.0,0.0,0.0,0.0,0.0,0.0,0.0,0.0,0.0,0.0,0.0,0.0,0.0,0.0,0.0,0.0,0.0,0.0,0.0,0.0,0.0,0.0,0.0,0.0,0.0,0.0,0.0,0.0,0.0,0.0,0.0,0.0,0.0,0.0,0.0,0.0,0.0,0.0,0.0,0.0,0.0,0.0,0.0,0.0,0.0,0.0,0.0,0.0,0.0,0.0,0.0,0.0,0.0,0.0,0.0,2.4005,2.4905,2.5403,2.5486,2.5103,2.4564,0.0,0.0,0.0,0.0,0.0,0.0,0.0,0.0,0.0,0.0,0.0,0.0,0.0,0.0,0.0,0.0,0.0,0.0,0.0,0.0,0.0,0.0,0.0,0.0,0.0,0.0,0.0,0.0,0.0,0.0,0.0,0.0,0.0,0.0,0.0,0.0,0.0,0.0,0.0,0.0,0.0,0.0,0.0,0.0,0.0,0.0,0.0,0.0,0.0,0.0,0.0,0.0,0.0,0.0,0.0,0.0,0.0,0.0,0.0,0.0,0.0,0.0,0.0,0.0,0.0,0.0,0.0,0.0,0.0,0.0,0.0,0.0,0.0,0.0,0.0,0.0,0.0,0.0,0.0,0.0,0.0,0.0,0.0,0.0,0.0,0.0,0.0,0.0,0.0,0.0,0.0,0.0,0.0,0.0,0.0,0.0,0.0,0.0,0.0,0.0,0.0,0.0,0.0,0.0,0.0,0.0,0.0,0.0,2.36,2.507,2.6281,2.7155,2.7595,2.675,2.5869,0.0,0.0,0.0,0.0,0.0,0.0,0.0,0.0,0.0,0.0,0.0,0.0,0.0,0.0,0.0,0.0,0.0,0.0,0.0,0.0,0.0,0.0,0.0,0.0,0.0,0.0,0.0,0.0,0.0,0.0,0.0,0.0,0.0,0.0,0.0,0.0,0.0,0.0,0.0,0.0,0.0,0.0,0.0,0.0,0.0,0.0,0.0,0.0,0.0,0.0,0.0,0.0,0.0,0.0,0.0,0.0,0.0,0.0,0.0,0.0,0.0,0.0,0.0,0.0,0.0,0.0,0.0,0.0,0.0,0.0,0.0,0.0,0.0,0.0,0.0,0.0,0.0,0.0,0.0,0.0,0.0,0.0,0.0,0.0,0.0,0.0,0.0,0.0,0.0,0.0,0.0,0.0,0.0,0.0,0.0,0.0,0.0,0.0,0.0,0.0,0.0,0.0,0.0,0.0,0.0,0.0,0.0,0.0,2.4832,2.6336,2.7464,2.8615,2.9707,2.8353,2.7121,0.0,0.0,0.0,0.0,0.0,0.0,0.0,0.0,0.0,0.0,0.0,0.0,0.0,0.0,0.0,0.0,0.0,0.0,0.0,0.0,0.0,0.0,0.0,0.0,0.0,0.0,0.0,0.0,0.0,0.0,0.0,0.0,0.0,0.0,0.0,0.0,0.0,0.0,0.0,0.0,0.0,0.0,0.0,0.0,0.0,0.0,0.0,0.0,0.0,0.0,0.0,0.0,0.0,0.0,0.0,0.0,0.0,0.0,0.0,0.0,0.0,0.0,0.0,0.0,0.0,0.0,0.0,0.0,0.0,0.0,0.0,0.0,0.0,0.0,0.0,0.0,0.0,0.0,0.0,0.0,0.0,0.0,0.0,0.0,0.0,0.0,0.0,0.0,0.0,0.0,0.0,0.0,0.0,0.0,0.0,0.0,0.0,0.0,0.0,0.0,0.0,0.0,0.0,0.0,0.0,0.0,0.0,0.0,2.5646,2.7232,2.8716,2.9859,3.056,2.9667,2.8735,0.0,0.0,0.0,0.0,0.0,0.0,0.0,0.0,0.0,0.0,0.0,0.0,0.0,0.0,0.0,0.0,0.0,0.0,0.0,0.0,0.0,0.0,0.0,0.0,0.0,0.0,0.0,0.0,0.0,0.0,0.0,0.0,0.0,0.0,0.0,0.0,0.0,0.0,0.0,0.0,0.0,0.0,0.0,0.0,0.0,0.0,0.0,0.0,1.3552,0.0,0.0,0.0,0.0,0.0,0.0,0.0,0.0,0.0,0.0,0.0,0.0,0.0,0.0,0.0,0.0,0.0,0.0,0.0,0.0,0.0,0.0,0.0,0.0,0.0,0.0,0.0,0.0,0.0,0.0,0.0,0.0,0.0,0.0,0.0,0.0,0.0,0.0,0.0,0.0,0.0,0.0,0.0,0.0,0.0,0.0,0.0,0.0,0.0,0.0,0.0,0.0,0.0,0.0,0.0,0.0,0.0,0.0,0.0,2.6559,2.8019,2.9298,3.0338,3.1168,3.0774,2.9917,0.0,0.0,0.0,0.0,0.0,0.0,0.0,0.0,0.0,0.0,0.0,0.0,0.0,0.0,0.0,0.0,0.0,0.0,0.0,0.0,0.0,0.0,0.0,0.0,0.0,0.0,0.0,0.0,0.0,0.0,0.0,0.0,0.0,0.0,0.0,0.0,0.0,0.0,0.0,0.0,0.0,0.0,0.0,0.0,0.0,0.0,0.0,0.0,0.0,0.0,0.0,0.0,0.0,0.0,0.0,0.0,0.0,0.0,0.0,0.0,0.0,0.0,0.0,0.0,0.0,0.0,0.0,0.0,0.0,0.0,0.0,0.0,0.0,0.0,0.0,0.0,0.0,0.0,0.0,0.0,0.0,0.0,0.0,0.0,0.0,0.0,0.0,0.0,0.0,0.0,0.0,0.0,0.0,0.0,0.0,0.0,0.0,0.0,0.0,0.0,0.0,0.0,0.0,0.0,0.0,0.0,0.0,2.6248,2.7464,2.8827,2.9662,3.0586,3.1589,3.1743,3.0965,2.9235,0.0,0.0,0.0,0.0,0.0,0.0,0.0,0.0,0.0,0.0,0.0,0.0,0.0,0.0,0.0,0.0,0.0,0.0,0.0,0.0,0.0,0.0,0.0,0.0,0.0,0.0,0.0,0.0,0.0,0.0,0.0,0.0,0.0,0.0,0.0,0.0,0.0,0.0,2.0444,2.0914,0.0,0.0,0.0,0.0,0.0,0.0,0.0,0.0,1.6787,0.0,0.0,0.0,0.0,0.0,0.0,0.0,0.0,0.0,0.0,0.0,0.0,0.0,0.0,0.0,0.0,0.0,0.0,0.0,0.0,0.0,0.0,0.0,0.0,0.0,0.0,0.0,0.0,0.0,0.0,0.0,0.0,0.0,0.0,0.0,0.0,0.0,0.0,0.0,0.0,0.0,0.0,0.0,0.0,0.0,0.0,0.0,0.0,0.0,0.0,0.0,0.0,0.0,0.0,0.0,0.0,2.5409,2.6903,2.8247,2.9428,3.0821,3.1432,3.1238,3.2488,3.2112,2.9954,0.0,0.0,0.0,0.0,0.0,0.0,0.0,0.0,0.0,0.0,0.0,0.0,0.0,0.0,0.0,0.0,0.0,0.0,0.0,0.0,0.0,0.0,0.0,0.0,0.0,0.0,0.0,0.0,0.0,0.0,0.0,0.0,0.0,0.0,0.0,0.0,0.0,0.0,0.0,2.3436,2.3521,0.0,0.0,0.0,0.0,0.0,0.0,0.0,0.0,1.8011,0.0,0.0,0.0,0.0,0.0,0.0,0.0,0.0,0.0,0.0,0.0,0.0,0.0,0.0,0.0,0.0,0.0,0.0,0.0,0.0,0.0,0.0,0.0,0.0,0.0,0.0,0.0,0.0,0.0,0.0,0.0,0.0,0.0,0.0,0.0,0.0,0.0,0.0,0.0,0.0,0.0,0.0,0.0,0.0,0.0,0.0,0.0,0.0,0.0,0.0,0.0,0.0,0.0,0.0,0.0,2.6237,2.7435,2.8635,2.9807,3.0698,3.1221,3.1376,3.1811,3.1597,0.0,0.0,0.0,0.0,0.0,0.0,0.0,0.0,0.0,0.0,0.0,0.0,0.0,0.0,0.0,0.0,0.0,0.0,0.0,0.0,0.0,0.0,0.0,0.0,0.0,0.0,0.0,0.0,0.0,0.0,0.0,0.0,0.0,0.0,0.0,0.0,0.0,0.0,0.0,0.0,2.511,2.5264,2.4803,0.0,0.0,0.0,0.0,0.0,0.0,2.0865,2.0077,0.0,0.0,0.0,0.0,0.0,0.0,0.0,0.0,0.0,0.0,0.0,0.0,0.0,0.0,0.0,0.0,0.0,0.0,0.0,0.0,0.0,0.0,0.0,0.0,0.0,0.0,0.0,0.0,0.0,0.0,0.0,0.0,0.0,0.0,0.0,0.0,0.0,0.0,0.0,0.0,0.0,0.0,0.0,0.0,0.0,0.0,0.0,0.0,0.0,0.0,0.0,0.0,0.0,0.0,0.0,2.6949,2.8001,2.9024,2.9966,3.0464,3.0916,3.1184,3.1055,3.0893,0.0,0.0,0.0,0.0,0.0,0.0,0.0,0.0,0.0,0.0,0.0,0.0,0.0,0.0,0.0,0.0,0.0,0.0,0.0,0.0,0.0,0.0,0.0,0.0,0.0,0.0,0.0,0.0,0.0,0.0,0.0,0.0,0.0,0.0,0.0,0.0,0.0,0.0,0.0,0.0,0.0,2.6723,2.6678,2.6528,0.0,0.0,0.0,0.0,2.3754,2.2962,0.0,0.0,0.0,0.0,0.0,0.0,0.0,0.0,0.0,0.0,0.0,0.0,0.0,0.0,0.0,0.0,0.0,0.0,0.0,0.0,0.0,0.0,0.0,0.0,0.0,0.0,0.0,0.0,0.0,0.0,0.0,0.0,0.0,0.0,0.0,0.0,0.0,0.0,0.0,0.0,0.0,0.0,0.0,0.0,0.0,0.0,0.0,0.0,0.0,0.0,0.0,0.0,0.0,0.0,0.0,0.0,2.7271,2.8812,2.967,2.9805,3.0938,3.1028,2.9997,3.0941,3.0944,0.0,0.0,0.0,0.0,0.0,0.0,0.0,0.0,0.0,0.0,0.0,0.0,0.0,0.0,0.0,0.0,0.0,0.0,0.0,0.0,0.0,0.0,0.0,0.0,0.0,0.0,0.0,0.0,0.0,0.0,0.0,0.0,0.0,0.0,0.0,0.0,0.0,0.0,0.0,0.0,0.0,2.8096,2.8433,2.8476,2.818,0.0,0.0,2.5778,2.552,2.4703,0.0,0.0,0.0,0.0,0.0,0.0,0.0,0.0,0.0,0.0,0.0,0.0,0.0,0.0,0.0,0.0,0.0,0.0,0.0,0.0,0.0,0.0,0.0,0.0,0.0,0.0,0.0,0.0,0.0,0.0,0.0,0.0,0.0,0.0,0.0,0.0,0.0,0.0,0.0,0.0,0.0,0.0,0.0,0.0,0.0,0.0,0.0,0.0,0.0,0.0,0.0,0.0,0.0,0.0,0.0,2.7217,2.811,2.8896,2.9679,3.0348,3.0788,3.0887,3.0544,3.0779,3.0609,0.0,0.0,0.0,0.0,0.0,0.0,0.0,0.0,0.0,0.0,0.0,0.0,0.0,0.0,0.0,0.0,0.0,0.0,0.0,0.0,0.0,0.0,0.0,0.0,0.0,0.0,0.0,0.0,0.0,0.0,0.0,0.0,0.0,0.0,0.0,0.0,0.0,0.0,0.0,0.0,0.0,0.0,2.9978,3.0424,0.0,0.0,0.0,2.8545,2.8286,0.0,0.0,0.0,0.0,0.0,0.0,0.0,0.0,0.0,0.0,0.0,0.0,0.0,0.0,0.0,0.0,0.0,0.0,0.0,0.0,0.0,0.0,0.0,0.0,0.0,0.0,0.0,0.0,0.0,0.0,0.0,0.0,0.0,0.0,0.0,0.0,0.0,0.0,0.0,0.0,0.0,0.0,0.0,0.0,0.0,0.0,0.0,0.0,0.0,0.0,0.0,0.0,0.0,0.0,0.0,0.0,0.0,2.8915,2.942,3.0114,3.0963,3.0986,3.0949,3.0969,3.0677,0.0,0.0,0.0,0.0,0.0,0.0,0.0,0.0,0.0,0.0,0.0,0.0,0.0,0.0,0.0,0.0,0.0,0.0,0.0,0.0,0.0,0.0,0.0,0.0,0.0,0.0,0.0,2.4654,0.0,0.0,0.0,0.0,0.0,0.0,0.0,0.0,0.0,0.0,0.0,0.0,0.0,0.0,3.0308,3.1519,3.2016,3.2093,0.0,0.0,3.0479,3.0237,2.9043,2.7751,0.0,0.0,0.0,0.0,0.0,0.0,0.0,0.0,0.0,0.0,0.0,0.0,0.0,0.0,0.0,0.0,0.0,0.0,0.0,0.0,0.0,0.0,0.0,0.0,0.0,0.0,0.0,0.0,0.0,0.0,0.0,0.0,0.0,0.0,0.0,0.0,0.0,0.0,0.0,0.0,0.0,0.0,0.0,0.0,0.0,0.0,0.0,0.0,0.0,0.0,0.0,0.0,0.0,0.0,0.0,2.9628,3.0803,3.1362,3.1288,3.192,3.1677,3.0524,3.0611,3.029,0.0,0.0,0.0,0.0,0.0,0.0,0.0,0.0,0.0,0.0,0.0,0.0,0.0,0.0,0.0,0.0,0.0,0.0,0.0,0.0,0.0,0.0,0.0,0.0,0.0,0.0,0.0,0.0,0.0,0.0,0.0,0.0,0.0,0.0,0.0,0.0,0.0,0.0,0.0,0.0,0.0,3.1219,3.3071,3.2942,3.2748,0.0,0.0,3.0673,3.0433,2.9352,2.8142,2.7056,0.0,0.0,0.0,0.0,0.0,0.0,0.0,0.0,0.0,0.0,0.0,0.0,0.0,0.0,0.0,0.0,0.0,0.0,0.0,0.0,0.0,0.0,0.0,0.0,0.0,0.0,0.0,0.0,0.0,0.0,0.0,0.0,0.0,0.0,0.0,0.0,0.0,0.0,0.0,0.0,0.0,0.0,0.0,0.0,0.0,0.0,0.0,0.0,0.0,0.0,0.0,0.0,0.0,2.9138,3.0354,3.0695,3.1215,3.1957,3.2075,3.1741,3.086,3.0918,3.0521,0.0,0.0,0.0,0.0,0.0,0.0,0.0,0.0,0.0,0.0,0.0,0.0,0.0,0.0,0.0,0.0,0.0,0.0,0.0,0.0,0.0,0.0,0.0,0.0,0.0,0.0,0.0,0.0,2.5418,2.5598,2.5889,0.0,0.0,0.0,0.0,0.0,0.0,0.0,0.0,0.0,0.0,3.1912,3.3577,3.3709,0.0,0.0,3.2902,3.2356,3.2251,3.1232,3.0181,2.9479,2.8026,0.0,0.0,0.0,0.0,0.0,0.0,0.0,0.0,0.0,0.0,0.0,0.0,0.0,0.0,0.0,0.0,0.0,0.0,0.0,0.0,0.0,0.0,0.0,0.0,0.0,0.0,0.0,0.0,0.0,0.0,0.0,0.0,0.0,0.0,0.0,0.0,0.0,0.0,0.0,0.0,0.0,0.0,0.0,0.0,0.0,0.0,0.0,0.0,0.0,0.0,0.0,0.0,2.9432,3.1083,3.096,3.1521,3.2742,3.2568,3.2123,3.1576,3.1335,3.081,0.0,0.0,0.0,0.0,0.0,0.0,0.0,0.0,0.0,0.0,0.0,0.0,0.0,0.0,0.0,0.0,0.0,0.0,0.0,0.0,0.0,0.0,0.0,0.0,0.0,0.0,0.0,0.0,2.5606,2.5931,2.6528,0.0,0.0,0.0,0.0,0.0,0.0,0.0,0.0,0.0,0.0,3.2783,3.4152,3.4279,3.4165,3.3978,3.3563,3.3179,3.3023,3.2137,3.1274,3.0694,0.0,0.0,0.0,0.0,0.0,0.0,0.0,0.0,0.0,0.0,0.0,0.0,0.0,0.0,0.0,0.0,0.0,0.0,0.0,0.0,0.0,0.0,0.0,0.0,0.0,0.0,0.0,0.0,0.0,0.0,2.7434,0.0,0.0,0.0,0.0,0.0,0.0,0.0,0.0,0.0,0.0,0.0,0.0,0.0,0.0,0.0,0.0,0.0,0.0,0.0,0.0,0.0,0.0,2.9844,3.1739,3.1939,3.2557,3.3619,3.3471,3.3064,3.2523,3.1786,3.1135,3.0583,0.0,0.0,0.0,0.0,0.0,0.0,0.0,0.0,0.0,0.0,0.0,0.0,0.0,0.0,0.0,0.0,0.0,0.0,0.0,0.0,0.0,0.0,0.0,0.0,0.0,0.0,2.5888,2.5888,2.6214,0.0,0.0,0.0,0.0,0.0,0.0,0.0,0.0,0.0,0.0,3.2818,3.4005,3.5001,3.4554,3.4161,3.4353,3.3586,3.2755,3.229,3.1697,3.0995,0.0,0.0,0.0,0.0,0.0,0.0,0.0,0.0,0.0,0.0,0.0,0.0,0.0,0.0,0.0,0.0,0.0,0.0,0.0,0.0,0.0,0.0,0.0,0.0,0.0,0.0,0.0,2.8712,2.8624,0.0,0.0,0.0,0.0,0.0,0.0,0.0,0.0,0.0,0.0,0.0,3.3542,3.3701,0.0,0.0,0.0,0.0,0.0,0.0,0.0,0.0,0.0,0.0,0.0,0.0,3.0471,3.1563,3.2186,3.2796,3.3369,3.3701,3.3344,3.2299,3.2,3.1358,3.0302,0.0,0.0,0.0,0.0,0.0,0.0,0.0,0.0,0.0,0.0,0.0,0.0,0.0,0.0,0.0,0.0,0.0,0.0,0.0,0.0,0.0,0.0,0.0,0.0,0.0,2.6439,0.0,0.0,0.0,0.0,0.0,0.0,0.0,0.0,0.0,0.0,0.0,3.1705,3.237,3.3275,3.415,3.4845,3.4552,3.432,0.0,0.0,0.0,0.0,0.0,0.0,0.0,0.0,0.0,0.0,0.0,0.0,0.0,0.0,2.7162,2.5537,2.503,2.4759,2.4452,0.0,0.0,0.0,0.0,0.0,0.0,0.0,0.0,0.0,0.0,0.0,0.0,0.0,0.0,3.1176,0.0,3.0403,0.0,0.0,0.0,0.0,0.0,0.0,0.0,0.0,3.3292,3.4386,3.5385,3.5629,3.5749,0.0,3.4706,3.3274,0.0,0.0,0.0,0.0,0.0,0.0,0.0,0.0,3.1076,3.2001,3.2602,3.3079,3.3502,3.3682,3.3362,3.2526,3.212,3.1381,3.0343,2.8811,2.8221,0.0,0.0,0.0,0.0,0.0,0.0,0.0,0.0,0.0,0.0,0.0,0.0,0.0,0.0,0.0,0.0,0.0,0.0,0.0,0.0,0.0,0.0,0.0,2.7472,0.0,0.0,0.0,0.0,0.0,0.0,0.0,0.0,0.0,3.0635,3.1685,3.2678,3.3113,3.3879,3.4487,3.4787,0.0,0.0,0.0,0.0,0.0,0.0,0.0,3.3149,3.3588,3.2781,3.2007,3.1856,3.1448,3.1124,3.1124,0.0,0.0,2.8398,2.7709,2.7366,2.7053,2.6544,2.5941,2.5269,2.4895,2.4631,0.0,0.0,0.0,0.0,0.0,0.0,0.0,0.0,3.3756,3.3608,0.0,3.2182,0.0,0.0,0.0,0.0,0.0,3.0882,0.0,0.0,3.4588,3.585,3.7489,3.7824,3.7993,3.8014,3.717,3.6245,3.5203,3.2729,0.0,0.0,0.0,0.0,0.0,0.0,3.1699,3.2942,3.3196,3.3557,3.4042,3.3559,3.3262,3.3169,3.2123,3.1305,3.0736,2.9426,2.8798,2.8954,2.789,0.0,0.0,0.0,0.0,0.0,0.0,0.0,0.0,0.0,0.0,0.0,0.0,0.0,0.0,0.0,0.0,0.0,0.0,0.0,0.0,2.8572,0.0,0.0,0.0,0.0,0.0,0.0,0.0,0.0,0.0,0.0,3.1342,3.2528,3.3665,3.3924,0.0,0.0,0.0,0.0,3.4433,3.4433,3.4249,3.4144,3.4066,3.4054,3.3968,3.373,0.0,0.0,3.2653,3.2547,3.25,3.2524,3.2488,3.2078,3.0731,2.9973,2.9517,2.9048,2.8322,2.7602,2.6959,2.6634,2.6403,3.7556,0.0,0.0,0.0,0.0,3.4522,3.4522,3.4209,3.4819,3.4719,3.4122,3.3158,0.0,0.0,0.0,0.0,0.0,0.0,3.3152,3.4098,3.5953,3.7486,3.8667,3.9061,3.9451,3.9745,3.8598,3.766,3.6888,3.5592,3.3827,3.1717,0.0,0.0,0.0,0.0,3.2407,3.2822,3.3553,3.3946,3.3965,3.4156,3.3954,3.3281,3.2536,3.1901,3.1371,3.0124,2.9412,2.919,2.8095,0.0,0.0,0.0,0.0,0.0,0.0,0.0,0.0,0.0,0.0,0.0,0.0,0.0,0.0,0.0,0.0,0.0,0.0,0.0,2.9503,2.9465,2.9849,0.0,0.0,0.0,0.0,0.0,0.0,0.0,0.0,0.0,3.4316,3.4688,3.513,0.0,0.0,3.5692,3.5416,3.532,3.5271,3.5284,3.5187,0.0,3.5172,3.4818,3.4647,3.4974,3.4504,3.4049,3.3908,3.3419,3.3086,3.3086,3.3086,3.2932,3.2553,3.1734,3.1017,3.0686,3.0169,2.9556,2.8878,2.8594,2.8198,4.0158,3.7949,3.7412,3.6865,3.6434,3.6966,3.6818,3.6349,3.7038,3.6764,3.5806,3.5035,3.4349,3.3684,3.278,0.0,0.0,0.0,3.4444,3.5469,3.729,3.8678,3.9715,4.0308,4.0727,4.1071,3.9805,3.8985,3.8568,3.7361,3.5673,3.3565,0.0,0.0,3.2228,3.2842,3.3164,3.3283,3.3875,3.4108,3.4002,3.4175,3.3957,3.3329,3.2847,3.2489,3.2137,3.0856,2.9992,2.9741,2.8667,2.8347,0.0,0.0,0.0,0.0,0.0,0.0,0.0,0.0,0.0,0.0,0.0,2.9467,3.0145,0.0,0.0,0.0,3.016,3.0094,3.0299,3.0628,0.0,0.0,0.0,0.0,0.0,0.0,0.0,3.5377,3.6035,3.6553,3.6562,3.6456,3.6286,3.5962,3.6024,3.5925,3.5491,0.0,3.5063,3.4969,3.4969,3.4981,3.5063,3.4792,3.474,3.5061,3.463,3.4269,3.4245,3.3791,3.3423,3.3411,3.3331,3.3284,3.3284,3.2609,3.1965,3.1701,3.1256,3.0679,3.008,2.9784,2.9184,4.242,4.193,4.0708,3.9818,3.9244,3.9644,3.9503,3.9066,3.9765,3.9244,3.7797,3.7369,3.6367,3.4839,3.4368,0.0,3.4501,3.4745,3.5799,3.7431,3.845,3.9557,4.073,4.1395,4.1813,4.199,4.0713,4.0075,3.9929,3.8231,3.6939,3.6014,3.491,3.4136,3.3633,3.375,3.3908,3.4094,3.4128,3.4128,3.4128,3.3833,3.3591,3.3388,3.3199,3.303,3.2912,3.1523,3.0583,3.0337,2.943,2.8878,2.8768,0.0,0.0,0.0,0.0,0.0,0.0,0.0,0.0,0.0,0.0,0.0,0.0,0.0,0.0,0.0,3.1254,0.0,3.1094,3.2066,0.0,0.0,0.0,3.4651,3.5427,3.5656,3.5949,3.6662,0.0,0.0,3.8051,3.7838,3.7195,3.6213,3.6172,3.5991,3.5306,3.479,3.4318,3.4209,3.4126,3.416,3.4404,3.4351,3.4264,3.4214,3.3962,3.3798,3.3728,3.3472,3.3339,3.3241,3.3192,3.3017,3.3066,3.2581,3.2286,3.1953,3.1565,3.1078,3.0514,3.0087,2.9466,4.3919,4.4022,4.4137,4.3219,4.1712,4.135,4.0924,4.0458,4.0227,3.9769,3.9111,3.8013,3.708,3.6295,3.6168,3.6014,3.5846,3.6722,3.7277,3.7723,3.909,4.0161,4.0916,4.1479,4.1567,4.1294,4.0495,3.9857,3.9392,3.8449,3.7382,3.6273,3.5927,3.5131,3.3905,3.3957,3.4059,3.4094,3.4264,3.4346,3.4346,3.4244,3.4108,3.3908,3.3874,3.3474,3.2718,3.187,3.1006,3.0119,2.9429,2.9059,2.9087,2.9214,0.0,0.0,0.0,0.0,0.0,0.0,0.0,0.0,0.0,2.9362,3.0187,0.0,3.0587,0.0,3.1896,3.2558,3.3464,3.3657,0.0,0.0,3.5375,3.551,3.5717,3.6722,3.7279,3.6948,3.7767,3.827,3.8036,3.8019,3.7828,3.7236,3.6703,3.6173,3.5667,3.5187,3.4918,3.4803,3.4585,3.4545,3.449,3.4259,3.3834,3.3446,3.2816,3.2413,3.2401,3.1828,3.1388,3.1388,3.1345,3.1315,3.1363,3.1193,3.1156,3.1059,3.0984,3.0766,3.0071,2.9796,2.934,4.4517,4.4544,4.4877,4.4371,4.3475,4.3158,4.2563,4.1782,4.1255,4.0657,4.0125,3.8771,3.7967,3.7734,3.7817,3.7827,3.7824,3.8352,3.8743,3.9019,3.9867,4.0645,4.1198,4.1675,4.1592,4.1076,4.0423,3.9799,3.9189,3.8522,3.7564,3.6315,3.6286,3.5571,3.42,3.421,3.423,3.423,3.4346,3.438,3.438,3.438,3.4346,3.423,3.423,3.3969,3.3407,3.2487,3.1649,3.0937,2.9889,2.9315,2.9231,2.9258,2.9362,0.0,0.0,0.0,0.0,0.0,0.0,0.0,0.0,0.0,0.0,0.0,3.1015,3.1886,3.2785,3.3659,3.4356,3.4819,3.5486,3.6454,3.6497,3.6576,3.6849,3.7572,3.8066,3.8008,3.8341,3.8572,3.8476,3.8265,3.7944,3.7577,3.6961,3.6322,3.5751,3.5158,3.4686,3.4381,3.399,3.3595,3.3294,3.2993,3.2692,3.2378,3.1981,3.1697,3.1643,3.1241,3.0877,3.0865,3.0794,3.0699,3.0699,3.0699,3.0577,3.0094,3.0057,3.0065,3.0008,2.9618,2.9017,4.4715,4.4426,4.4474,4.456,4.4743,4.4766,4.4165,4.3079,4.2547,4.1732,4.0698,3.9534,3.8948,3.8884,3.9275,3.9477,3.962,3.9714,3.9986,4.0457,4.0637,4.0958,4.1438,4.1798,4.1628,4.096,4.0307,3.9668,3.9073,3.8405,3.7476,3.6344,3.6228,3.559,3.4457,3.438,3.438,3.438,3.438,3.438,3.438,3.438,3.438,3.438,3.438,3.437,3.4269,3.3093,3.2328,3.2004,3.0616,2.9715,2.9485,2.9415,2.9293,0.0,2.9232,0.0,0.0,0.0,0.0,0.0,0.0,0.0,0.0,3.1349,3.1876,3.2553,3.379,3.4574,3.4646,3.572,3.6707,3.7331,3.736,3.752,3.8014,3.8014,3.8188,3.8768,3.8318,3.8188,3.8623,3.8144,3.7609,3.7339,3.6827,3.6227,3.5597,3.4805,3.4098,3.342,3.286,3.2409,3.1738,3.1496,3.1392,3.1304,3.1087,3.1125,3.1009,3.0773,3.0664,3.0639,3.0391,3.0318,3.0364,3.0314,3.0007,2.9172,2.8985,2.9202,2.961,2.9205,2.8633,4.5719,4.5217,4.5641,4.5713,4.5507,4.5746,4.5208,4.4159,4.3582,4.2336,4.0786,4.0292,3.981,3.942,4.0175,4.0208,3.984,4.0638,4.0709,4.0118,4.0687,4.1114,4.1409,4.1321,4.0945,4.0278,3.9654,3.903,3.8376,3.7767,3.7085,3.6315,3.5793,3.5189,3.4443,0.0,0.0,0.0,3.438,3.438,3.438,3.438,3.438,3.438,3.438,0.0,3.3707,3.3412,3.2938,3.2256,3.1441,0.0,0.0,0.0,0.0,0.0,0.0,0.0,0.0,0.0,0.0,0.0,3.1664,3.1811,3.199,3.2674,3.3151,3.3311,3.4462,3.5386,3.5909,3.6649,3.736,3.7941,3.7607,3.736,3.7447,3.6997,3.6722,3.6838,3.6751,3.6722,3.6925,3.67,3.6548,3.641,3.6068,3.5629,3.5065,3.4418,3.3711,3.2996,3.2439,3.1915,3.1326,3.1237,3.0967,3.0494,2.9935,2.9631,2.9466,2.9038,2.87,2.8737,2.8625,2.8637,2.8637,2.8575,2.8637,2.835,2.8275,2.8263,2.8086,2.7912,2.7702,4.5776,0.0,4.5464,4.5407,0.0,4.5624,4.5517,4.4945,4.4429,4.3269,4.1734,4.1023,4.0539,4.03,4.0945,4.0991,4.0635,4.1214,4.121,4.0685,4.1,4.1283,4.1381,4.1206,4.0757,4.0089,3.9494,3.8855,3.8202,3.7593,3.6968,3.6301,3.5712,3.5087,3.4443,3.4719,3.4878,3.4878,3.4878,3.4878,3.4878,3.4574,3.438,3.438,3.438,0.0,0.0,0.0,0.0,0.0,0.0,0.0,0.0,3.1309,0.0,3.0945,3.1215,3.1354,3.1257,3.1653,3.2078,3.2444,3.299,3.3227,3.2923,3.3539,3.3935,3.3949,3.4854,3.5523,3.5822,3.6417,3.6939,3.7215,3.6997,3.6809,3.678,3.6519,3.6446,3.6707,3.6504,3.6417,3.6751,3.6489,3.628,3.6158,3.5964,3.5582,3.4933,3.4444,3.3801,3.2632,3.2019,3.1537,3.0932,3.0522,3.0279,2.9808,2.9286,2.8881,2.8672,2.842,2.8231,2.8109,2.8109,2.8109,2.8109,2.8109,2.8034,2.777,2.7695,2.7546,2.7144,2.7148,2.7274,4.5695,4.5303,4.5089,4.4968,4.5014,4.5413,4.5564,4.5549,0.0,0.0,0.0,4.1534,4.099,4.0895,4.1461,4.1584,4.1355,4.1621,4.1573,4.1329,4.1426,4.148,4.1437,4.1061,4.0641,4.0075,3.9378,3.8681,3.8028,3.7418,3.6794,3.6141,3.5537,3.4994,3.4646,3.5328,3.5741,3.5726,3.5508,3.5392,3.5378,3.4748,3.438,3.438,3.438,3.438,3.4366,3.3906,3.3721,3.3823,3.3079,3.2745,3.2814,3.2611,3.2449,3.2352,3.2453,3.2461,3.2284,3.2352,3.2704,3.3355,3.4008,3.4196,3.3707,3.4109,3.438,3.438,3.5014,3.5392,3.5407,3.5938,3.6286,3.6286,3.6199,3.6127,3.6127,3.6011,3.6112,3.6635,3.6228,3.617,3.6577,3.6228,3.5981,3.5932,3.571,3.551,3.4811,3.4341,3.3666,3.2406,3.1726,3.1199,3.0544,2.9915,2.9494,2.9418,2.8895,2.8464,2.832,2.8221,2.8086,2.7792,2.7844,2.7806,2.7795,2.7745,2.7657,2.7253,2.7165,2.704,2.6663,2.6699,2.6994,4.6198,4.5496,4.5683,4.5745,4.5745,4.585,4.5835,4.5747,4.4748,4.3652,4.2567,4.158,4.0877,4.0463,4.1225,4.1389,4.1141,4.1838,4.191,4.1412,4.1592,4.166,4.1589,4.068,4.0191,4.0002,3.8913,3.8028,3.7418,3.678,3.6127,3.5537,3.4864,3.4791,3.5319,3.6431,3.7041,3.7012,3.5959,3.5392,3.5392,3.4733,3.438,3.438,3.438,3.438,3.438,3.4327,3.453,3.5072,3.3997,3.3587,3.408,3.3137,3.2481,3.251,3.3003,3.3307,3.3307,3.3781,3.4114,3.4235,3.4337,3.437,3.4298,3.437,3.438,3.4395,3.498,3.5392,3.5436,3.5894,3.6214,3.6214,3.5807,3.5537,3.5523,3.5053,3.482,3.4936,3.4748,3.4748,3.4936,3.4864,3.4864,3.4714,3.4911,3.4582,3.4327,3.3607,3.296,3.2196,3.1514,3.093,3.054,2.982,2.9392,2.9083,2.8631,2.8173,2.7947,2.7617,2.7305,2.6971,2.7034,2.6952,2.6848,2.6738,2.6763,2.6675,2.6675,2.66,2.6499,2.6553,2.6618,4.6096,4.5745,4.5835,4.588,4.588,4.588,4.588,4.5779,4.4614,4.3759,4.305,4.1865,4.1155,4.0958,4.1412,4.1511,4.1255,4.1752,4.178,4.1452,4.1619,4.1688,4.1614,4.0593,4.0104,4.0017,3.8812,3.7897,3.7288,3.662,3.5996,3.5407,3.5101,3.5415,3.6402,3.7012,3.7476,3.7738,3.6533,3.5865,3.5865,3.4922,3.438,3.438,3.438,3.438,3.438,3.4748,3.5101,3.5392,3.5189,3.514,3.5401,3.4574,3.4066,3.4051,3.4008,3.3978,3.3978,3.4574,3.4936,3.4936,3.5241,3.5444,3.543,3.482,3.438,3.4414,3.469,3.4849,3.4849,3.5111,3.5285,3.5285,3.5009,3.4849,3.482,3.4617,3.438,3.438,3.438,3.438,3.438,3.4704,3.4922,3.4922,3.4922,3.4873,3.4775,3.4192,3.3493,3.2739,3.2322,3.1842,3.1146,3.028,2.968,2.921,2.8756,2.8252,2.7781,2.7398,2.724,2.7066,2.693,2.6794,2.6671,2.6589,2.6589,2.6487,2.6487,2.6487,2.6487,2.6487,2.6487,4.6056,4.588,4.588,4.588,4.588,4.588,4.588,4.575,4.4545,4.3892,4.3502,4.2194,4.1578,4.1578,4.1717,4.1731,4.1606,4.1717,4.1675,4.1564,4.1717,4.1785,4.1656,4.0619,4.0104,3.9958,3.8812,3.7897,3.7288,3.6635,3.5996,3.5508,3.5683,3.6351,3.7273,3.7447,3.768,3.7897,3.6881,3.6286,3.6257,3.5067,3.438,3.4414,3.4574,3.4617,3.4661,3.5227,3.5668,3.5842,3.6127,3.6373,3.6475,3.5828,3.5392,3.5334,3.4762,3.438,3.4443,3.4864,3.5189,3.5203,3.5735,3.6083,3.6025,3.5343,3.4762,3.4646,3.453,3.4443,3.4409,3.4443,3.438,3.438,3.438,3.4443,3.4428,3.438,3.438,3.438,3.438,3.438,3.4501,3.4835,3.5101,3.5101,3.5189,3.5174,3.5096,3.4791,3.4261,3.3494,3.3066,3.2391,3.1579,3.0619,2.9764,2.9205,2.8921,2.8441,2.7926,2.7716,2.7669,2.7503,2.7302,2.7134,2.693,2.6794,2.6739,2.6671,2.6636,2.6624,2.6555,2.6555,2.6521,4.6616,4.5954,4.588,4.588,4.588,4.588,4.588,4.5721,4.4545,4.3993,4.382,4.2602,4.2024,4.2051,4.2051,4.2051,4.2009,4.2051,4.2051,4.2009,4.2051,4.2051,4.1906,4.0713,4.0104,3.9929,3.8797,3.7897,3.7288,3.6635,3.5981,3.561,3.6533,3.7179,3.7375,3.7854,3.7883,3.7389,3.6678,3.6286,3.6228,3.5067,3.438,3.438,3.5014,3.5319,3.5319,3.588,3.6504,3.7012,3.6606,3.6606,3.7012,3.604,3.5392,3.5392,3.4762,3.438,3.4414,3.4457,3.4559,3.4545,3.5169,3.5581,3.5595,3.5894,3.5865,3.5343,3.4748,3.4472,3.438,3.438,3.438,3.438,3.438,3.438,3.438,3.438,3.438,3.438,3.438,3.438,3.4428,3.4559,3.4603,3.4704,3.4748,3.4733,3.4733,3.4907,3.4897,3.4014,3.305,3.2047,3.1311,3.0304,2.9623,2.8878,2.8773,2.8625,2.8339,2.8249,2.8379,2.8085,2.7829,2.7643,2.7323,2.71,2.7011,2.6977,2.6943,2.6875,2.676,2.6692,2.6658,4.6674,4.5895,4.588,4.588,4.588,4.588,4.588,4.5793,4.4922,4.4342,4.3892,4.3021,4.2426,4.2092,4.2092,4.2092,4.2092,4.2092,4.2092,4.2092,4.2201,4.2079,4.1627,4.09,4.0295,3.9702,3.8827,3.7972,3.7324,3.6757,3.6572,3.6925,3.751,3.7943,3.8341,3.8605,3.8569,3.8194,3.7455,3.7062,3.6916,3.5703,3.5014,3.5038,3.559,3.5923,3.5996,3.6548,3.7027,3.7302,3.7375,3.7549,3.781,3.662,3.5923,3.5865,3.4951,3.438,3.438,3.4762,3.498,3.5014,3.5923,3.6519,3.6519,3.6751,3.6635,3.5981,3.5378,3.4835,3.4486,3.438,3.438,3.438,3.438,3.438,3.438,3.438,3.438,3.438,3.438,3.438,3.4472,3.4748,3.4985,3.498,3.5,3.4907,3.5,3.4893,3.4781,3.4589,3.375,3.2877,3.2077,3.1433,3.0521,2.964,2.9507,2.9491,2.8766,2.8716,2.8812,2.867,2.8495,2.8189,2.7776,2.7643,2.7556,2.7423,2.7201,2.7146,2.7066,2.6964,2.6875,4.6834,4.5984,4.588,4.588,4.588,4.588,4.588,4.5793,4.5169,4.4632,4.4168,4.3369,4.2745,4.2368,4.2179,4.2092,4.2092,4.2175,4.2175,4.2201,4.2392,4.2122,4.1477,4.0989,4.038,3.958,3.8837,3.812,3.7456,3.7259,3.7445,3.7997,3.8323,3.8743,3.9247,3.9271,3.9073,3.8669,3.8045,3.7607,3.7321,3.6555,3.5948,3.5741,3.6243,3.6591,3.6606,3.7201,3.7586,3.7637,3.8044,3.83,3.8308,3.7157,3.6262,3.5848,3.4971,3.438,3.438,3.4849,3.5145,3.5232,3.6301,3.7027,3.7099,3.736,3.7157,3.6373,3.5894,3.5314,3.453,3.438,3.438,3.438,3.438,3.438,3.438,3.438,3.438,3.438,3.438,3.438,3.4472,3.4777,3.5043,3.5058,3.5087,3.5145,3.5101,3.4719,3.4569,3.4822,3.4269,3.3577,3.2917,3.2349,3.1532,3.0742,3.0431,3.0179,2.9389,2.9388,2.932,2.923,2.9121,2.8899,2.8546,2.8384,2.8276,2.7954,2.7828,2.7722,2.7523,2.7382,2.7338,4.7257,4.5953,4.5895,4.588,4.588,4.588,4.588,4.5851,4.5198,4.4879,4.4647,4.3602,4.2992,4.2876,4.2382,4.2107,4.2133,4.2284,4.2407,4.2377,4.2581,4.2309,4.1676,4.1081,4.0456,3.9658,3.892,3.8245,3.7703,3.8121,3.8413,3.8446,3.9026,3.9505,3.9799,3.9773,3.9258,3.8616,3.8305,3.7801,3.7166,3.7514,3.7227,3.6517,3.691,3.7259,3.7317,3.7839,3.8234,3.842,3.8464,3.8538,3.8657,3.7517,3.6256,3.5049,3.4588,3.438,3.438,3.4486,3.4516,3.4632,3.572,3.6373,3.6519,3.7462,3.752,3.6417,3.6228,3.5706,3.4583,3.438,3.438,3.438,3.438,3.438,3.438,3.438,3.438,3.438,3.438,3.438,3.438,3.4428,3.4516,3.453,3.4501,3.4516,3.4545,3.4457,3.4438,3.4433,3.422,3.3839,3.3164,3.286,3.2286,3.1555,3.111,3.0901,3.0485,3.0143,3.0001,2.9806,2.9651,2.9481,2.9279,2.9149,2.8995,2.8889,2.8888,2.8758,2.8631,2.8172,2.8153,4.6949,4.5413,4.5398,4.5398,4.5413,4.5564,4.564,4.5611,4.5589,4.5271,4.4864,4.4385,4.3761,4.2992,4.2774,4.2538,4.2298,4.2366,4.2474,4.2581,4.2809,4.2327,4.1364,4.1207,4.0523,3.9439,3.904,3.8694,3.8429,3.8583,3.8876,3.9253,3.9672,4.0025,4.0266,4.037,4.0128,3.9601,3.9269,3.8916,3.8493,3.8485,3.8252,3.7952,3.8143,3.8253,3.8238,3.8495,3.8612,3.8686,3.8686,3.8723,3.8664,3.7496,3.6303,3.54,3.4748,3.438,3.438,3.438,3.438,3.4501,3.5575,3.6301,3.6504,3.7389,3.7665,3.662,3.6301,3.5735,3.4762,3.438,3.438,3.438,3.438,3.438,3.438,3.438,3.438,3.438,3.438,3.438,3.438,3.438,3.438,3.438,3.438,3.438,3.438,3.438,3.438,3.438,3.4346,3.4162,3.3805,3.3472,3.3031,3.2423,3.1898,3.1523,3.1144,3.0962,3.0799,3.0299,3.0121,2.9998,2.9885,3.0066,2.9907,2.9969,2.9988,3.0058,3.0072,2.964,2.9618,4.6189,4.5117,4.5,4.5,4.5032,4.5367,4.5504,4.5549,4.579,4.5634,4.5227,4.498,4.4298,4.3384,4.3094,4.2784,4.2436,4.2392,4.2474,4.2622,4.2795,4.2352,4.1477,4.1507,4.0979,3.9862,3.9505,3.9328,3.9114,3.8974,3.9162,3.9681,4.0056,4.037,4.0646,4.0765,4.0646,4.037,4.0001,3.9696,3.9481,3.9177,3.9017,3.909,3.909,3.898,3.8819,3.887,3.8943,3.898,3.9053,3.8986,3.8667,3.7591,3.6531,3.5781,3.4981,3.4448,3.4414,3.438,3.4501,3.4733,3.5747,3.6445,3.6742,3.774,3.7675,3.6858,3.6408,3.5863,3.486,3.4448,3.438,3.438,3.438,3.438,3.438,3.438,3.438,3.438,3.438,3.438,3.438,3.438,3.438,3.438,3.438,3.438,3.438,3.438,3.438,3.438,3.438,3.4346,3.4162,3.3922,3.3695,3.3152,3.2684,3.2274,3.1961,3.1792,3.1454,3.0921,3.0645,3.0553,3.063,3.0859,3.1023,3.1101,3.1168,3.1213,3.1185,3.1118,3.1023,4.5029,4.4797,4.4797,4.4783,4.483,4.5276,4.5504,4.5549,4.579,4.5837,4.5677,4.5184,4.4516,4.3906,4.3268,4.2769,4.2439,4.2351,4.2392,4.2474,4.2648,4.2334,4.1711,4.1794,4.1585,4.0901,4.0367,3.9995,3.9756,3.9365,3.9339,3.9696,4.0046,4.0528,4.1083,4.1022,4.0938,4.0813,4.0475,4.0011,3.9696,3.9571,3.9505,3.9625,3.9646,3.9379,3.8892,3.9053,3.925,3.9394,3.9574,3.9365,3.8848,3.8017,3.7058,3.6128,3.5228,3.4689,3.4448,3.4457,3.4811,3.531,3.6158,3.6921,3.7484,3.8223,3.8259,3.7187,3.6684,3.6102,3.5029,3.4544,3.4414,3.438,3.438,3.438,3.438,3.438,3.438,3.438,3.438,3.438,3.438,3.438,3.438,3.438,3.438,3.438,3.438,3.438,3.438,3.438,3.438,3.438,3.438,3.4346,3.4142,3.3871,3.3494,3.3105,3.2817,3.263,3.2156,3.1664,3.1447,3.1339,3.1471,3.172,3.2112,3.2206,3.2306,3.237,3.2345,3.2288,3.2162,4.4769,4.4303,4.4472,4.4504,4.4597,4.5046,4.5307,4.5518,4.579,4.588,4.5764,4.5184,4.456,4.3935,4.3297,4.2715,4.2189,4.2216,4.2325,4.2581,4.2648,4.2349,4.1794,4.177,4.1548,4.113,4.0887,4.0568,4.0196,3.9817,3.9653,3.9811,4.0257,4.0812,4.1388,4.186,4.2158,4.2123,4.1715,4.1243,4.0616,4.028,3.9997,3.9742,3.9717,3.9702,3.9758,3.9753,3.9788,3.9935,4.0005,3.9984,3.9779,3.9024,3.8118,3.7169,3.6122,3.5223,3.4733,3.5025,3.5346,3.5775,3.6749,3.7502,3.7811,3.8443,3.845,3.7668,3.7105,3.6373,3.5536,3.4898,3.4593,3.4414,3.438,3.4399,3.4414,3.4414,3.438,3.438,3.438,3.438,3.4414,3.4414,3.4414,3.4414,3.4414,3.4414,3.4414,3.4414,3.438,3.438,3.438,3.4448,3.4467,3.4501,3.4414,3.4244,3.4004,3.3715,3.3502,3.3332,3.2858,3.2483,3.2249,3.2237,3.2338,3.2614,3.2988,3.3278,3.3339,3.3417,3.3528,3.3408,3.3177,4.4801,4.4209,4.4457,4.4518,4.4504,4.5092,4.5458,4.5549,4.588,4.597,4.5795,4.5184,4.456,4.395,4.3297,4.2673,4.2136,4.2092,4.2257,4.2433,4.2474,4.2225,4.1887,4.2004,4.2026,4.1822,4.1632,4.1396,4.1017,4.0598,4.0323,4.0344,4.0798,4.1273,4.1637,4.2186,4.2504,4.2504,4.2181,4.1771,4.1306,4.1016,4.0663,4.0287,4.0294,4.0405,4.0539,4.0489,4.0489,4.0562,4.0684,4.082,4.0839,4.0016,3.8987,3.7928,3.691,3.59,3.5163,3.5524,3.6021,3.6379,3.732,3.8115,3.8352,3.8781,3.872,3.8127,3.7692,3.6965,3.6021,3.5395,3.4942,3.453,3.4448,3.4433,3.4481,3.4515,3.4549,3.4582,3.4616,3.4568,3.4568,3.4601,3.4568,3.4582,3.4582,3.4549,3.4549,3.4582,3.4549,3.4549,3.4616,3.4616,3.4601,3.4601,3.4601,3.4534,3.4423,3.4167,3.3945,3.3887,3.3601,3.3151,3.2861,3.2861,3.2962,3.3427,3.3833,3.4066,3.4124,3.4071,3.3989,3.4062,3.3878,4.5092,4.4504,4.4737,4.469,4.4583,4.5473,4.573,4.564,4.5986,4.609,4.5825,4.5126,4.4487,4.3921,4.321,4.2557,4.2179,4.2092,4.2092,4.2133,4.2133,4.2102,4.214,4.2423,4.2632,4.2798,4.2617,4.2333,4.204,4.163,4.1391,4.1189,4.1528,4.1858,4.2082,4.2045,4.2397,4.2585,4.219,4.1987,4.1814,4.1746,4.1465,4.1034,4.1235,4.1295,4.1164,4.129,4.1323,4.1223,4.1557,4.1705,4.1528,4.086,3.984,3.8616,3.7615,3.6741,3.5962,3.6153,3.6648,3.7228,3.7912,3.8493,3.9013,3.919,3.9128,3.8575,3.8266,3.7669,3.6615,3.5942,3.5463,3.4848,3.4582,3.4549,3.4664,3.4698,3.4716,3.4835,3.4902,3.4902,3.4835,3.4868,3.4868,3.4868,3.4835,3.4769,3.475,3.475,3.4817,3.4817,3.4783,3.4783,3.4735,3.4735,3.4735,3.4687,3.4635,3.4543,3.4389,3.4359,3.433,3.3893,3.3569,3.3551,3.3696,3.4108,3.4326,3.4351,3.4409,3.4399,3.438,3.4346,3.438,4.558,4.494,4.523,4.5184,4.5046,4.5654,4.5956,4.6031,4.6121,4.6165,4.5857,4.4778,4.4168,4.3877,4.2847,4.2237,4.2121,4.2092,4.2092,4.2092,4.2092,4.2216,4.2325,4.2581,4.2875,4.3165,4.3277,4.3163,4.2787,4.25,4.2183,4.1806,4.2266,4.2637,4.2931,4.3365,4.3754,4.3898,4.3541,4.3092,4.2675,4.2538,4.2009,4.1275,4.1571,4.1769,4.1748,4.2206,4.2238,4.1867,4.2174,4.2396,4.2285,4.1837,4.1103,4.0086,3.896,3.8121,3.7674,3.7501,3.7756,3.8251,3.8832,3.9343,3.9508,3.9445,3.9334,3.9065,3.8701,3.8182,3.7585,3.6747,3.5974,3.5317,3.4916,3.4716,3.485,3.4835,3.4854,3.4887,3.4935,3.4935,3.4935,3.4935,3.4935,3.4935,3.4935,3.4902,3.4916,3.4916,3.4983,3.4902,3.4868,3.4902,3.4902,3.4902,3.4902,3.4854,3.4835,3.4835,3.4758,3.471,3.4728,3.4567,3.4325,3.4263,3.438,3.4629,3.4683,3.4616,3.4549,3.4481,3.4448,3.4414,3.4515,4.6324,4.5458,4.5671,4.5595,4.5367,4.5821,4.6076,4.621,4.6314,4.6314,4.5932,4.4749,4.4065,4.3848,4.2673,4.2107,4.2092,4.2092,4.2092,4.2092,4.2216,4.2284,4.2418,4.2688,4.2996,4.3329,4.3738,4.3736,4.3472,4.338,4.3153,4.2963,4.3122,4.3419,4.3716,4.409,4.4358,4.4419,4.4243,4.3876,4.3441,4.3487,4.3113,4.2556,4.2789,4.3105,4.2944,4.3309,4.3256,4.2778,4.2789,4.2943,4.2912,4.2664,4.2105,4.1195,4.0246,3.9516,3.9041,3.8822,3.8877,3.9135,3.9551,3.9657,3.9646,3.9517,3.9388,3.9313,3.8985,3.8736,3.8292,3.7278,3.6442,3.5989,3.546,3.5162,3.518,3.5067,3.5067,3.51,3.5148,3.5148,3.5148,3.5148,3.5148,3.5148,3.518,3.5115,3.5082,3.5115,3.5115,3.5067,3.5115,3.5148,3.518,3.518,3.5148,3.51,3.5067,3.5082,3.5001,3.4968,3.492,3.4905,3.492,3.4902,3.4916,3.4883,3.4817,3.4735,3.4635,3.4616,3.4616,3.4549,3.465,4.7169,4.597,4.618,4.6001,4.564,4.5986,4.618,4.6254,4.6403,4.6403,4.5932,4.4821,4.4166,4.3906,4.2687,4.2092,4.2092,4.2092,4.2092,4.2175,4.2284,4.2418,4.2622,4.2955,4.3314,4.3645,4.4166,4.4289,4.4236,4.432,4.4251,4.4021,4.4021,4.4174,4.4365,4.4458,4.4435,4.4572,4.4534,4.4366,4.4236,4.4357,4.4167,4.3827,4.4246,4.4452,4.4285,4.4402,4.4266,4.3453,4.3441,4.3372,4.3372,4.3204,4.2743,4.1931,4.1334,4.075,4.0228,4.0084,3.994,4.0024,3.994,3.9788,3.9788,3.9625,3.9481,3.9532,3.9445,3.9178,3.8791,3.7706,3.717,3.6901,3.6336,3.5933,3.5619,3.5409,3.5311,3.5472,3.5504,3.5504,3.5489,3.5489,3.5489,3.5394,3.5427,3.5427,3.5394,3.5394,3.5362,3.5297,3.5377,3.5457,3.5457,3.5457,3.5424,3.5392,3.5359,3.5326,3.5148,3.5082,3.5034,3.5001,3.5115,3.5115,3.5067,3.5001,3.4968,3.4902,3.4835,3.4868,3.4868,3.4802,3.4817,4.754,4.6462,4.6491,4.6239,4.588,4.609,4.621,4.621,4.6254,4.6254,4.5888,4.4705,4.4138,4.3935,4.2818,4.2092,4.215,4.2121,4.2092,4.2133,4.231,4.2688,4.3036,4.3379,4.3864,4.4404,4.4836,4.5061,4.5098,4.4949,4.4874,4.4685,4.4496,4.4648,4.4911,4.4949,4.5173,4.5358,4.5173,4.5024,4.4986,4.5046,4.4882,4.4531,4.4863,4.5147,4.5305,4.5426,4.5421,4.501,4.4233,4.3704,4.3657,4.3501,4.3232,4.2834,4.2118,4.1742,4.1768,4.123,4.0927,4.1075,4.0712,4.0489,4.0281,3.9895,3.9732,3.9768,3.9717,3.9571,3.939,3.9259,3.8685,3.8119,3.7685,3.7218,3.6583,3.5972,3.5731,3.5651,3.5647,3.5519,3.5549,3.5612,3.5647,3.5636,3.5671,3.5703,3.5703,3.5671,3.5606,3.5557,3.5572,3.5619,3.5619,3.5619,3.5587,3.5572,3.5539,3.5489,3.5326,3.5261,3.5246,3.5279,3.5407,3.5326,3.5246,3.518,3.5148,3.5082,3.5049,3.5049,3.5016,3.4968,3.5016,4.7673,4.6785,4.6639,4.6358,4.609,4.606,4.6135,4.621,4.621,4.621,4.5975,4.504,4.456,4.4342,4.3442,4.2861,4.2484,4.2208,4.2092,4.216,4.2392,4.2809,4.3394,4.3912,4.4503,4.5061,4.5336,4.552,4.5484,4.5315,4.5017,4.4761,4.4648,4.4723,4.5061,4.5247,4.5526,4.5817,4.5817,4.5744,4.5728,4.5801,4.5957,4.5875,4.6073,4.6306,4.6234,4.6248,4.6113,4.5698,4.5069,4.4577,4.4401,4.4141,4.3838,4.3506,4.2751,4.2306,4.2312,4.1949,4.1581,4.1835,4.1305,4.0935,4.0593,4.0196,3.9965,3.998,3.9985,3.9993,4.022,4.0185,3.988,3.9566,3.9061,3.8637,3.8075,3.7154,3.6396,3.6408,3.6582,3.67,3.6652,3.6366,3.6263,3.6501,3.5938,3.594,3.5863,3.5878,3.5831,3.5814,3.5765,3.5765,3.578,3.5765,3.5733,3.5686,3.5621,3.5572,3.5457,3.5457,3.5457,3.5472,3.5472,3.5472,3.5392,3.5359,3.5326,3.5326,3.5261,3.5213,3.518,3.5213,3.5261,4.7746,4.6887,4.6683,4.6447,4.6165,4.6015,4.6015,4.6135,4.6165,4.6135,4.6048,4.5508,4.4982,4.4763,4.4182,4.3587,4.2963,4.2368,4.2092,4.2133,4.25,4.293,4.3542,4.445,4.5204,4.5477,4.594,4.6013,4.5851,4.5477,4.5226,4.4747,4.461,4.4723,4.4933,4.5342,4.5744,4.6088,4.6266,4.6372,4.6407,4.6598,4.6828,4.7188,4.7324,4.7292,4.7092,4.704,4.6825,4.6179,4.6129,4.6034,4.5693,4.5037,4.4437,4.404,4.3346,4.3056,4.3009,4.2655,4.2444,4.2462,4.186,4.146,4.1224,4.0758,4.0439,4.0405,4.0478,4.0737,4.116,4.1195,4.1087,4.0831,4.0384,4.0096,3.9672,3.8576,3.8054,3.7434,3.7552,3.7654,3.7669,3.7486,3.7397,3.7216,3.6682,3.63,3.6332,3.6194,3.6303,3.6163,3.6132,3.6389,3.6418,3.643,3.6338,3.6412,3.6209,3.5974,3.5847,3.5617,3.5617,3.5504,3.5489,3.5489,3.5489,3.5457,3.5424,3.5489,3.5457,3.5359,3.5392,3.5489,3.5472,4.7746,4.6887,4.6683,4.6447,4.618,4.597,4.5925,4.597,4.597,4.597,4.5883,4.5287,4.504,4.4777,4.4269,4.3631,4.3007,4.2397,4.2092,4.2175,4.2514,4.2985,4.3771,4.5026,4.6028,4.6539,4.6913,4.6982,4.674,4.6449,4.5661,4.4855,4.4633,4.4763,4.5027,4.5468,4.5961,4.6407,4.6668,4.6842,4.703,4.7098,4.7268,4.7638,4.7704,4.7704,4.7802,4.7802,4.7752,4.7636,4.762,4.7424,4.6898,4.5864,4.5081,4.4528,4.412,4.3763,4.3746,4.3892,4.4054,4.4056,4.3358,4.2825,4.2466,4.1736,4.1232,4.1241,4.1392,4.164,4.19,4.2045,4.2022,4.1774,4.1545,4.1191,4.0714,4.0364,3.9945,3.9186,3.8863,3.8648,3.8809,3.886,3.8693,3.8493,3.8059,3.7873,3.7888,3.7436,3.7063,3.6816,3.6569,3.6892,3.7199,3.7226,3.7254,3.7512,3.7338,3.6919,3.6622,3.6023,3.5791,3.6027,3.5779,3.5489,3.5489,3.5504,3.5489,3.5489,3.5489,3.5489,3.5489,3.5489,3.5489,4.7506,4.7062,4.6858,4.6668,4.6521,4.618,4.606,4.606,4.597,4.588,4.5793,4.5561,4.5401,4.5227,4.4734,4.395,4.3036,4.2368,4.2121,4.2175,4.2514,4.3112,4.3843,4.5278,4.6423,4.7214,4.7763,4.7753,4.7409,4.6794,4.6152,4.561,4.5171,4.5033,4.5178,4.553,4.6112,4.658,4.7012,4.7319,4.7604,4.7588,4.7721,4.7787,4.7853,4.7886,4.7968,4.8001,4.8001,4.7984,4.7984,4.7869,4.744,4.6781,4.5845,4.5002,4.4409,4.4065,4.4068,4.4104,4.4258,4.4657,4.4267,4.3831,4.3443,4.2764,4.2169,4.206,4.2158,4.2301,4.2492,4.2805,4.2841,4.272,4.2602,4.2376,4.2138,4.2091,4.1574,4.0927,4.0785,4.0576,4.048,4.0402,4.0087,3.9771,3.9439,3.9356,3.935,3.8831,3.8206,3.8178,3.8056,3.823,3.8482,3.8465,3.8509,3.8691,3.8546,3.809,3.768,3.7201,3.699,3.7071,3.6592,3.5919,3.5519,3.5519,3.5504,3.5504,3.5489,3.5489,3.5489,3.5489,3.5489,4.7309,4.7266,4.7019,4.6931,4.6844,4.6388,4.621,4.6165,4.597,4.588,4.588,4.5866,4.5851,4.5648,4.498,4.4052,4.2977,4.2382,4.2121,4.2175,4.2447,4.3068,4.4005,4.5152,4.6412,4.7506,4.8308,4.831,4.7723,4.7184,4.6647,4.6055,4.5563,4.5489,4.5617,4.6113,4.6405,4.6824,4.7395,4.7818,4.7935,4.8001,4.8001,4.8001,4.8001,4.7984,4.8001,4.8001,4.8001,4.8001,4.7968,4.7902,4.7704,4.7404,4.6651,4.5517,4.4592,4.4246,4.4285,4.4405,4.4896,4.5468,4.5194,4.4724,4.4107,4.3605,4.2976,4.2653,4.2664,4.2789,4.2976,4.3251,4.3386,4.3399,4.3366,4.3353,4.3194,4.3089,4.2935,4.2579,4.2571,4.2237,4.1869,4.1614,4.1262,4.1132,4.0793,4.058,4.0508,4.0142,3.9732,3.9814,3.9834,3.987,3.997,3.9942,4.0024,4.0229,3.9832,3.9342,3.8942,3.856,3.8348,3.803,3.7306,3.6627,3.6135,3.5672,3.5699,3.5699,3.5564,3.5489,3.5489,3.5489,3.5489,4.7309,4.7266,4.7019,4.6931,4.6844,4.6447,4.621,4.6165,4.6015,4.588,4.588,4.588,4.5866,4.5548,4.4603,4.3732,4.3005,4.2397,4.2092,4.2133,4.238,4.2922,4.3829,4.5257,4.6351,4.7477,4.8409,4.8432,4.7982,4.7602,4.6921,4.6158,4.6184,4.6162,4.6266,4.691,4.7506,4.7577,4.803,4.8196,4.8001,4.7968,4.7968,4.7968,4.7968,4.7968,4.7968,4.7968,4.8001,4.8001,4.8001,4.7902,4.7704,4.7521,4.7202,4.6606,4.6071,4.5611,4.5683,4.5677,4.5926,4.6346,4.6271,4.5816,4.5177,4.413,4.3384,4.2934,4.3197,4.3448,4.3591,4.3594,4.3602,4.3717,4.3883,4.38,4.372,4.4073,4.3916,4.3803,4.3688,4.3225,4.2794,4.2633,4.2456,4.2338,4.2187,4.1922,4.1705,4.1368,4.116,4.1197,4.1216,4.1253,4.1306,4.1281,4.1288,4.1565,4.1135,4.0579,4.026,3.986,3.9274,3.8846,3.8163,3.7687,3.7251,3.6814,3.625,3.5959,3.5934,3.5737,3.5489,3.5504,3.5584,4.7309,4.7309,4.7164,4.7121,4.7077,4.6756,4.6521,4.6403,4.618,4.6001,4.5925,4.588,4.5607,4.4924,4.3976,4.329,4.268,4.2291,4.2107,4.2148,4.2371,4.2975,4.4047,4.5117,4.6169,4.7482,4.8212,4.8466,4.8163,4.7937,4.7395,4.7054,4.6761,4.6742,4.6966,4.762,4.7702,4.7745,4.7853,4.795,4.782,4.7754,4.7737,4.7737,4.7787,4.782,4.7853,4.7951,4.8001,4.8001,4.8001,4.7968,4.7853,4.7704,4.7488,4.7354,4.6892,4.6547,4.6391,4.6509,4.6807,4.7118,4.7043,4.6832,4.6203,4.5296,4.4525,4.4593,4.4669,4.4712,4.4696,4.4823,4.4823,4.4821,4.4622,4.4688,4.4688,4.4837,4.4972,4.4856,4.4757,4.4329,4.3881,4.3555,4.3393,4.326,4.3188,4.3005,4.2884,4.2782,4.2574,4.2479,4.2498,4.2531,4.2556,4.2547,4.2315,4.2421,4.2344,4.185,4.1629,4.1183,4.0594,4.0319,4.0103,3.9482,3.8677,3.7887,3.7207,3.6781,3.6371,3.628,3.6174,3.5888,3.5982,4.7309,4.7309,4.7309,4.7309,4.7266,4.7019,4.68,4.6594,4.6314,4.609,4.5912,4.5752,4.5128,4.4263,4.3675,4.3163,4.2503,4.2284,4.2216,4.223,4.2519,4.3201,4.4227,4.5164,4.6326,4.7779,4.8407,4.8697,4.863,4.8366,4.8168,4.8034,4.7559,4.7542,4.7808,4.8341,4.8648,4.8388,4.8191,4.7984,4.772,4.7588,4.7537,4.7521,4.7605,4.7704,4.7737,4.7886,4.8001,4.8001,4.7935,4.7886,4.7853,4.7688,4.7621,4.7521,4.7285,4.7167,4.6979,4.6979,4.715,4.7372,4.7375,4.711,4.681,4.6245,4.5781,4.5553,4.5601,4.5665,4.5781,4.5715,4.5599,4.5566,4.5616,4.5748,4.5798,4.5698,4.5549,4.5384,4.5351,4.55,4.5045,4.4594,4.4329,4.4197,4.4111,4.4029,4.3863,4.3714,4.3406,4.3149,4.3182,4.3185,4.3237,4.3292,4.3237,4.3162,4.307,4.2912,4.2518,4.2299,4.1885,4.1773,4.1686,4.1158,4.0303,3.9214,3.8175,3.7732,3.7336,3.7138,3.6955,3.6682,3.6732,4.7309,4.7309,4.7309,4.7309,4.7309,4.7019,4.68,4.658,4.6358,4.6106,4.5841,4.539,4.4643,4.3931,4.3646,4.3263,4.2703,4.2459,4.2433,4.2556,4.284,4.3535,4.449,4.5578,4.6683,4.7981,4.8646,4.9072,4.9244,4.8712,4.8434,4.8046,4.7993,4.8403,4.8854,4.9331,4.9602,4.9311,4.8855,4.8214,4.7835,4.7521,4.7436,4.7487,4.7605,4.7704,4.7704,4.7853,4.7902,4.7902,4.7754,4.7605,4.7571,4.7487,4.7386,4.7386,4.7404,4.7336,4.7336,4.7302,4.737,4.7424,4.7358,4.7207,4.7073,4.6311,4.5914,4.6046,4.6228,4.6096,4.5997,4.5847,4.6162,4.6245,4.6378,4.6361,4.6344,4.6195,4.6063,4.5864,4.598,4.6262,4.6311,4.5881,4.5251,4.5086,4.4953,4.487,4.434,4.4108,4.3747,4.3535,4.3568,4.3585,4.3602,4.3641,4.3729,4.3603,4.346,4.3377,4.3218,4.3007,4.2955,4.2765,4.2559,4.227,4.1869,4.0748,3.9695,3.8809,3.8388,3.8412,3.8305,3.8135,3.8308,4.7309,4.7309,4.7309,4.7309,4.7309,4.7207,4.7019,4.68,4.6653,4.6285,4.5654,4.4871,4.4246,4.3897,4.353,4.3318,4.3065,4.3025,4.2945,4.3152,4.3542,4.4193,4.5096,4.6077,4.7198,4.8217,4.8852,4.9087,4.9113,4.8786,4.862,4.8398,4.8324,4.8661,4.9237,4.9942,5.0184,4.9902,4.9169,4.8293,4.7701,4.7285,4.7149,4.7132,4.747,4.7504,4.7454,4.7671,4.7654,4.7554,4.7437,4.7268,4.7082,4.6996,4.6961,4.6961,4.7014,4.715,4.7437,4.7521,4.7754,4.7803,4.7703,4.7554,4.7487,4.7239,4.7156,4.7173,4.7057,4.6941,4.7123,4.7156,4.7255,4.7156,4.7073,4.7007,4.6941,4.6825,4.6825,4.6758,4.7007,4.7322,4.7289,4.7189,4.651,4.5914,4.5798,4.5599,4.5086,4.4589,4.4307,4.4141,4.4161,4.4274,4.4291,4.4274,4.4274,4.4111,4.3932,4.3902,4.3891,4.3981,4.3899,4.3707,4.3533,4.3328,4.2864,4.211,4.1246,4.0292,3.996,3.9929,3.9771,3.9566,3.974,4.7309,4.7309,4.7309,4.7309,4.7309,4.7309,4.7149,4.6887,4.665,4.6058,4.5088,4.4294,4.3913,4.3741,4.3574,4.3453,4.3423,4.3448,4.3488,4.3803,4.4343,4.5026,4.5837,4.6852,4.7946,4.8599,4.9031,4.9331,4.9219,4.854,4.8494,4.8486,4.8394,4.8579,4.9447,5.0229,5.0628,5.0292,4.9747,4.872,4.8078,4.7628,4.7245,4.7264,4.747,4.7504,4.7454,4.7504,4.7437,4.7201,4.6996,4.6722,4.6547,4.6372,4.6337,4.6388,4.6407,4.6547,4.6911,4.7471,4.7853,4.7836,4.7951,4.7951,4.8017,4.8017,4.7785,4.7852,4.7918,4.8001,4.8001,4.7835,4.7769,4.762,4.7653,4.7603,4.7653,4.7587,4.7686,4.7736,4.7885,4.7819,4.7769,4.7636,4.7371,4.6758,4.646,4.6262,4.5897,4.5417,4.497,4.4854,4.4854,4.4937,4.5019,4.5019,4.5019,4.5003,4.4807,4.4624,4.4644,4.4764,4.4882,4.4772,4.4614,4.4455,4.397,4.3324,4.2538,4.1691,4.1435,4.1195,4.1212,4.1054,4.1035,4.7309,4.7309,4.7309,4.7294,4.7249,4.7279,4.7119,4.6752,4.6217,4.5298,4.4261,4.3976,4.37,4.3484,4.3548,4.369,4.3778,4.3864,4.4004,4.4302,4.5379,4.6005,4.6737,4.7711,4.8656,4.9203,4.9372,4.9412,4.9421,4.8404,4.8366,4.8614,4.8389,4.859,4.963,5.0864,5.1368,5.1208,5.0907,4.9928,4.8872,4.8356,4.7959,4.7567,4.7554,4.7588,4.7454,4.755,4.7447,4.7068,4.6831,4.6598,4.6314,4.6022,4.5902,4.5886,4.5905,4.5965,4.6108,4.71,4.7538,4.7704,4.782,4.8034,4.805,4.8034,4.8117,4.8216,4.8067,4.8017,4.8001,4.8017,4.8017,4.8001,4.8001,4.8001,4.8001,4.8001,4.8001,4.8001,4.8001,4.8001,4.7984,4.7968,4.7951,4.762,4.7206,4.6874,4.6543,4.6179,4.5682,4.5467,4.545,4.5682,4.5765,4.5765,4.5765,4.5765,4.5582,4.5284,4.5351,4.5568,4.5667,4.5717,4.5654,4.5447,4.5063,4.4627,4.391,4.3225,4.2645,4.2405,4.2454,4.2421,4.2286,4.7309,4.7309,4.7309,4.7055,4.6696,4.6651,4.6565,4.6314,4.5388,4.4613,4.418,4.3792,4.3479,4.3453,4.3699,4.3949,4.4127,4.4648,4.4805,4.512,4.6423,4.7045,4.7676,4.8455,4.9284,4.9372,4.9372,4.9087,4.8893,4.7983,4.8024,4.8275,4.8711,4.9497,5.0345,5.1268,5.1563,5.1291,5.0958,5.0274,4.8971,4.8638,4.829,4.7685,4.7736,4.7736,4.7483,4.7727,4.7677,4.7264,4.7064,4.6982,4.6514,4.6124,4.5661,4.5499,4.5366,4.5083,4.5546,4.6372,4.7116,4.7404,4.777,4.815,4.858,4.8216,4.8315,4.8498,4.8365,4.8249,4.8001,4.8034,4.8034,4.8017,4.8001,4.8001,4.8001,4.8001,4.8001,4.8001,4.8001,4.8017,4.8034,4.8216,4.8249,4.8282,4.7918,4.7338,4.6941,4.6709,4.6344,4.6079,4.603,4.6344,4.651,4.651,4.651,4.651,4.6146,4.5665,4.5847,4.6326,4.6475,4.659,4.6542,4.6444,4.5995,4.558,4.5305,4.4789,4.4025,4.3488,4.3406,4.3336,4.318,4.7174,4.6965,4.6965,4.6576,4.6025,4.6175,4.607,4.5559,4.4691,4.4212,4.3873,4.3469,4.3305,4.3463,4.3778,4.4026,4.4281,4.4986,4.5603,4.5997,4.7336,4.7947,4.8541,4.915,4.9383,4.9372,4.9047,4.8718,4.8366,4.7474,4.747,4.805,4.8922,4.9599,5.047,5.1161,5.1687,5.1581,5.1451,5.1041,5.0114,4.9533,4.9069,4.8511,4.833,4.8395,4.8075,4.8127,4.8333,4.7901,4.7658,4.7572,4.6959,4.6167,4.561,4.5248,4.4772,4.4573,4.5046,4.5945,4.6753,4.7487,4.7798,4.8513,4.9192,4.9127,4.916,4.9193,4.8912,4.8829,4.873,4.868,4.8663,4.8663,4.868,4.8713,4.8746,4.8779,4.8614,4.8547,4.8398,4.8315,4.8199,4.8365,4.8547,4.8597,4.8614,4.8034,4.7487,4.7289,4.7106,4.6841,4.6742,4.704,4.7222,4.7272,4.7272,4.7272,4.6858,4.6393,4.6754,4.7268,4.7334,4.7416,4.7446,4.7313,4.6869,4.6457,4.5978,4.5597,4.5149,4.4705,4.4406,4.4274,4.4205,4.689,4.6337,4.6249,4.5888,4.5439,4.5798,4.5352,4.4347,4.4231,4.3858,4.3319,4.3334,4.3305,4.3423,4.3778,4.4026,4.4319,4.5139,4.5886,4.676,4.7978,4.8604,4.9149,4.9599,4.9574,4.9169,4.8759,4.8453,4.7973,4.7422,4.7232,4.7557,4.8502,4.9318,5.012,5.0854,5.1475,5.178,5.1914,5.1522,5.0879,5.0898,5.0117,4.9539,4.939,4.9306,4.9133,4.9085,4.9092,4.873,4.8199,4.779,4.7092,4.6112,4.5631,4.509,4.4537,4.4579,4.4818,4.5761,4.6829,4.7729,4.8527,4.9301,4.9821,5.0005,4.9955,5.0005,4.9889,4.9988,5.0005,4.9955,4.9889,4.9906,4.9906,4.9939,4.9955,4.9839,4.9591,4.9409,4.921,4.9028,4.8746,4.8779,4.9177,4.9226,4.9276,4.9094,4.858,4.8117,4.7918,4.7653,4.7669,4.7818,4.7901,4.7833,4.78,4.7733,4.7768,4.7518,4.7898,4.793,4.7896,4.796,4.8286,4.8152,4.7608,4.7014,4.6419,4.6134,4.6293,4.5813,4.5469,4.5421,4.5405,4.6217,4.5603,4.5589,4.52,4.4616,4.4317,4.3958,4.3604,4.3574,4.3424,4.3305,4.3305,4.3305,4.3344,4.3778,4.4011,4.4642,4.549,4.6349,4.7337,4.8435,4.9192,4.9639,4.9803,4.9694,4.9275,4.8826,4.837,4.8187,4.7672,4.7462,4.7683,4.8331,4.8903,4.9526,5.0276,5.1075,5.1741,5.205,5.1869,5.1545,5.138,5.0684,5.0303,5.0204,5.0051,4.9846,5.008,5.0053,4.9681,4.9645,4.9423,4.885,4.7845,4.6967,4.5678,4.5284,4.5152,4.5135,4.6145,4.7255,4.821,4.9238,5.0181,5.0626,5.0684,5.0585,5.0717,5.0684,5.0651,5.0618,5.0601,5.0585,5.0601,5.0601,5.0601,5.0618,5.0551,5.0303,5.0089,4.989,4.9691,4.9393,4.9642,4.9991,4.9989,4.9955,4.9923,4.9491,4.9011,4.8564,4.8282,4.8017,4.8049,4.8179,4.8127,4.8145,4.8162,4.8147,4.8115,4.8097,4.8096,4.8211,4.8356,4.8515,4.8465,4.8268,4.7688,4.7191,4.7604,4.7718,4.7085,4.6586,4.6538,4.6472,4.5403,4.4821,4.4874,4.4526,4.3873,4.3469,4.3305,4.3305,4.3305,4.3305,4.3305,4.3305,4.3305,4.3329,4.366,4.3949,4.4134,4.5161,4.6141,4.7407,4.868,4.9448,4.9885,5.0015,4.9813,4.9421,4.899,4.851,4.8328,4.8118,4.7907,4.7961,4.837,4.862,4.9097,4.9781,5.0547,5.1263,5.1749,5.1861,5.1789,5.1661,5.1247,5.0833,5.0817,5.0797,5.0544,5.0961,5.1057,5.0778,5.0908,5.0416,4.9679,4.8613,4.6954,4.5657,4.5253,4.49,4.4874,4.6284,4.7413,4.8648,4.992,5.0992,5.1383,5.1479,5.1512,5.1578,5.133,5.1131,5.1115,5.1082,5.1098,5.1115,5.1115,5.1115,5.1131,5.1148,5.0951,5.0738,5.0539,5.0357,5.0408,5.0674,5.0874,5.1008,5.1125,5.1192,5.0508,4.9576,4.9061,4.868,4.8331,4.8115,4.8294,4.8556,4.8475,4.8426,4.8195,4.8163,4.8196,4.8326,4.8537,4.8582,4.8627,4.866,4.8778,4.8515,4.8249,4.8597,4.8694,4.8157,4.7689,4.7563,4.7493,4.4525,4.3972,4.4105,4.3873,4.3349,4.3305,4.3305,4.3305,4.3305,4.3305,4.3305,4.3305,4.3305,4.3344,4.3636,4.3729,4.4118,4.4864,4.6111,4.7317,4.8455,4.9448,5.0265,5.0386,5.0214,4.9757,4.9331,4.9006,4.8495,4.837,4.837,4.8328,4.8427,4.8635,4.9006,4.9597,5.0315,5.0968,5.1635,5.2023,5.2272,5.2277,5.2092,5.1647,5.1761,5.2026,5.1659,5.1768,5.2102,5.1851,5.145,5.0908,4.9898,4.8825,4.6991,4.591,4.5602,4.5257,4.5428,4.6539,4.7725,4.8984,5.0357,5.1434,5.1897,5.2026,5.2078,5.2094,5.1827,5.1794,5.1777,5.1761,5.1777,5.1777,5.1777,5.1777,5.1777,5.1796,5.1698,5.1503,5.1339,5.1174,5.1327,5.1578,5.1728,5.1964,5.2048,5.2198,5.1645,5.0458,4.9876,4.941,4.9128,4.8943,4.9024,4.9155,4.889,4.8675,4.8625,4.8742,4.9141,4.9086,4.8894,4.9226,4.9592,4.934,4.9289,4.9142,4.9043,4.9005,4.9068,4.8964,4.8798,4.8654,4.8402,4.3704,4.3273,4.3449,4.3424,4.3305,4.3305,4.3305,4.3305,4.3305,4.3305,4.3305,4.329,4.3305,4.3344,4.3557,4.3651,4.3892,4.4687,4.6059,4.7347,4.8453,4.9555,5.0659,5.0771,5.0663,5.0454,5.0081,4.9637,4.9219,4.9015,4.8826,4.8604,4.8744,4.9021,4.9144,4.9717,5.0315,5.0876,5.145,5.205,5.2373,5.2409,5.2277,5.2161,5.2343,5.2343,5.2108,5.2208,5.2318,5.223,5.2013,5.1301,5.0283,4.9162,4.8009,4.6946,4.6432,4.6137,4.6318,4.7123,4.8351,4.9454,5.0684,5.1641,5.225,5.2338,5.2409,5.2409,5.2409,5.2409,5.2409,5.2409,5.2409,5.2409,5.2409,5.2409,5.2409,5.2378,5.2348,5.2235,5.2089,5.2162,5.2266,5.2418,5.2568,5.2652,5.2651,5.2702,5.2519,5.1748,5.1128,5.066,5.0326,5.0142,5.0056,4.9889,4.9656,4.9839,4.9955,5.0056,5.0106,5.0019,4.9963,5.0413,5.0696,5.031,5.0057,5.0021,4.9902,4.9719,4.9584,4.9581,4.9717,4.9654,4.9331,4.2986,4.2784,4.305,4.329,4.3463,4.3478,4.3503,4.3581,4.3503,4.3478,4.3463,4.3384,4.3305,4.3305,4.3478,4.3557,4.3681,4.4424,4.5641,4.6998,4.8374,4.9553,5.037,5.1092,5.1129,5.0984,5.0647,5.0221,4.9963,4.986,4.9661,4.9446,4.9557,4.9533,4.9613,5.0058,5.047,5.0914,5.1466,5.1924,5.2338,5.2409,5.2409,5.2409,5.2409,5.2409,5.2409,5.2409,5.2409,5.2266,5.1977,5.1355,5.0336,4.9284,4.8364,4.7613,4.7144,4.705,4.7269,4.802,4.9171,5.0123,5.1157,5.22,5.2447,5.257,5.2676,5.2676,5.2676,5.2676,5.2535,5.2499,5.2445,5.2409,5.2409,5.2409,5.2409,5.2393,5.2485,5.2629,5.2616,5.272,5.2841,5.2977,5.3094,5.3094,5.3161,5.3127,5.2942,5.2773,5.227,5.1799,5.1346,5.096,5.064,5.0573,5.0524,5.0824,5.1192,5.0924,5.0723,5.0889,5.1103,5.1303,5.1336,5.1067,5.0847,5.0811,5.071,5.0559,5.0373,5.0204,5.0405,5.0608,5.0422,4.2202,4.228,4.2672,4.3115,4.356,4.366,4.3808,4.3934,4.3847,4.3729,4.369,4.3478,4.3369,4.329,4.3305,4.3329,4.3593,4.4328,4.5375,4.6656,4.7828,4.9397,5.0564,5.1221,5.1408,5.1429,5.1188,5.1022,5.0794,5.0679,5.0563,5.0547,5.0432,5.0315,5.0315,5.0432,5.0755,5.1172,5.1631,5.1904,5.2194,5.2409,5.2409,5.2409,5.2409,5.2409,5.2409,5.2409,5.2409,5.2194,5.1871,5.1134,5.0304,4.9275,4.8356,4.7648,4.7338,4.7309,4.7691,4.8831,4.9753,5.0632,5.174,5.2381,5.2642,5.2799,5.2903,5.2938,5.2938,5.2799,5.2694,5.2589,5.2499,5.2445,5.2409,5.2409,5.2409,5.2445,5.264,5.2868,5.3024,5.3127,5.328,5.3433,5.3467,5.3518,5.3518,5.3518,5.345,5.3247,5.2927,5.2539,5.2118,5.1732,5.1461,5.1378,5.1463,5.1748,5.1982,5.1595,5.141,5.1846,5.1963,5.1793,5.1775,5.1843,5.1708,5.1589,5.1488,5.1352,5.0947,5.076,5.12,5.1369,5.1471,4.1255,4.1185,4.1937,4.2527,4.2928,4.3473,4.3793,4.3988,4.3972,4.3949,4.391,4.3729,4.3518,4.3305,4.3305,4.3384,4.3672,4.4334,4.5577,4.692,4.8135,4.9633,5.0833,5.1594,5.1868,5.1904,5.1778,5.1684,5.1466,5.1317,5.1188,5.1043,5.1022,5.093,5.0968,5.1097,5.128,5.1631,5.1815,5.2086,5.2266,5.2409,5.2409,5.2409,5.2409,5.2409,5.2409,5.2409,5.2409,5.2266,5.1928,5.1136,5.0172,4.9213,4.8302,4.7645,4.7317,4.7839,4.8504,4.9502,5.0347,5.1428,5.231,5.2679,5.2886,5.3058,5.3161,5.3246,5.3161,5.2868,5.2729,5.2659,5.2553,5.248,5.2445,5.2445,5.248,5.2535,5.2694,5.2903,5.3041,5.3212,5.3399,5.3467,5.3467,5.3518,5.3518,5.3518,5.3518,5.3518,5.3518,5.3146,5.2792,5.3028,5.2977,5.2556,5.2573,5.2809,5.2859,5.2538,5.2538,5.2994,5.3027,5.2621,5.2756,5.2959,5.2756,5.2334,5.2232,5.2029,5.1454,5.1285,5.1792,5.2147,5.2249]}]]